[[{"header":{"parameterUnit":"m.s-1","parameterCategory":1,"la1":30.6,"la2":28.766,"lo1":-90.7593,"lo2":-88.6598,"dy":0.0162,"dx":0.0183,"nx":116,"ny":114,"refTime":"2023-10-16T18:00:00:Z","depth":0,"parameterNumber":2,"parameterNumberName":"U-component_of_WINDS"},"data":[0.0,0.0,0.0,0.0,0.0,0.0,0.0,0.0,0.0,0.0,0.0,0.0,0.0,0.0,0.0,0.0,0.0,0.0,0.0,0.0,0.0,0.0,0.0,0.0,0.0,0.0,0.0,0.0,0.0,0.0,0.0,0.0,0.0,0.0,0.0,0.0,0.0,0.0,0.0,0.0,0.0,0.0,0.0,0.0,0.0,0.0,0.0,0.0,0.0,0.0,0.0,0.0,0.0,0.0,0.0,0.0,0.0,0.0,0.0,0.0,0.0,0.0,0.0,0.0,0.0,0.0,0.0,0.0,0.0,0.0,0.0,0.0,0.0,0.0,0.0,0.0,0.0,0.0,0.0,0.0,0.0,0.0,0.0,0.0,0.0,0.0,0.0,0.0,0.0,0.0,0.0,0.0,0.0,0.0,0.0,0.0,0.0,0.0,0.0,0.0,0.0,0.0,0.0,0.0,0.0,0.0,0.0,0.0,0.0,0.0,0.0,0.0,0.0,0.0,0.0,0.0,0.0,0.0,0.0,0.0,0.0,0.0,0.0,0.0,0.0,0.0,0.0,0.0,0.0,0.0,0.0,0.0,0.0,0.0,0.0,0.0,0.0,0.0,0.0,0.0,0.0,0.0,0.0,0.0,0.0,0.0,0.0,0.0,0.0,0.0,0.0,0.0,0.0,0.0,0.0,0.0,0.0,0.0,0.0,0.0,0.0,0.0,0.0,0.0,0.0,0.0,0.0,0.0,0.0,0.0,0.0,0.0,0.0,0.0,0.0,0.0,0.0,0.0,0.0,0.0,0.0,0.0,0.0,0.0,0.0,0.0,0.0,0.0,0.0,0.0,0.0,0.0,0.0,0.0,0.0,0.0,0.0,0.0,0.0,0.0,0.0,0.0,0.0,0.0,0.0,0.0,0.0,0.0,0.0,0.0,0.0,0.0,0.0,0.0,0.0,0.0,0.0,0.0,0.0,0.0,0.0,0.0,0.0,0.0,0.0,0.0,0.0,0.0,0.0,0.0,0.0,0.0,0.0,0.0,0.0,0.0,0.0,0.0,0.0,0.0,0.0,0.0,0.0,0.0,0.0,0.0,0.0,0.0,0.0,0.0,0.0,0.0,0.0,0.0,0.0,0.0,0.0,0.0,0.0,0.0,0.0,0.0,0.0,0.0,0.0,0.0,0.0,0.0,0.0,0.0,0.0,0.0,0.0,0.0,0.0,0.0,0.0,0.0,0.0,0.0,0.0,0.0,0.0,0.0,0.0,0.0,0.0,0.0,0.0,0.0,0.0,0.0,0.0,0.0,0.0,0.0,0.0,0.0,0.0,0.0,0.0,0.0,0.0,0.0,0.0,0.0,0.0,0.0,0.0,0.0,0.0,0.0,0.0,0.0,0.0,0.0,0.0,0.0,0.0,0.0,0.0,0.0,0.0,0.0,0.0,0.0,0.0,0.0,0.0,0.0,0.0,0.0,0.0,0.0,0.0,0.0,0.0,0.0,0.0,0.0,0.0,0.0,0.0,0.0,0.0,0.0,0.0,0.0,0.0,0.0,0.0,0.0,0.0,0.0,0.0,0.0,0.0,0.0,0.0,0.0,0.0,0.0,0.0,0.0,0.0,0.0,0.0,0.0,0.0,0.0,0.0,0.0,0.0,0.0,0.0,0.0,0.0,0.0,0.0,0.0,0.0,0.0,0.0,0.0,0.0,0.0,0.0,0.0,0.0,0.0,0.0,0.0,0.0,0.0,0.0,0.0,0.0,0.0,0.0,0.0,0.0,0.0,0.0,0.0,0.0,0.0,0.0,0.0,0.0,0.0,0.0,0.0,0.0,0.0,0.0,0.0,0.0,0.0,0.0,0.0,0.0,0.0,0.0,0.0,0.0,0.0,0.0,0.0,0.0,0.0,0.0,0.0,0.0,0.0,0.0,0.0,0.0,0.0,0.0,0.0,0.0,0.0,0.0,0.0,0.0,0.0,0.0,0.0,0.0,0.0,0.0,0.0,0.0,0.0,0.0,0.0,0.0,0.0,0.0,0.0,0.0,0.0,0.0,0.0,0.0,0.0,0.0,0.0,0.0,0.0,0.0,0.0,0.0,0.0,0.0,0.0,0.0,0.0,0.0,0.0,0.0,0.0,0.0,0.0,0.0,0.0,0.0,0.0,0.0,0.0,0.0,0.0,0.0,0.0,0.0,0.0,0.0,0.0,0.0,0.0,0.0,0.0,0.0,0.0,0.0,0.0,0.0,0.0,0.0,0.0,0.0,0.0,0.0,0.0,0.0,0.0,0.0,0.0,0.0,0.0,0.0,0.0,0.0,0.0,0.0,0.0,0.0,0.0,0.0,0.0,0.0,0.0,0.0,0.0,0.0,0.0,0.0,0.0,0.0,0.0,0.0,0.0,0.0,0.0,0.0,0.0,0.0,0.0,0.0,0.0,0.0,0.0,0.0,0.0,0.0,0.0,0.0,0.0,0.0,0.0,0.0,0.0,0.0,0.0,0.0,0.0,0.0,0.0,0.0,0.0,0.0,0.0,0.0,0.0,0.0,0.0,0.0,0.0,0.0,0.0,0.0,0.0,0.0,0.0,0.0,0.0,0.0,0.0,0.0,0.0,0.0,0.0,0.0,0.0,0.0,0.0,0.0,0.0,0.0,0.0,0.0,0.0,0.0,0.0,0.0,0.0,0.0,0.0,0.0,0.0,0.0,0.0,0.0,0.0,0.0,0.0,0.0,0.0,0.0,0.0,0.0,0.0,0.0,0.0,0.0,0.0,0.0,0.0,0.0,0.0,0.0,0.0,0.0,0.0,0.0,0.0,0.0,0.0,0.0,0.0,0.0,0.0,0.0,0.0,0.0,0.0,0.0,0.0,0.0,0.0,0.0,0.0,0.0,0.0,0.0,0.0,0.0,0.0,0.0,0.0,0.0,0.0,0.0,0.0,0.0,0.0,0.0,0.0,0.0,0.0,0.0,0.0,0.0,0.0,0.0,0.0,0.0,0.0,0.0,0.0,0.0,0.0,0.0,0.0,0.0,0.0,0.0,0.0,0.0,0.0,0.0,0.0,0.0,0.0,0.0,0.0,0.0,0.0,0.0,0.0,0.0,0.0,0.0,0.0,0.0,0.0,0.0,0.0,0.0,0.0,0.0,0.0,0.0,0.0,0.0,0.0,0.0,0.0,0.0,0.0,0.0,0.0,0.0,0.0,0.0,0.0,0.0,0.0,0.0,0.0,0.0,0.0,0.0,0.0,0.0,0.0,0.0,0.0,0.0,0.0,0.0,0.0,0.0,0.0,0.0,0.0,0.0,0.0,0.0,0.0,0.0,0.0,0.0,0.0,0.0,0.0,0.0,0.0,0.0,0.0,0.0,0.0,0.0,0.0,0.0,0.0,0.0,0.0,0.0,0.0,0.0,0.0,0.0,0.0,0.0,0.0,0.0,0.0,0.0,0.0,0.0,0.0,0.0,0.0,0.0,0.0,0.0,0.0,0.0,0.0,0.0,0.0,0.0,0.0,0.0,0.0,0.0,0.0,0.0,0.0,0.0,0.0,0.0,0.0,0.0,0.0,0.0,0.0,0.0,0.0,0.0,0.0,0.0,0.0,0.0,0.0,0.0,0.0,0.0,0.0,0.0,0.0,0.0,0.0,0.0,0.0,0.0,0.0,0.0,0.0,0.0,0.0,0.0,0.0,0.0,0.0,0.0,0.0,0.0,0.0,0.0,0.0,0.0,0.0,0.0,0.0,0.0,0.0,0.0,0.0,0.0,0.0,0.0,0.0,0.0,0.0,0.0,0.0,0.0,0.0,0.0,0.0,0.0,0.0,0.0,0.0,0.0,0.0,0.0,0.0,0.0,0.0,0.0,0.0,0.0,0.0,0.0,0.0,0.0,0.0,0.0,0.0,0.0,0.0,0.0,0.0,0.0,0.0,0.0,0.0,0.0,0.0,0.0,0.0,0.0,0.0,0.0,0.0,0.0,0.0,0.0,0.0,0.0,0.0,0.0,0.0,0.0,0.0,0.0,0.0,0.0,0.0,0.0,0.0,0.0,0.0,0.0,0.0,0.0,0.0,0.0,0.0,0.0,0.0,0.0,0.0,0.0,0.0,0.0,0.0,0.0,0.0,0.0,0.0,0.0,0.0,0.0,0.0,0.0,0.0,0.0,0.0,0.0,0.0,0.0,0.0,0.0,0.0,0.0,0.0,0.0,0.0,0.0,0.0,0.0,0.0,0.0,0.0,0.0,0.0,0.0,0.0,0.0,0.0,0.0,0.0,0.0,0.0,0.0,0.0,0.0,0.0,0.0,0.0,0.0,0.0,0.0,0.0,0.0,0.0,0.0,0.0,0.0,0.0,0.0,0.0,0.0,0.0,0.0,0.0,0.0,0.0,0.0,0.0,0.0,0.0,0.0,0.0,0.0,0.0,0.0,0.0,0.0,0.0,0.0,0.0,0.0,0.0,0.0,0.0,0.0,0.0,0.0,0.0,0.0,0.0,0.0,0.0,0.0,0.0,0.0,0.0,0.0,0.0,0.0,0.0,0.0,0.0,0.0,0.0,0.0,0.0,0.0,0.0,0.0,0.0,0.0,0.0,0.0,0.0,0.0,0.0,0.0,0.0,0.0,0.0,0.0,0.0,0.0,0.0,0.0,0.0,0.0,0.0,0.0,0.0,0.0,0.0,0.0,0.0,0.0,0.0,0.0,0.0,0.0,0.0,0.0,0.0,0.0,0.0,0.0,0.0,0.0,0.0,0.0,0.0,0.0,0.0,0.0,0.0,0.0,0.0,0.0,0.0,0.0,0.0,0.0,0.0,0.0,0.0,0.0,0.0,0.0,0.0,0.0,0.0,0.0,0.0,0.0,0.0,0.0,0.0,0.0,0.0,0.0,0.0,0.0,0.0,0.0,0.0,0.0,0.0,0.0,0.0,0.0,0.0,0.0,0.0,0.0,0.0,0.0,0.0,0.0,0.0,0.0,0.0,0.0,0.0,0.0,0.0,0.0,0.0,0.0,0.0,0.0,0.0,0.0,0.0,0.0,0.0,0.0,0.0,0.0,0.0,0.0,0.0,0.0,0.0,0.0,0.0,0.0,0.0,0.0,0.0,0.0,0.0,0.0,0.0,0.0,0.0,0.0,0.0,0.0,0.0,0.0,0.0,0.0,0.0,0.0,0.0,0.0,0.0,0.0,0.0,0.0,0.0,0.0,0.0,0.0,0.0,0.0,0.0,0.0,0.0,0.0,0.0,0.0,0.0,0.0,0.0,0.0,0.0,0.0,0.0,0.0,0.0,0.0,0.0,0.0,0.0,0.0,0.0,0.0,0.0,0.0,0.0,0.0,0.0,0.0,0.0,0.0,0.0,0.0,0.0,0.0,0.0,0.0,0.0,0.0,0.0,0.0,0.0,0.0,0.0,0.0,0.0,0.0,0.0,0.0,0.0,0.0,0.0,0.0,0.0,0.0,0.0,0.0,0.0,0.0,0.0,0.0,0.0,0.0,0.0,0.0,0.0,0.0,0.0,0.0,0.0,0.0,0.0,0.0,0.0,0.0,0.0,0.0,0.0,0.0,0.0,0.0,0.0,0.0,0.0,0.0,0.0,0.0,0.0,0.0,0.0,0.0,0.0,0.0,0.0,0.0,0.0,0.0,0.0,0.0,0.0,0.0,0.0,0.0,0.0,0.0,0.0,0.0,0.0,0.0,0.0,0.0,0.0,0.0,0.0,0.0,0.0,0.0,0.0,0.0,0.0,0.0,0.0,0.0,0.0,0.0,0.0,0.0,0.0,0.0,0.0,0.0,0.0,0.0,0.0,0.0,0.0,0.0,0.0,0.0,0.0,0.0,0.0,0.0,0.0,0.0,0.0,0.0,0.0,0.0,0.0,0.0,0.0,0.0,0.0,0.0,0.0,0.0,0.0,0.0,0.0,0.0,0.0,0.0,0.0,0.0,0.0,0.0,0.0,0.0,0.0,0.0,0.0,0.0,0.0,0.0,0.0,0.0,0.0,0.0,0.0,0.0,0.0,0.0,0.0,0.0,0.0,0.0,0.0,0.0,0.0,0.0,0.0,0.0,0.0,0.0,0.0,0.0,0.0,0.0,0.0,0.9016,0.0,0.0,0.0,0.0,0.0,0.0,0.0,0.0,0.0,0.0,0.0,0.0,0.0,0.0,0.0,0.0,0.0,0.0,0.0,0.0,0.0,0.0,0.0,0.0,0.0,0.0,0.0,0.0,0.0,0.0,0.0,0.0,0.0,0.0,0.0,0.0,0.0,0.0,0.0,0.0,0.0,0.0,0.0,0.0,0.0,0.0,0.0,0.0,0.0,0.0,0.0,0.0,0.0,0.0,0.0,0.0,0.0,0.0,0.0,0.0,0.0,0.0,0.0,0.0,0.0,0.0,0.0,0.0,0.0,0.0,0.0,0.0,0.0,0.0,0.0,0.0,0.0,0.0,0.0,0.0,0.0,0.0,0.0,0.0,0.0,0.0,0.0,0.0,0.0,0.0,0.0,0.0,0.0,0.0,0.0,0.0,0.0,0.0,0.0,0.0,0.0,0.0,0.0,0.0,0.0,0.0,0.0,0.0,0.0,0.0,0.0,0.0,0.0,0.0,0.0,0.0,0.9637,0.0,0.0,0.0,0.0,0.0,0.0,0.0,0.0,0.0,0.0,0.0,0.0,0.0,0.0,0.0,0.0,0.0,0.0,0.0,0.0,0.0,0.0,0.0,0.0,0.0,0.0,0.0,0.0,0.0,0.0,0.0,0.0,0.0,0.0,0.0,0.0,0.0,0.0,0.0,0.0,0.0,0.0,0.0,0.0,0.0,0.0,0.0,0.0,0.0,0.0,0.0,0.0,0.0,0.0,0.0,0.0,0.0,0.0,0.0,0.0,0.0,0.0,0.0,0.0,0.0,0.0,0.0,0.0,0.0,0.0,0.0,0.0,0.0,0.0,0.0,0.0,0.0,0.0,0.0,0.0,0.0,0.0,0.0,0.0,0.0,0.0,0.0,0.0,0.0,0.0,0.0,0.0,0.0,0.0,0.0,0.0,0.0,0.0,0.0,0.0,0.0,0.0,0.0,0.0,0.0,0.0,0.0,0.0,0.0,1.3984,1.4027,1.4309,1.4596,1.4752,1.2466,1.1596,1.1698,0.0,0.0,0.0,0.0,0.0,0.0,0.0,0.0,0.0,0.0,0.0,0.0,0.0,0.0,0.0,0.0,0.0,0.0,0.0,0.0,0.0,0.0,0.0,0.0,0.0,0.0,0.0,0.0,0.0,0.0,0.0,0.0,0.0,0.0,0.0,0.0,0.0,0.0,0.0,1.0342,1.1541,1.1901,1.1515,0.0,0.0,0.0,0.0,0.0,0.0,0.0,0.0,0.0,0.0,0.0,0.0,0.0,0.0,0.0,0.0,0.0,0.0,0.0,0.0,0.0,0.0,0.0,0.0,0.0,0.0,0.0,0.0,0.0,0.0,0.0,0.0,0.0,0.0,0.0,0.0,0.0,0.0,0.0,0.0,0.0,0.0,0.0,0.0,1.2035,1.2739,0.0,0.0,0.0,0.0,0.0,0.0,0.0,0.0,0.0,0.0,0.0,0.0,0.0,0.0,1.3145,1.3673,1.4529,1.5704,1.6821,1.7328,1.729,1.7613,1.769,1.752,1.6297,0.0,1.4049,1.2912,0.0,0.0,0.0,0.0,0.0,0.0,0.0,0.0,0.0,0.0,0.0,0.0,0.0,0.0,0.0,0.0,0.0,0.0,0.0,0.0,0.0,0.0,0.0,0.0,0.0,0.0,0.0,0.0,0.0,0.0,0.0,0.0,0.0,0.0,0.0,0.0,0.9797,1.1152,1.1411,1.307,1.3912,1.3993,1.3749,1.2569,1.0724,1.0005,0.0,0.0,0.0,0.0,0.0,0.0,0.0,0.0,0.0,0.0,0.0,0.0,0.0,0.0,0.0,0.0,0.0,0.0,0.0,0.0,0.0,0.0,0.0,0.0,0.0,0.0,0.0,0.0,0.0,0.0,0.0,0.0,0.0,0.0,0.0,0.0,0.0,0.0,0.0,1.106,1.1759,1.245,1.2113,1.1647,0.0,0.0,0.0,0.0,0.0,0.0,0.0,0.0,0.0,1.3603,1.3863,1.4527,1.5637,1.5837,1.6608,1.7958,1.8386,1.902,1.9754,1.9666,1.9549,1.9336,1.8574,1.7857,1.7055,1.4719,1.3585,1.3301,0.0,0.0,0.0,0.0,0.0,0.0,0.0,0.0,0.0,0.0,0.0,0.0,0.0,0.0,0.0,0.0,0.0,0.0,0.0,0.0,0.0,0.0,0.0,0.0,0.0,0.0,0.0,0.0,0.0,0.0,0.0,0.0,0.0,0.0,1.1227,1.2473,1.2926,1.4567,1.5519,1.5906,1.6529,1.5182,1.2375,1.1204,1.0087,0.0,0.0,0.0,0.0,0.0,0.0,0.0,0.0,0.0,0.0,0.0,0.0,0.0,0.0,0.0,0.0,0.0,0.0,0.0,0.0,0.0,0.0,0.0,0.0,0.0,0.0,0.0,0.0,0.0,0.0,0.0,0.0,0.0,0.0,0.0,0.0,0.0,0.0,1.1861,1.2618,1.2921,1.3118,1.2801,0.0,0.0,0.0,0.0,0.0,0.0,1.3552,1.4099,1.4857,1.5764,1.6111,1.6755,1.7701,1.7744,1.837,1.9589,1.9816,2.0474,2.1471,2.1233,2.1069,2.0917,2.0124,1.9709,1.935,1.6512,1.5259,1.5066,1.4529,1.4223,0.0,1.4417,1.4779,1.5168,0.0,0.0,0.0,0.0,0.0,0.0,0.0,0.0,0.0,0.0,0.0,0.0,0.0,0.0,0.0,0.0,0.0,0.0,0.0,0.0,0.0,0.0,0.0,0.0,0.0,0.0,0.0,0.0,0.0,0.0,0.0,0.0,0.0,0.0,0.0,0.0,0.0,1.385,1.2361,1.0479,0.0,0.0,0.0,0.0,0.0,0.0,0.0,0.0,0.0,0.0,0.0,0.0,0.0,0.0,0.0,0.0,0.0,0.0,0.0,0.0,0.0,0.0,0.0,0.0,0.0,0.0,0.0,0.0,0.0,0.0,0.0,0.0,0.0,0.0,0.0,0.0,0.0,0.0,0.0,1.5396,1.5389,0.0,0.0,0.0,0.0,1.4487,1.5307,1.6011,1.6559,1.7148,1.7707,1.8206,1.7991,1.8102,1.854,1.9043,1.9653,2.0356,2.1559,2.2178,2.2252,2.2504,2.2554,2.2418,2.1103,2.0464,2.0207,1.8583,1.7591,1.7016,1.648,1.5918,1.5539,1.6624,1.7042,1.7204,0.0,0.0,0.0,0.0,0.0,0.0,0.0,0.0,0.0,0.0,0.0,0.0,0.0,0.0,0.0,0.0,0.0,0.0,0.0,0.0,0.0,0.0,0.0,0.0,0.0,0.0,0.0,0.0,0.0,0.0,0.0,0.0,0.0,0.0,0.0,0.0,0.0,0.0,0.0,0.0,0.0,0.0,0.0,0.0,0.0,0.0,0.0,0.0,0.0,0.0,0.0,0.0,0.0,0.0,0.0,0.0,0.0,0.0,0.0,0.0,0.0,0.0,0.0,0.0,0.0,0.0,0.0,0.0,0.0,0.0,0.0,0.0,0.0,0.0,0.0,0.0,0.0,0.0,0.0,1.6294,1.671,0.0,1.5903,1.62,1.6356,1.6136,1.7222,1.7992,1.8191,1.8792,1.9119,1.9171,1.9335,1.9651,2.0138,2.0109,2.0703,2.1883,2.2242,2.2666,2.3081,2.2899,2.2746,2.254,2.1549,2.1039,2.0855,2.0,1.9102,1.8283,1.8087,1.7813,1.7657,1.8449,1.8898,1.9188,0.0,0.0,0.0,0.0,0.0,0.0,0.0,0.0,0.0,0.0,0.0,0.0,0.0,0.0,0.0,0.0,0.0,0.0,0.0,0.0,0.0,0.0,0.0,0.0,0.0,0.0,0.0,0.0,0.0,0.0,0.0,0.0,0.0,0.0,0.0,0.0,0.0,0.0,0.0,0.0,0.0,0.0,0.9691,0.0,0.0,0.0,0.0,0.0,0.0,0.0,0.0,0.0,0.0,0.0,0.0,0.0,0.0,0.0,0.0,0.0,0.0,0.0,0.0,0.0,0.0,0.0,0.0,0.0,0.0,0.0,0.0,0.0,0.0,0.0,0.0,0.0,0.0,0.0,1.7644,1.7488,1.858,1.8989,1.8145,1.8883,1.9317,1.9077,1.9719,2.0137,2.0107,2.0286,2.0289,2.0115,2.0513,2.0846,2.1124,2.1227,2.1769,2.2729,2.2835,2.3099,2.3487,2.3083,2.2791,2.2555,2.1746,2.1326,2.1155,2.0687,2.0082,1.9428,1.938,1.9272,1.9278,1.987,2.022,2.0424,0.0,0.0,0.0,0.0,0.0,0.0,0.0,0.0,0.0,0.0,0.0,0.0,0.0,0.0,0.0,0.0,0.0,0.0,0.0,0.0,0.0,0.0,0.0,0.0,0.0,0.0,0.0,0.0,0.0,0.0,0.0,0.0,0.0,0.0,0.0,0.0,0.0,0.0,0.0,0.0,0.0,0.0,1.1568,0.0,0.0,0.0,0.0,0.0,0.0,0.0,0.0,0.0,0.0,0.0,0.0,0.0,0.0,0.0,0.0,0.0,0.0,0.0,0.0,0.0,0.0,0.0,0.0,0.0,0.0,0.0,0.0,0.0,0.0,0.0,0.0,0.0,1.5037,1.7828,1.9729,1.9195,2.1038,2.2342,2.2342,2.2393,2.2668,2.326,2.2764,2.2409,2.2342,2.1746,2.1343,2.1199,2.1584,2.1719,2.1541,2.2413,2.2877,2.2908,2.3404,2.3596,2.3495,2.3098,2.2791,2.2532,2.1722,2.1326,2.1155,2.07,2.0499,2.0461,2.0258,2.0207,2.0246,2.0886,2.0996,2.0909,0.0,0.0,0.0,0.0,0.0,0.0,0.0,0.0,0.0,0.0,0.0,0.0,0.0,0.0,0.0,0.0,0.0,0.0,0.0,0.0,0.0,0.0,0.0,0.0,0.0,0.0,0.0,0.0,0.0,0.0,0.0,0.0,0.0,0.0,0.0,0.0,0.0,0.0,0.0,0.0,0.0,0.0,1.315,0.0,0.0,0.0,0.0,0.0,0.0,0.0,0.0,0.0,0.0,0.0,0.0,0.0,0.0,0.0,0.0,0.0,0.0,0.0,0.0,0.0,0.0,0.0,0.0,0.0,0.0,0.0,0.0,0.0,0.0,0.0,0.0,1.8312,1.7961,1.9563,2.1103,2.2019,2.2647,2.3052,2.317,2.3187,2.3268,2.3429,2.3353,2.3239,2.317,2.3547,2.364,2.3359,2.3824,2.4229,2.4527,2.4447,2.4643,2.5114,2.4567,2.4186,2.3914,2.3235,2.2572,2.1996,2.1592,2.1166,2.0774,2.0875,2.0565,2.0016,2.0156,2.0067,2.0001,2.0863,2.1663,2.2286,0.0,0.0,0.0,0.0,0.0,0.0,0.0,0.0,0.0,0.0,0.0,0.0,0.0,0.0,0.0,0.0,0.0,0.0,0.0,0.0,0.0,0.0,0.0,0.0,0.0,0.0,0.0,0.0,0.0,0.0,0.0,0.0,0.0,0.0,0.0,0.0,0.0,0.0,0.0,0.0,0.0,0.0,1.5104,1.4365,1.347,1.2508,1.199,1.1628,1.1338,1.1036,0.0,0.0,0.0,0.0,0.0,0.0,0.0,0.0,0.0,0.0,0.0,0.0,0.0,0.0,0.0,0.0,0.0,0.0,0.0,0.0,0.0,0.0,0.0,0.0,1.8989,2.071,2.1481,2.2118,2.2859,2.3769,2.4125,2.4372,2.4478,2.4512,2.4512,2.4512,2.4271,2.4204,2.4426,2.4557,2.4642,2.4617,2.5108,2.5434,2.5563,2.5457,2.5568,2.5832,2.5211,2.4754,2.4378,2.3782,2.3027,0.0,2.1839,2.1271,2.0637,2.0965,2.0688,0.0,0.0,0.0,0.0,0.0,2.1734,2.2618,0.0,0.0,0.0,0.0,0.0,0.0,0.0,0.0,0.0,0.0,0.0,0.0,0.0,0.0,0.0,0.0,0.0,0.0,0.0,0.0,0.0,0.0,0.0,0.0,0.0,0.0,0.0,0.0,0.0,0.0,0.0,0.0,0.0,0.0,0.0,0.0,0.0,0.0,0.0,0.0,0.0,0.0,1.7125,1.58,1.5249,1.502,1.397,1.3226,1.2726,1.261,0.0,0.0,0.0,0.0,0.0,0.0,0.0,0.0,0.0,0.0,0.0,0.0,0.0,0.0,0.0,0.0,0.0,0.0,0.0,0.0,0.0,0.0,0.0,0.0,2.1301,2.2997,2.491,2.4914,2.4756,2.4824,2.5362,2.5772,2.5881,2.5897,2.5897,2.5897,2.5391,2.5272,2.5798,0.0,0.0,0.0,0.0,2.6066,2.5737,2.6047,2.6059,2.5815,2.5583,2.5252,2.4813,2.4519,2.3737,2.2605,2.2229,2.1515,2.0587,2.0887,2.0794,2.0483,2.0902,2.066,2.0121,2.0558,2.1424,0.0,0.0,0.0,0.0,0.0,0.0,0.0,0.0,0.0,0.0,0.0,0.0,0.0,0.0,0.0,0.0,0.0,0.0,0.0,0.0,0.0,0.0,0.0,0.0,0.0,0.0,0.0,0.0,0.0,0.0,0.0,0.0,0.0,0.0,0.0,0.0,0.0,0.0,0.0,0.0,0.0,0.0,0.0,1.8258,1.7819,1.7323,1.6808,1.6577,1.6342,1.6003,1.5022,1.4265,1.3568,1.2677,0.0,0.0,0.0,0.0,0.0,0.0,0.0,0.0,0.0,0.0,0.0,0.0,0.0,0.0,0.0,0.0,0.0,0.0,0.0,0.0,2.0802,2.3231,2.5287,2.6168,2.6234,2.6061,2.5721,2.5781,2.5862,2.5897,2.5897,2.5897,2.5897,2.6381,2.6637,2.6596,2.7517,0.0,2.7635,2.8075,2.8162,2.7835,2.7573,2.7315,2.704,0.0,0.0,2.5095,2.4521,2.3501,2.2204,2.2026,2.1312,2.0297,2.0467,2.0639,2.0754,2.038,2.0335,2.0444,2.0301,2.1039,2.2083,0.0,0.0,0.0,0.0,0.0,0.0,0.0,0.0,0.0,0.0,0.0,0.0,0.0,0.0,0.0,0.0,0.0,0.0,0.0,0.0,0.0,0.0,0.0,0.0,0.0,0.0,0.0,0.0,0.0,0.0,0.0,0.0,0.0,0.0,0.0,0.0,0.0,0.0,0.0,0.0,0.0,0.0,2.0381,1.9859,1.9167,1.8493,1.8455,1.7979,1.7269,1.6701,1.5728,1.4714,1.4214,1.3266,1.2174,0.0,0.0,0.0,0.0,0.0,0.0,0.0,0.0,0.0,0.0,0.0,0.0,0.0,0.0,1.5871,0.0,0.0,2.109,2.333,2.4927,2.6132,2.6756,2.6841,2.6657,2.6154,2.6079,2.6059,2.6059,2.6059,2.6059,2.6059,2.6354,2.677,2.7277,2.7814,2.8249,2.853,2.8607,2.8501,2.8217,2.7533,2.7046,2.6695,2.6094,2.5486,2.4952,2.4702,2.3945,2.2778,2.2273,2.1445,2.0446,2.0269,2.042,2.0694,2.0327,2.0426,2.0705,2.0371,2.0806,2.1575,0.0,0.0,0.0,0.0,0.0,0.0,0.0,0.0,0.0,0.0,0.0,0.0,0.0,0.0,0.0,0.0,0.0,0.0,0.0,0.0,0.0,0.0,0.0,0.0,0.0,0.0,0.0,0.0,0.0,0.0,0.0,0.0,0.0,0.0,0.0,0.0,0.0,0.0,0.0,0.0,0.0,0.0,2.2606,2.1821,2.0732,1.964,1.9566,1.8783,1.7733,1.7661,1.6726,1.556,1.5562,1.4735,1.3521,1.2258,1.1733,0.0,0.0,0.0,0.0,0.0,0.0,0.0,0.0,0.0,1.5061,1.6603,1.7221,1.8301,2.1004,2.1571,2.2626,2.568,2.6303,2.6515,2.6905,2.6941,2.6766,2.632,2.6281,2.6276,2.6239,2.6239,2.6203,2.6202,2.6211,2.6623,2.757,2.7423,2.7741,2.8684,2.8348,2.8027,2.7783,2.6905,2.6234,2.5693,2.539,2.4996,2.4554,2.4653,2.4207,2.3295,2.2375,2.1422,2.0498,2.0191,2.0208,2.0404,2.036,2.0496,2.0711,2.0432,2.0632,2.104,0.0,0.0,0.0,0.0,0.0,0.0,0.0,0.0,0.0,0.0,0.0,0.0,0.0,0.0,0.0,0.0,0.0,0.0,0.0,0.0,0.0,0.0,0.0,0.0,0.0,0.0,0.0,0.0,0.0,0.0,0.0,0.0,0.0,0.0,0.0,0.0,0.0,0.0,0.0,0.0,0.0,0.0,2.4028,2.3572,2.1759,1.9431,1.9431,1.8935,1.8223,1.7619,1.7336,1.7153,1.6699,1.5711,1.4486,1.3226,0.0,1.0834,0.9302,1.0046,1.1599,1.298,1.387,1.4966,0.0,0.0,1.9096,2.062,2.2093,2.341,2.4485,2.5265,2.5877,2.6312,2.6966,2.7193,2.6492,2.639,2.6316,2.6153,2.6434,2.6573,2.6383,2.633,2.6259,2.6203,2.6673,2.697,2.6909,2.7227,2.7577,2.8009,2.7512,2.7159,2.6944,2.6347,2.5592,2.4658,2.4149,2.395,2.3986,2.3751,2.3347,2.2719,2.1634,2.0653,1.9907,2.0169,2.0044,1.9754,2.0008,2.0151,2.0172,2.0151,2.0478,2.0928,0.0,0.0,0.0,0.0,0.0,0.0,0.0,0.0,0.0,0.0,0.0,0.0,0.0,0.0,0.0,0.0,0.0,0.0,0.0,0.0,0.0,0.0,0.0,0.0,0.0,0.0,0.0,0.0,0.0,0.0,0.0,0.0,0.0,0.0,0.0,0.0,0.0,0.0,0.0,0.0,0.0,0.0,2.3291,2.2949,2.0933,1.8294,1.8345,1.7666,0.0,0.0,1.5638,1.5514,1.5801,1.4999,1.3781,1.2849,1.1934,0.0,1.1603,1.2495,1.3694,0.0,1.6819,1.8364,1.9728,2.0759,2.1873,2.3389,2.4286,2.5065,2.5866,2.63,2.6667,0.0,2.7084,2.6892,2.653,2.6076,2.5736,2.5654,2.6092,2.6447,2.6505,2.6418,2.6313,2.6203,2.6252,2.6374,2.662,2.6406,2.6495,2.6893,2.6357,2.6019,2.5923,2.5009,2.4253,2.3628,2.3128,2.2867,2.285,2.2814,2.2412,2.1729,2.1186,2.0441,1.9718,1.995,1.9876,1.9629,1.9975,2.0118,2.0118,2.0118,2.0238,2.0445,0.0,0.0,0.0,0.0,0.0,0.0,0.0,0.0,0.0,0.0,0.0,0.0,0.0,0.0,0.0,0.0,0.0,0.0,0.0,0.0,0.0,0.0,0.0,0.0,0.0,0.0,0.0,0.0,0.0,0.0,0.0,0.0,0.0,0.0,0.0,0.0,0.0,0.0,0.0,0.0,0.0,0.0,2.2677,2.245,2.0408,1.7629,1.7358,1.6379,0.0,0.0,1.4029,1.3889,1.4542,1.3981,1.2914,1.2248,1.1606,1.1457,1.3054,1.4335,1.568,1.7601,1.961,2.142,2.2404,2.3362,2.43,2.5168,2.5618,2.5949,2.6278,2.6349,2.6511,2.701,2.6658,2.6223,2.5998,2.5454,2.509,2.5018,2.5561,2.6059,2.6369,2.6387,2.6348,2.6203,2.5844,2.5775,2.6153,2.5503,2.5364,2.5832,2.5214,2.4828,2.4741,2.376,2.2951,2.2393,2.2034,2.1865,2.1867,2.2064,2.1765,2.108,2.0976,2.0492,1.9829,1.9912,1.9868,1.9721,1.9965,2.0042,2.0042,2.0085,2.0118,2.0118,0.0,0.0,0.0,0.0,0.0,0.0,0.0,0.0,0.0,0.0,0.0,0.0,0.0,0.0,0.0,0.0,0.0,0.0,0.0,0.0,0.0,0.0,0.0,0.0,0.0,0.0,0.0,0.0,0.0,0.0,0.0,0.0,0.0,0.0,0.0,0.0,0.0,0.0,0.0,0.0,0.0,0.0,2.2965,2.2842,2.0827,1.7945,1.6825,0.0,0.0,0.0,1.3233,1.3234,1.3337,1.2928,0.0,1.162,1.1035,1.0964,1.2502,1.4549,1.6976,2.0012,2.1913,2.3455,2.5099,2.61,2.6486,2.5816,2.6347,2.6699,2.5887,2.5732,2.5693,2.5579,2.5548,2.5271,2.4479,2.4344,2.4326,2.4326,2.4927,2.548,0.0,2.6218,2.6348,2.6203,2.5715,2.5394,2.5346,2.4564,2.4429,2.5028,2.4208,2.3631,2.3349,2.2863,2.2018,2.086,2.0849,2.0995,2.1253,2.1584,2.1491,2.1101,2.0965,2.072,2.0366,2.0182,2.0031,1.9879,1.99,1.99,1.99,2.0042,2.0118,2.0118,0.0,0.0,0.0,0.0,0.0,0.0,0.0,0.0,0.0,0.0,0.0,0.0,0.0,0.0,0.0,0.0,0.0,0.0,0.0,0.0,0.0,0.0,0.0,0.0,0.0,0.0,0.0,0.0,0.0,0.0,0.0,0.0,0.0,0.0,0.0,0.0,0.0,0.0,0.0,0.0,0.0,0.0,2.0141,1.9519,1.7993,1.6072,0.0,0.0,0.0,0.0,0.0,1.1497,1.201,1.1726,1.1075,1.0402,1.1234,1.2726,1.4232,1.7103,2.0181,2.2238,2.4335,2.6032,2.66,2.7005,2.7175,2.6842,2.5763,2.4751,2.4325,2.3849,2.347,2.3395,2.3785,2.401,2.3737,2.3629,2.3568,2.3568,2.459,0.0,0.0,0.0,0.0,2.6099,2.5602,2.5201,2.4839,2.4168,2.3634,2.3353,2.2747,2.2241,2.1789,2.1435,2.0893,2.0144,2.0278,2.043,2.0629,2.0993,2.0955,2.0614,2.0593,2.0211,1.9585,1.9436,1.9276,1.9094,1.8976,1.9166,1.9506,1.955,1.9747,1.9976,0.0,0.0,0.0,0.0,0.0,0.0,0.0,0.0,0.0,0.0,0.0,0.0,0.0,0.0,0.0,0.0,0.0,0.0,0.0,0.0,0.0,0.0,0.0,0.0,0.0,0.0,0.0,0.0,0.0,0.0,0.0,0.0,0.0,0.0,0.0,0.0,0.0,0.0,0.0,0.0,0.0,0.0,1.7949,1.7683,1.6445,0.0,0.0,0.0,0.0,0.0,0.0,1.0641,1.0834,1.0605,1.0367,1.0861,1.2519,1.4753,1.7172,2.0095,2.2922,2.4741,2.6362,2.7503,2.7503,2.7584,2.7361,2.641,2.4577,2.288,2.2144,2.1826,2.1372,2.0409,2.1613,2.2517,2.2198,2.2281,2.2688,2.3534,2.4647,2.5328,0.0,0.0,0.0,2.5957,2.5381,2.4875,2.4441,2.3666,2.2942,2.2397,2.1766,2.1202,2.0646,2.0321,1.9987,1.9625,1.9713,1.9837,2.007,2.033,2.0291,1.9998,1.9792,1.9307,1.871,1.847,1.8187,1.7915,1.8076,1.8383,1.8759,1.9023,1.9274,1.9572,0.0,0.0,0.0,0.0,0.0,0.0,0.0,0.0,0.0,0.0,0.0,0.0,0.0,0.0,0.0,0.0,0.0,0.0,0.0,0.0,0.0,0.0,0.0,0.0,0.0,0.0,0.0,0.0,0.0,0.0,0.0,0.0,0.0,0.0,0.0,0.0,0.0,0.0,0.0,0.0,0.0,0.0,1.6409,1.7128,0.0,0.0,0.0,0.0,0.0,0.0,0.0,1.0775,1.0133,0.9986,1.0517,1.3034,1.4931,1.7075,2.1004,2.331,2.5134,2.7365,2.7939,2.7921,2.7874,2.78,2.7051,2.4634,2.2811,2.1142,0.0,0.0,1.9386,1.6953,1.9235,2.1009,2.0105,2.0615,2.1922,0.0,0.0,0.0,0.0,0.0,0.0,2.5815,0.0,2.4441,2.4084,2.3061,2.2337,2.2035,2.1199,2.0497,1.994,1.9527,1.9265,1.9208,1.9082,1.9166,1.9498,1.9498,1.9377,1.918,1.8601,1.8134,1.7759,1.7389,1.6879,1.6407,1.726,1.7628,1.775,1.8458,1.8754,1.8875,0.0,0.0,0.0,0.0,0.0,0.0,0.0,0.0,0.0,0.0,0.0,0.0,0.0,0.0,0.0,0.0,0.0,0.0,0.0,0.0,0.0,0.0,0.0,0.0,0.0,0.0,0.0,0.0,0.0,0.0,0.0,0.0,0.0,0.0,0.0,0.0,0.0,0.0,0.0,0.0,0.0,0.0,1.4011,0.0,0.0,0.0,0.0,0.0,0.0,0.0,0.0,0.0,1.3901,1.4457,1.4841,1.6751,1.889,2.1023,2.2668,2.5233,2.7599,2.8207,2.8373,2.824,2.7595,2.6532,2.4926,2.2305,2.0056,1.8004,0.0,0.0,0.0,1.6133,1.9151,0.0,2.1133,2.2618,0.0,2.4472,0.0,2.6193,2.5979,2.6267,0.0,0.0,2.4847,2.4199,2.3601,2.2703,2.187,2.1151,2.0534,1.985,1.9119,1.836,1.8036,1.8101,1.7758,1.7765,1.803,1.7924,1.7871,1.7798,1.7654,1.7124,1.6334,1.6397,1.6057,1.5536,1.5967,1.6596,1.7274,1.7447,1.7915,1.8438,0.0,0.0,0.0,0.0,0.0,0.0,0.0,0.0,0.0,0.0,0.0,0.0,0.0,0.0,0.0,0.0,0.0,0.0,0.0,0.0,0.0,0.0,0.0,0.0,0.0,0.0,0.0,0.0,0.0,0.0,0.0,0.0,0.0,0.0,0.0,0.0,0.0,0.0,0.0,0.0,0.0,0.0,0.0,0.0,0.0,0.0,0.0,0.0,0.0,0.0,0.0,1.4344,1.6513,1.7468,1.8256,2.0692,0.0,2.4382,2.592,2.8009,2.9558,2.8859,2.8423,2.764,2.5681,2.4246,2.2475,1.9481,1.7249,0.0,1.3984,1.4991,0.0,0.0,0.0,0.0,2.1077,2.2584,2.4056,0.0,2.5949,0.0,2.643,2.6387,2.6067,0.0,2.4608,2.3849,2.3143,2.2221,2.1321,2.0472,1.9863,1.9012,1.7848,1.7033,1.6634,1.6654,1.6535,1.6597,1.6818,1.6903,1.6939,1.692,0.0,1.5861,1.5185,1.5225,1.4868,1.443,1.5093,1.5714,1.6292,1.6727,1.7178,1.7576,0.0,0.0,0.0,0.0,0.0,0.0,0.0,0.0,0.0,0.0,0.0,0.0,0.0,0.0,0.0,0.0,0.0,0.0,0.0,0.0,0.0,0.0,0.0,0.0,0.0,0.0,0.0,0.0,0.0,0.0,0.0,0.0,0.0,0.0,0.0,0.0,0.0,0.0,0.0,0.0,0.0,0.0,0.0,0.0,0.0,0.0,0.0,0.0,0.0,0.0,1.6344,1.6781,1.8796,2.0047,2.1365,2.4561,2.6037,2.7129,2.9391,3.0574,3.0784,2.9282,2.8172,2.6593,2.3215,2.1696,1.9988,1.6372,0.0,1.3313,1.2201,1.4088,1.5347,1.3988,0.0,2.06,2.0662,2.1787,2.3407,2.5544,2.6169,2.6561,2.7017,2.6573,2.5957,2.525,2.4359,2.3493,2.2694,2.1657,2.0644,1.9698,1.905,1.7984,1.6442,1.5704,1.5279,1.5084,1.5286,1.543,1.5581,1.5934,1.6076,1.6038,0.0,0.0,1.4251,1.411,1.3793,1.3479,1.4588,1.5056,1.5225,1.6141,1.6523,1.6626,0.0,0.0,0.0,0.0,0.0,0.0,0.0,0.0,0.0,0.0,0.0,0.0,0.0,0.0,0.0,0.0,0.0,0.0,0.0,0.0,0.0,0.0,0.0,0.0,0.0,0.0,0.0,0.0,0.0,0.0,0.0,0.0,0.0,0.0,0.0,0.0,0.0,0.0,0.0,0.0,0.0,0.0,0.0,0.0,0.0,0.0,0.0,0.0,0.0,0.0,1.7568,1.8832,2.2613,2.4439,2.5563,2.7486,2.8188,2.8608,2.9764,3.0235,3.0166,2.9225,2.7863,2.5887,2.2465,2.0504,0.0,0.0,1.2501,1.2123,0.9853,1.2055,1.4297,1.4625,1.7609,2.029,2.1491,2.2794,2.4169,0.0,2.6169,2.6517,0.0,0.0,0.0,0.0,0.0,0.0,2.242,2.1199,1.975,1.8057,1.7484,1.6616,1.5457,1.4876,1.44,1.4069,1.3846,1.3728,1.3747,1.3821,1.3849,1.3849,0.0,0.0,1.3506,1.3801,1.3865,1.3865,1.4396,1.4808,1.5157,1.5657,1.6085,1.6401,0.0,0.0,0.0,0.0,0.0,0.0,0.0,0.0,0.0,0.0,0.0,0.0,0.0,0.0,0.0,0.0,0.0,0.0,0.0,0.0,0.0,0.0,0.0,0.0,0.0,0.0,0.0,0.0,0.0,0.0,0.0,0.0,0.0,0.0,0.0,0.0,0.0,0.0,0.0,0.0,0.0,0.0,0.0,0.0,0.0,0.0,0.0,0.0,0.0,0.0,1.6588,1.8828,2.3446,2.583,2.7167,2.8392,2.9095,2.9679,3.0544,3.0832,3.0475,2.8798,2.7149,2.4808,2.0511,0.0,0.0,0.0,1.0671,1.0421,0.9616,1.1847,0.0,1.4217,1.734,2.0058,2.1133,2.2795,0.0,2.5069,2.5526,2.5729,0.0,0.0,0.0,0.0,0.0,0.0,2.203,2.0382,1.8948,1.7786,1.6774,1.5851,1.5044,1.3991,1.3288,1.2913,1.2821,1.277,1.2779,1.3059,1.3214,1.3205,0.0,0.0,1.3305,1.3497,1.3727,1.3957,1.435,1.4634,1.4845,1.5239,1.5505,1.5771,0.0,0.0,0.0,0.0,0.0,0.0,0.0,0.0,0.0,0.0,0.0,0.0,0.0,0.0,0.0,0.0,0.0,0.0,0.0,0.0,0.0,0.0,0.0,0.0,0.0,0.0,0.0,0.3574,0.0,0.0,0.0,0.0,0.0,0.0,0.0,0.0,0.0,0.0,0.0,0.0,0.0,0.0,0.0,0.0,0.0,0.0,0.0,0.0,0.0,0.0,1.5047,1.7439,2.1719,2.4499,2.637,2.7402,2.8325,2.9275,3.0509,3.0885,3.045,2.8325,2.64,2.3755,1.8815,1.5731,0.0,1.0402,0.9344,0.9089,0.9713,1.1718,1.3306,0.0,1.6238,1.8883,2.0274,2.1861,2.3291,0.0,2.4936,0.0,0.0,0.0,0.0,0.0,0.0,0.0,2.1194,1.9464,1.8205,1.7587,1.6278,1.5236,1.4562,1.3182,1.2323,1.1986,1.2137,1.2228,1.2237,1.2699,1.2914,1.2933,0.0,0.0,0.0,1.3387,1.3653,1.4047,1.4378,1.4515,1.4561,1.4955,1.5102,1.5203,0.0,0.0,0.0,0.0,0.0,0.0,0.0,0.0,0.0,0.0,0.0,0.0,0.0,0.0,0.0,0.0,0.0,0.0,0.0,0.0,0.0,0.0,0.0,0.0,0.0,0.0,0.0,0.4487,0.4632,0.0,0.0,0.0,0.0,0.0,0.0,0.0,0.0,0.0,0.0,0.0,0.0,0.0,0.0,0.0,0.0,0.0,0.0,0.0,0.0,0.0,0.0,1.4492,1.6466,1.9288,2.2163,2.372,0.0,0.0,2.8382,2.9086,2.8918,2.8012,2.5983,2.3067,1.87,0.0,1.2976,0.9689,0.8958,0.8897,0.8921,1.0342,1.1796,1.2563,0.0,1.5465,1.9186,1.9617,2.0807,2.4206,0.0,0.0,0.0,0.0,0.0,0.0,0.0,0.0,0.0,1.8605,1.7628,1.6488,1.5616,1.4599,1.3462,1.2573,1.1952,1.1553,1.187,1.2026,1.2026,1.2193,1.2343,1.2474,0.0,0.0,0.0,1.3681,1.4075,1.446,1.4497,1.4515,1.4561,1.4955,1.5102,1.5166,0.0,0.0,0.0,0.0,0.0,0.0,0.0,0.0,0.0,0.0,0.0,0.0,0.0,0.0,0.0,0.0,0.0,0.0,0.0,0.0,0.0,0.0,0.0,0.0,0.0,0.0,0.0,0.0,0.4299,0.0,0.0,0.0,0.0,0.0,0.0,0.7845,0.0,0.0,0.0,0.0,0.0,0.0,0.0,0.0,0.0,0.0,0.0,0.0,0.0,0.0,0.0,0.0,1.2468,1.3446,0.0,0.0,2.2422,2.4049,2.6598,2.7705,2.7816,2.6552,2.4359,2.1556,1.779,0.0,1.1875,1.0015,0.9227,0.9033,0.9491,1.0568,1.1297,1.1119,0.0,0.0,1.6309,1.8031,1.9894,2.2065,2.3527,0.0,0.0,0.0,0.0,0.0,0.0,0.0,0.0,1.7941,1.7341,1.6513,1.5306,1.4344,1.3597,1.2635,1.1998,1.167,1.1968,1.2121,1.2112,1.2104,1.2228,1.251,0.0,0.0,0.0,1.379,1.413,1.4515,1.4515,1.4515,1.4533,1.4689,1.4744,1.4799,0.0,0.0,0.0,0.0,0.0,0.0,0.0,0.0,0.0,0.0,0.0,0.0,0.0,0.0,0.0,0.0,0.0,0.0,0.0,0.0,0.0,0.0,0.0,0.0,0.0,0.0,0.0,0.0,0.0,0.4155,0.0,0.0,0.5535,0.5859,0.0,0.0,0.0,0.0,0.0,0.0,0.0,0.0,0.0,0.0,0.0,0.0,0.0,0.0,0.0,0.0,0.0,0.0,0.0,0.0,0.0,0.0,1.9353,2.1274,2.4068,2.5622,2.6219,2.5094,2.2762,1.9975,0.0,0.0,1.0833,1.0227,0.925,0.8846,0.9902,1.0599,1.0811,0.0,0.0,1.3257,1.4116,1.6435,1.8387,0.0,0.0,0.0,0.0,0.0,0.0,0.0,0.0,0.0,0.0,1.7262,1.6814,1.6257,1.5029,1.4144,1.3699,1.2735,1.2138,1.1923,1.2159,1.2248,1.2195,1.2208,1.2362,0.0,0.0,0.0,0.0,1.3896,1.422,1.4515,1.4515,1.4515,1.4515,1.4515,1.4515,1.4552,0.0,0.0,0.0,0.0,0.0,0.0,0.0,0.0,0.0,0.0,0.0,0.0,0.0,0.0,0.0,0.0,0.0,0.0,0.0,0.0,0.0,0.0,0.0,0.0,0.0,0.0,0.0,0.0,0.0,0.0,0.0,0.0,0.4845,0.5637,0.0,0.0,0.0,0.0,0.0,0.0,0.0,0.0,0.0,0.0,0.0,0.0,0.0,0.0,0.0,0.0,0.0,0.0,0.0,0.8807,0.9484,0.0,1.5057,1.7082,2.0434,2.2574,2.3847,2.3902,2.1397,1.8478,0.0,1.3147,1.0119,1.0092,0.8773,0.8122,0.9788,1.0103,1.0108,1.0101,1.0736,0.0,1.3202,1.464,0.0,0.0,0.0,0.0,0.0,0.0,0.0,0.0,0.0,0.0,0.0,0.0,1.5902,1.5439,1.4687,1.4016,1.3427,1.2737,1.2334,1.2195,1.2402,1.2385,1.2212,1.2554,0.0,0.0,0.0,0.0,0.0,1.4087,1.4387,1.4515,1.4515,1.4515,1.4515,1.4515,1.4515,1.4515,0.0,0.0,0.0,0.0,0.0,0.0,0.0,0.0,0.0,0.0,0.0,0.0,0.0,0.0,0.0,0.0,0.0,0.0,0.0,0.0,0.0,0.0,0.0,0.0,0.0,0.0,0.0,0.0,0.0,0.0,0.0,0.0,0.0,0.0,0.6854,0.0,0.0,0.0,0.0,0.0,0.0,0.0,0.0,0.0,0.0,0.0,0.0,0.0,0.0,0.0,0.0,0.0,0.0,0.0,0.0,0.918,1.1097,1.3358,1.5563,1.7371,1.8346,1.7265,1.575,1.4099,1.2462,1.0593,0.9218,0.921,0.9268,0.9473,1.0002,1.0065,1.0023,1.0024,1.0615,0.0,0.0,0.0,0.0,0.0,0.0,0.0,0.0,0.0,0.0,0.0,0.0,0.0,0.0,0.0,1.5323,1.4913,1.4219,1.3541,1.2925,1.2567,1.2336,1.22,1.2323,1.2323,1.2266,1.224,0.0,0.0,0.0,0.0,0.0,1.4085,1.4336,1.4357,1.4455,1.4515,1.4515,1.4515,1.4515,1.4515,0.0,0.0,0.0,0.0,0.0,0.0,0.0,0.0,0.0,0.0,0.0,0.0,0.0,0.0,0.0,0.0,0.0,0.0,0.0,0.0,0.0,0.0,0.0,0.0,0.0,0.0,0.0,0.0,0.0,0.0,0.0,0.0,0.0,0.0,0.0,0.0,0.0,0.0,0.0,0.0,0.0,0.0,0.9159,0.0,0.0,0.0,0.0,0.0,0.0,0.0,0.0,0.0,0.0,0.0,0.0,0.0,0.7922,0.9436,1.1749,1.3795,1.4973,1.3636,1.2665,0.0,0.0,0.9395,0.8484,0.9119,0.9446,0.971,1.0006,1.0025,0.9995,0.9973,1.0809,1.1652,0.0,0.0,0.0,0.0,0.0,0.0,0.0,0.0,0.0,0.0,0.0,0.0,0.0,0.0,1.4893,1.4389,1.3841,1.3307,1.2822,1.2636,1.2517,1.2427,1.2268,1.2204,1.2196,0.0,0.0,0.0,0.0,0.0,0.0,1.395,1.4178,1.4306,1.4387,1.4455,1.4476,1.4455,1.4426,1.4417,0.0,0.0,0.0,0.0,0.0,0.0,0.0,0.0,0.0,0.0,0.0,0.0,0.0,0.0,0.0,0.0,0.0,0.0,0.0,0.0,0.0,0.0,0.0,0.0,0.0,0.0,0.0,0.0,0.4171,0.4536,0.5151,0.0,0.0,0.0,0.0,0.0,0.0,0.0,0.0,0.0,0.0,0.0,0.0,0.0,0.0,0.0,0.0,0.0,0.0,0.0,0.0,0.0,0.0,0.0,0.0,0.0,0.0,0.0,0.0,1.1446,1.3089,1.2313,1.1571,1.101,1.1029,0.9225,0.0,0.9584,0.9358,0.9111,0.9848,0.9974,0.9959,0.9884,1.1169,0.0,0.0,0.0,0.0,0.0,0.0,0.0,0.0,0.0,0.0,0.0,0.0,0.0,0.0,0.0,0.0,1.3791,1.358,1.3307,1.2981,1.2836,1.2758,1.2726,1.2214,1.1942,1.1919,0.0,0.0,0.0,0.0,0.0,0.0,1.37,1.3989,1.4267,1.4297,1.4357,1.4446,1.4327,1.4297,1.4237,0.0,0.0,0.0,0.0,0.0,0.0,0.0,0.0,0.0,0.0,0.0,0.0,0.0,0.0,0.0,0.0,0.0,0.0,0.0,0.0,0.0,0.0,0.0,0.0,0.0,0.0,0.0,0.4611,0.5144,0.5511,0.5717,0.5763,0.0,0.0,0.0,0.0,0.0,0.0,0.0,0.0,0.0,0.0,0.0,0.0,0.0,0.0,0.9277,0.9326,0.0,0.0,0.0,0.0,0.0,0.0,0.0,0.0,0.5991,0.6021,0.6806,0.0,0.8064,0.8441,0.8384,0.8237,0.0,0.0,0.0,0.0,0.0,0.0,0.0,0.9799,0.9755,0.9691,1.0922,1.2274,0.0,0.0,0.0,0.0,0.0,0.0,0.0,0.0,0.0,0.0,0.0,0.0,0.0,0.0,0.0,1.3601,1.3186,1.2889,1.2713,1.2652,1.2485,1.2168,1.181,1.1423,1.1083,0.0,0.0,0.0,0.0,0.0,0.0,1.3619,1.386,1.395,1.4207,1.4237,1.4139,1.4267,1.4198,1.407,0.0,0.0,0.0,0.0,0.0,0.0,0.0,0.0,0.0,0.0,0.0,0.0,0.0,0.0,0.0,0.0,0.0,0.0,0.0,0.0,0.0,0.0,0.0,0.0,0.0,0.0,0.0,0.0,0.0,0.5901,0.0,0.0,0.0,0.0,0.0,0.0,0.0,0.0,0.0,0.0,0.8554,0.0,0.0,0.0,0.0,0.0,0.9157,0.9234,0.0,0.9372,0.9426,0.9393,0.0,0.0,0.0,0.0,0.6602,0.6599,0.6568,0.6894,0.7253,0.7255,0.7549,0.784,0.7815,0.0,0.0,0.0,0.0,0.0,0.0,0.0,0.0,0.0,1.1646,0.0,0.0,0.0,0.0,0.0,0.0,0.0,0.0,0.0,0.0,0.0,0.0,0.0,0.0,0.0,0.0,0.0,1.3011,1.2744,1.259,1.259,1.2415,1.2011,1.1605,1.1232,1.0937,0.0,0.0,0.0,0.0,0.0,1.3019,1.3415,1.3649,1.383,1.3989,1.4049,1.401,1.4049,1.401,1.389,0.0,0.0,0.0,0.0,0.0,0.0,0.0,0.0,0.0,0.0,0.0,0.0,0.0,0.0,0.0,0.0,0.0,0.0,0.0,0.0,0.0,0.0,0.0,0.0,0.0,0.0,0.0,0.0,0.0,0.0,0.0,0.0,0.0,0.0,0.0,0.0,0.0,0.0,0.0,0.0,0.8415,0.0,0.0,0.0,0.0,0.0,0.0,0.0,0.0,0.925,0.9284,0.9307,0.9439,0.0,0.0,0.0,0.0,0.0,0.7262,0.8006,0.8579,0.7753,0.8001,0.8461,0.8545,0.0,0.0,0.0,0.0,0.0,0.0,1.0761,0.0,0.0,0.0,0.0,0.0,0.0,0.0,0.0,0.0,0.0,0.0,0.0,0.0,0.0,0.0,0.0,0.0,0.0,0.0,0.0,1.292,1.2713,1.259,1.2543,1.2297,1.1932,1.144,1.1143,1.1002,1.0906,0.0,0.0,0.0,0.0,1.2989,1.3211,1.3484,1.3739,1.3769,1.386,1.392,1.3791,1.3739,1.3679,0.0,0.0,0.0,0.0,0.0,0.0,0.0,0.0,0.0,0.0,0.0,0.0,0.0,0.0,0.0,0.0,0.0,0.0,0.0,0.0,0.0,0.0,0.0,0.0,0.0,0.0,0.0,0.0,0.0,0.0,0.7467,0.7533,0.7687,0.0,0.0,0.0,0.0,0.8047,0.8109,0.8231,0.8303,0.0,0.0,0.0,0.0,0.0,0.0,0.0,0.0,0.9166,0.9206,0.9224,0.9297,0.0,0.0,0.0,0.0,0.0,0.7949,0.9006,0.9937,0.9247,0.8645,0.8418,0.909,0.0,0.0,0.0,0.0,0.0,0.0,1.0332,1.0125,0.0,0.0,0.0,0.0,0.0,0.0,0.0,0.0,0.0,0.0,0.0,0.0,0.0,0.0,0.0,0.0,0.0,0.0,0.0,0.0,1.2621,1.259,1.2258,1.1924,1.1567,1.1095,1.0775,1.0591,1.0921,1.1262,0.0,0.0,0.0,1.2867,1.318,1.3333,1.3393,1.3688,1.37,1.3571,1.3541,1.3467,1.3363,0.0,0.0,0.0,0.0,0.0,0.0,0.0,0.0,0.0,0.0,0.0,0.0,0.0,0.0,0.0,0.0,0.0,0.0,0.0,0.0,0.0,0.0,0.0,0.0,0.0,0.0,0.0,0.0,0.0,0.7314,0.7438,0.7537,0.765,0.7739,0.0,0.0,0.0,0.7919,0.8005,0.8099,0.0,0.0,0.0,0.0,0.0,0.0,0.0,0.0,0.0,0.0,0.9093,0.9113,0.9206,0.0,0.0,0.0,0.0,0.0,0.8172,0.8876,0.9757,0.9783,0.9857,1.0018,0.0,0.0,0.0,0.0,0.0,0.0,0.0,0.0,0.0,0.0,0.0,0.0,0.0,0.0,0.0,0.0,0.0,0.0,0.0,0.0,0.0,0.0,0.0,0.0,0.0,0.0,0.0,0.0,0.0,1.2266,1.2266,1.201,1.1823,1.1658,1.1094,1.0821,1.0829,1.1079,1.1401,0.0,0.0,1.259,1.2805,1.2958,1.315,1.3302,1.3354,1.3376,1.3376,1.3194,1.292,1.2652,0.0,0.0,0.0,0.0,0.0,0.0,0.0,0.0,0.0,0.0,0.0,0.0,0.0,0.0,0.0,0.0,0.0,0.0,0.0,0.0,0.0,0.0,0.0,0.0,0.0,0.0,0.0,0.705,0.712,0.7203,0.7306,0.7444,0.7529,0.0,0.0,0.0,0.7687,0.7812,0.7884,0.7964,0.0,0.0,0.0,0.0,0.0,0.0,0.0,0.0,0.0,0.0,0.0,0.0,0.0,0.0,0.0,0.8483,0.8711,0.9024,0.8407,0.8808,0.9525,0.9964,1.0442,0.0,0.0,0.0,0.0,0.0,0.0,0.0,0.0,0.0,0.0,0.0,0.0,0.0,0.0,0.0,0.0,0.0,0.0,0.0,0.0,0.0,0.0,0.0,0.0,0.0,0.0,0.0,0.0,0.0,0.0,0.0,1.2146,1.1889,1.1754,1.1724,1.1059,1.0881,1.1086,1.1218,1.1503,1.1894,1.2219,1.2529,1.2775,1.2775,1.2958,1.318,1.3019,1.2989,1.2997,1.2683,1.2274,1.1872,0.0,0.0,0.0,0.0,0.0,0.0,0.0,0.0,0.0,0.0,0.0,0.0,0.0,0.0,0.0,0.0,0.0,0.0,0.0,0.0,0.0,0.0,0.0,0.0,0.0,0.6459,0.6782,0.6916,0.6977,0.7115,0.7306,0.7435,0.751,0.7504,0.0,0.0,0.762,0.7687,0.7753,0.7834,0.7964,0.0,0.0,0.0,0.0,0.0,0.0,0.0,0.0,0.0,0.0,0.0,0.0,0.0,0.9008,0.8945,0.8979,0.8996,0.8939,0.9469,1.0029,1.0005,0.954,0.0,1.065,1.0924,0.0,1.167,0.0,0.0,0.0,0.0,0.0,0.0,0.0,0.0,0.0,0.0,0.0,0.0,0.0,0.0,0.0,0.0,0.0,0.0,0.0,0.0,0.0,0.0,0.0,0.0,0.0,0.0,1.2551,1.1925,1.1576,1.1501,1.0914,1.0741,1.0996,1.1204,1.1571,1.2089,1.2428,1.259,1.2621,1.2744,1.2805,1.2836,1.2836,1.256,1.2151,1.1957,1.156,1.1153,0.0,0.0,0.0,0.0,0.0,0.0,0.0,0.0,0.0,0.0,0.0,0.0,0.0,0.0,0.0,0.0,0.0,0.0,0.0,0.0,0.0,0.0,0.0,0.5657,0.577,0.638,0.6765,0.6908,0.7009,0.7123,0.7243,0.7288,0.0,0.0,0.0,0.0,0.7543,0.7702,0.7775,0.7805,0.7949,0.8076,0.0,0.0,0.0,0.0,0.0,0.0,0.0,0.0,0.8718,0.8782,0.8852,0.888,0.888,0.8925,0.8942,0.8931,0.8931,0.9418,0.9912,0.9885,0.9574,0.0,0.0,1.2724,1.2646,1.2449,1.3268,0.0,0.0,0.0,0.0,0.0,0.0,0.0,0.0,0.0,0.0,0.0,0.0,0.0,0.0,0.0,0.0,0.0,0.0,0.0,0.0,0.0,0.0,0.0,0.0,1.2053,0.0,1.2102,1.1928,1.1669,1.1041,1.0936,1.137,1.1523,1.1844,1.2243,1.2498,1.259,1.259,1.2652,1.2683,1.2652,1.2305,1.1903,1.1435,1.124,1.0933,1.0586,0.0,0.0,0.0,0.0,0.0,0.0,0.0,0.0,0.0,0.0,0.0,0.0,0.0,0.0,0.0,0.0,0.0,0.0,0.0,0.0,0.0,0.0,0.0,0.586,0.5947,0.6403,0.6732,0.6908,0.7034,0.7123,0.7171,0.0,0.0,0.0,0.0,0.0,0.0,0.7627,0.7724,0.7746,0.7855,0.797,0.0,0.0,0.0,0.0,0.0,0.0,0.0,0.0,0.8585,0.8646,0.8706,0.8742,0.8771,0.8795,0.8973,0.915,0.9126,0.9415,0.9779,0.9951,0.0,0.0,1.3605,1.3983,1.3765,1.4115,1.4718,0.0,0.0,0.0,0.0,0.0,0.0,0.0,0.0,0.0,0.0,0.0,0.0,0.0,0.0,0.0,0.0,0.0,0.0,0.0,0.0,0.0,0.0,0.0,0.0,0.0,0.0,1.2249,1.2151,1.1895,1.1357,1.1249,1.1498,1.1709,1.1965,1.2243,1.2498,1.259,1.259,1.2529,1.2375,1.2151,1.1747,1.1279,1.0807,1.0618,1.0364,1.0117,0.0,0.0,0.0,0.0,0.0,0.0,0.0,0.0,0.0,0.0,0.0,0.0,0.0,0.0,0.0,0.0,0.0,0.0,0.0,0.0,0.0,0.0,0.0,0.636,0.6499,0.6505,0.663,0.6908,0.7034,0.7099,0.7099,0.7171,0.0,0.0,0.0,0.0,0.0,0.0,0.7535,0.7612,0.7679,0.7739,0.782,0.0,0.0,0.0,0.0,0.0,0.0,0.0,0.8444,0.8503,0.8571,0.8649,0.8687,0.8622,0.9117,0.9676,0.9609,0.9604,0.9738,1.0271,0.0,0.0,1.4443,1.4284,1.4174,1.6865,0.0,1.6162,0.0,0.0,0.0,0.0,0.0,0.0,0.0,0.0,0.0,0.0,0.0,0.0,0.0,0.0,0.0,0.0,0.0,0.0,0.0,0.0,0.0,0.0,0.0,0.0,1.259,1.2406,1.2243,1.2096,1.1903,1.1615,1.1334,1.1646,1.1903,1.212,1.2467,1.259,1.259,1.2375,1.1895,1.1272,1.1153,1.0744,1.0269,1.0079,0.9926,0.9766,0.0,0.0,0.0,0.0,0.0,0.0,0.0,0.0,0.0,0.0,0.0,0.0,0.0,0.0,0.0,0.0,0.0,0.0,0.0,0.0,0.0,0.0,0.0,0.0,0.0,0.0,0.682,0.6908,0.7036,0.7126,0.0,0.0,0.0,0.7262,0.0,0.0,0.0,0.0,0.7582,0.7612,0.7724,0.7775,0.7797,0.0,0.0,0.0,0.0,0.0,0.0,0.0,0.0,0.0,0.8422,0.8473,0.8498,0.8517,0.8647,0.8771,0.8699,0.9609,0.0,1.0199,0.0,0.0,0.0,1.5415,0.0,0.0,0.0,0.0,0.0,0.0,0.0,0.0,0.0,0.0,0.0,0.0,0.0,0.0,0.0,0.0,0.0,0.0,0.0,0.0,0.0,0.0,0.0,0.0,0.0,0.0,0.0,0.0,1.259,1.2529,1.2428,1.2243,1.2182,1.1996,1.1646,1.1903,1.2089,1.2243,1.2498,1.2529,1.2336,1.1809,1.1334,1.0902,1.0491,1.018,0.9926,0.974,0.9516,0.9314,0.0,0.0,0.0,0.0,0.0,0.0,0.0,0.0,0.0,0.0,0.4793,0.0,0.0,0.0,0.0,0.0,0.0,0.0,0.0,0.0,0.0,0.0,0.0,0.0,0.0,0.6736,0.6874,0.0,0.0,0.0,0.0,0.0,0.0,0.7302,0.0,0.736,0.0,0.0,0.7492,0.7522,0.7612,0.765,0.7679,0.0,0.0,0.0,0.0,0.0,0.0,0.0,0.0,0.0,0.8216,0.8278,0.8431,0.8977,0.8938,0.8871,0.9553,1.0329,0.0,1.1027,1.2056,1.3612,1.5697,0.0,0.0,0.0,0.0,0.0,0.0,0.0,0.0,0.0,0.0,0.0,0.0,0.0,0.0,0.0,0.0,0.0,0.0,0.0,0.0,0.0,0.0,0.0,0.0,0.0,0.0,0.0,0.0,0.0,1.259,1.259,0.0,1.2428,1.2428,1.2274,1.1988,1.212,1.2182,1.2212,1.2212,1.2058,1.1778,1.1209,1.0769,1.0446,0.9951,0.973,0.9658,0.9421,0.9312,0.9287,0.0,0.0,0.0,0.0,0.0,0.0,0.0,0.0,0.0,0.0,0.4822,0.4941,0.0,0.0,0.0,0.0,0.0,0.0,0.0,0.0,0.0,0.0,0.0,0.0,0.0,0.0,0.0,0.0,0.0,0.0,0.0,0.0,0.7298,0.7298,0.0,0.7468,0.0,0.7405,0.7413,0.746,0.7412,0.7435,0.7488,0.7544,0.0,0.0,0.0,0.0,0.0,0.0,0.0,0.0,0.7997,0.8083,0.8394,0.9563,0.955,0.952,1.1177,1.1323,1.1287,1.2311,1.3123,0.0,1.6115,1.7777,1.8701,1.7967,0.0,0.0,0.0,0.0,0.0,0.0,0.0,0.0,0.0,0.0,0.0,0.0,0.0,0.0,0.0,0.0,0.0,0.0,0.0,0.0,0.0,0.0,0.0,0.0,0.0,0.0,1.259,1.259,0.0,0.0,1.2567,1.2436,1.2243,1.2274,1.2182,1.1996,1.1654,1.1341,1.0996,1.0611,1.0269,0.9926,0.9575,0.945,0.9486,0.9227,0.9281,0.948,0.0,0.0,0.0,0.0,0.0,0.0,0.0,0.0,0.0,0.0,0.0,0.0,0.0,0.0,0.0,0.0,0.0,0.0,0.0,0.0,0.0,0.0,0.0,0.0,0.0,0.0,0.0,0.0,0.0,0.0,0.0,0.0,0.0,0.7322,0.0,0.7995,0.7953,0.7988,0.7988,0.7911,0.7494,0.7334,0.7351,0.7353,0.7429,0.0,0.0,0.0,0.0,0.0,0.0,0.0,0.7897,0.7932,0.8022,0.8303,0.8613,0.8972,0.9364,1.0736,0.0,0.0,1.3728,1.521,1.5472,1.6076,1.6762,1.7246,0.0,0.0,0.0,0.0,0.0,0.0,0.0,0.0,0.0,0.0,0.0,0.0,0.0,0.0,0.0,0.0,0.0,0.0,0.0,0.0,0.0,0.0,0.0,0.0,0.0,1.2274,1.259,1.259,1.2529,0.0,1.2243,1.2058,1.1747,1.2027,1.1903,1.1459,1.1122,1.0832,1.0611,1.0238,0.9983,0.983,0.9577,0.9494,0.9478,0.945,0.9324,0.9221,0.0,0.0,0.0,0.0,0.0,0.0,0.0,0.0,0.0,0.0,0.0,0.0,0.0,0.0,0.0,0.0,0.0,0.0,0.0,0.0,0.0,0.0,0.0,0.0,0.0,0.0,0.0,0.0,0.0,0.0,0.0,0.0,0.0,0.7268,0.0,0.7658,0.762,0.7629,0.7603,0.755,0.7264,0.7153,0.7163,0.7227,0.7296,0.7365,0.7396,0.0,0.0,0.0,0.0,0.0,0.0,0.0,0.7967,0.8579,0.8556,0.8649,1.0118,0.0,0.0,1.3051,0.0,1.5186,1.4927,1.5201,1.553,0.0,0.0,0.0,0.0,0.0,0.0,0.0,0.0,0.0,0.0,0.0,0.0,0.0,0.0,0.0,0.0,0.0,0.0,0.0,0.0,0.0,0.0,0.0,0.0,0.0,1.1765,1.186,1.2081,1.2022,1.1903,1.1718,1.1517,1.124,1.0904,1.1301,1.1272,1.0895,1.0555,1.0333,1.0142,0.9862,0.9708,0.9632,0.9397,0.9396,0.9498,0.9366,0.9306,0.9318,0.0,0.0,0.0,0.0,0.0,0.0,0.0,0.0,0.0,0.0,0.0,0.0,0.0,0.0,0.0,0.0,0.0,0.0,0.0,0.0,0.0,0.0,0.0,0.0,0.0,0.0,0.0,0.0,0.0,0.0,0.0,0.0,0.0,0.7147,0.0,0.0,0.7203,0.7145,0.7119,0.7098,0.6984,0.7002,0.7103,0.7206,0.7332,0.7438,0.7387,0.7427,0.7515,0.7484,0.0,0.0,0.0,0.0,0.7959,0.9033,0.8666,0.8479,1.1035,0.0,1.1867,1.3889,1.454,0.0,1.4314,1.4476,1.4456,0.0,0.0,0.0,0.0,0.0,0.0,0.0,0.0,0.0,0.0,0.0,0.0,0.0,0.0,0.0,0.0,0.0,0.0,0.0,0.0,0.0,0.0,0.0,1.1058,1.1392,1.14,1.1431,1.1487,1.1354,1.1184,1.1022,1.0623,1.0267,0.9999,1.0361,1.047,1.0364,1.0047,0.9862,0.974,0.958,0.9516,0.9492,0.9263,0.928,0.9454,0.922,0.9249,0.942,0.0,0.0,0.0,0.0,0.0,0.0,0.0,0.0,0.0,0.0,0.5039,0.0,0.0,0.0,0.0,0.0,0.0,0.0,0.0,0.0,0.0,0.0,0.0,0.0,0.0,0.0,0.0,0.0,0.0,0.0,0.0,0.0,0.0,0.6962,0.0,0.0,0.0,0.761,0.7569,0.7475,0.6941,0.7017,0.7433,0.7452,0.7852,0.8356,0.7836,0.7802,0.7935,0.748,0.7334,0.0,0.0,0.0,0.7593,0.7819,0.8136,0.8485,0.8907,0.0,1.2021,0.0,1.3881,1.368,0.0,0.0,0.0,0.0,0.0,0.0,0.0,0.0,0.0,0.0,0.0,0.0,0.0,0.0,0.0,0.0,0.0,0.0,0.0,0.0,0.0,0.0,0.0,0.0,0.0,1.0568,1.0727,1.105,1.1066,0.0,1.1515,1.1241,1.0958,1.0644,0.9804,0.943,0.9499,0.9383,0.9531,0.9894,0.9676,0.9548,0.9548,0.9516,0.9516,0.9478,0.9474,0.941,0.9338,0.9296,0.918,0.9087,0.0,0.0,0.0,0.0,0.0,0.0,0.0,0.0,0.0,0.0,0.0,0.5166,0.0,0.0,0.0,0.0,0.0,0.0,0.0,0.0,0.0,0.0,0.0,0.0,0.0,0.0,0.0,0.0,0.0,0.0,0.0,0.777,0.7822,0.0,0.0,0.0,0.0,0.0,0.7726,0.7887,0.7275,0.7327,0.7781,0.7773,0.8005,0.8287,0.8055,0.7943,0.7836,0.7601,0.7399,0.7251,0.7312,0.0,0.0,0.0,0.7642,0.8158,0.9387,1.0775,1.217,0.0,1.3476,1.3156,1.2938,0.0,0.0,0.0,0.0,0.0,0.0,0.0,0.0,0.0,0.0,0.0,0.0,0.0,0.0,0.0,0.0,0.0,0.0,0.0,0.0,0.0,0.0,0.0,1.0488,1.0496,1.0568,1.0727,1.0727,0.0,1.0835,1.0451,0.9964,0.9371,0.903,0.891,0.9004,0.9004,0.9226,0.9612,0.9548,0.9516,0.9516,0.9516,0.9446,0.9364,0.9216,0.915,0.9128,0.8989,0.8966,0.9017,0.0,0.0,0.0,0.0,0.0,0.0,0.0,0.0,0.0,0.0,0.0,0.0,0.0,0.0,0.0,0.0,0.0,0.0,0.0,0.0,0.0,0.0,0.0,0.0,0.0,0.0,0.0,0.0,0.0,0.0,0.7787,0.8338,0.8671,0.0,0.8516,0.0,0.0,0.0,0.0,0.0,0.7647,0.7733,0.8126,0.8105,0.832,0.8584,0.835,0.8243,0.8165,0.0,0.0,0.0,0.0,0.7501,0.0,0.0,0.0,0.7745,0.0,0.0,1.1391,1.2579,1.2563,1.2318,0.0,0.0,0.0,0.0,0.0,0.0,0.0,0.0,0.0,0.0,0.0,0.0,0.0,0.0,0.0,0.0,0.0,0.0,0.0,0.0,0.0,0.0,0.0,0.0,1.048,1.0496,1.0496,1.0496,1.0496,1.0419,1.0239,0.9673,0.9055,0.8369,0.8444,0.8545,0.867,0.8773,0.9033,0.9382,0.9382,0.9382,0.9382,0.9382,0.9312,0.9192,0.9,0.8952,0.8935,0.8785,0.8799,0.8894,0.0,0.0,0.0,0.0,0.0,0.0,0.0,0.0,0.0,0.0,0.0,0.0,0.0,0.0,0.0,0.0,0.0,0.0,0.0,0.0,0.0,0.0,0.0,0.0,0.0,0.0,0.0,0.0,0.0,0.0,0.8273,0.8811,0.9303,0.9691,0.8737,0.8306,0.8298,0.0,0.0,0.0,0.0,0.8121,0.0,0.0,0.0,0.0,0.0,0.0,0.0,0.0,0.0,0.0,0.0,0.0,0.0,0.0,0.0,0.0,0.0,0.8741,0.0,1.0483,1.0743,0.0,0.0,0.0,0.0,0.0,0.0,0.0,0.0,0.0,0.0,0.0,0.0,0.0,0.0,0.0,0.0,0.0,0.0,0.0,0.0,0.0,0.0,0.0,0.0,0.0,1.048,1.0496,1.0496,1.0496,1.0496,1.0334,1.0025,0.9223,0.865,0.8295,0.8179,0.8306,0.8598,0.8609,0.8751,0.9017,0.9017,0.9017,0.9017,0.9017,0.9017,0.9017,0.9005,0.8914,0.8802,0.8791,0.8694,0.8544,0.0,0.0,0.0,0.0,0.0,0.0,0.0,0.0,0.0,0.0,0.0,0.0,0.0,0.0,0.5416,0.552,0.5959,0.0,0.0,0.0,0.0,0.0,0.0,0.0,0.0,0.0,0.0,0.0,0.0,0.8424,0.8313,0.9154,0.9616,0.9712,0.9404,0.9218,0.9108,0.874,0.0,0.0,0.0,0.0,0.0,0.0,0.0,0.0,0.0,0.0,0.0,0.0,0.0,0.0,0.0,0.0,0.0,0.0,0.0,0.0,0.0,0.0,0.0,0.9231,0.9537,0.9594,0.0,0.0,0.0,0.0,0.0,0.0,0.0,0.0,0.0,0.0,0.0,0.0,0.0,0.0,0.0,0.0,0.0,0.0,0.0,0.0,0.0,0.0,0.0,0.0,1.048,1.0496,1.0496,1.0496,1.0283,0.9862,0.9223,0.8784,0.8427,0.8185,0.8293,0.8439,0.8589,0.8691,0.8783,0.8861,0.8598,0.8689,0.8985,0.8985,0.8958,0.8833,0.8539,0.8331,0.8179,0.7875,0.7869,0.8006,0.0,0.0,0.0,0.0,0.0,0.0,0.0,0.0,0.0,0.0,0.0,0.0,0.0,0.0,0.5786,0.593,0.6425,0.6992,0.7596,0.7783,0.0,0.0,0.0,0.0,0.0,0.0,0.0,0.0,0.0,0.0,0.0,0.9169,0.9525,0.9631,0.9632,0.9605,0.0,0.0,0.0,0.9336,0.0,0.0,0.8903,0.0,0.0,0.0,0.0,0.0,0.0,0.0,0.0,0.0,0.0,0.0,0.0,0.0,0.0,0.0,0.7565,0.0,0.0,0.0,0.0,0.7907,0.0,0.0,0.0,0.0,0.0,0.0,0.0,0.0,0.0,0.0,0.0,0.0,0.0,0.0,0.0,0.0,0.0,0.0,0.0,0.0,0.0,0.0,0.0,0.0,1.048,1.0496,1.0437,1.0275,0.9914,0.9394,0.8672,0.8463,0.8269,0.8057,0.8339,0.8507,0.8563,0.8666,0.8673,0.8571,0.8301,0.8398,0.8727,0.8694,0.8603,0.8511,0.8187,0.8005,0.7886,0.7582,0.7604,0.7806,0.0,0.0,0.0,0.0,0.0,0.0,0.0,0.0,0.0,0.0,0.0,0.0,0.0,0.0,0.0,0.6797,0.7057,0.7465,0.8062,0.8296,0.0,0.0,0.0,0.0,0.0,0.0,0.0,0.0,0.0,0.0,0.0,0.0,0.9056,0.9484,0.9339,0.9353,0.9494,0.0,0.9659,0.9243,0.0,0.9557,0.8662,0.0,0.0,0.0,0.9966,1.0114,0.0,1.0276,0.0,0.0,0.0,0.0,0.0,0.0,0.0,0.0,0.0,0.0,0.0,0.0,0.0,0.0,0.7419,0.0,0.0,0.0,0.0,0.0,0.0,0.0,0.0,0.0,0.0,0.0,0.0,0.0,0.0,0.0,0.0,0.0,0.0,0.0,0.0,0.0,0.0,1.0097,1.048,1.0496,1.0275,0.9788,0.9387,0.8923,0.8395,0.8312,0.8177,0.7992,0.8246,0.8432,0.8474,0.8479,0.8376,0.8199,0.8204,0.8172,0.8172,0.8047,0.7987,0.7987,0.7977,0.7977,0.7977,0.7967,0.7972,0.7977,0.0,0.0,0.0,0.0,0.0,0.0,0.0,0.0,0.0,0.0,0.0,0.0,0.0,0.0,0.0,0.7056,0.7253,0.7595,0.8208,0.8391,0.8661,0.9054,0.9174,0.0,0.0,0.0,0.0,0.0,0.0,0.0,0.0,0.0,0.0,0.0,0.9044,0.8937,0.8921,0.9071,0.0,0.0,0.965,0.9578,0.0,0.0,0.0,0.0,0.0,1.0955,1.0623,0.0,1.0409,0.9035,0.0,0.0,0.0,0.0,0.0,0.0,0.6143,0.0,0.0,0.0,0.0,0.0,0.5553,0.6413,0.0,0.0,0.0,0.0,0.0,0.0,0.0,0.0,0.0,0.0,0.0,0.0,0.0,0.0,0.0,0.0,0.0,0.0,0.0,0.0,0.9994,1.0392,1.0488,1.0257,0.9888,0.9387,0.8968,0.8527,0.8029,0.7832,0.7749,0.7772,0.8016,0.8108,0.807,0.8227,0.8209,0.8047,0.7884,0.7824,0.7857,0.7954,0.7987,0.7972,0.7778,0.765,0.7562,0.7413,0.7391,0.7433,0.0,0.0,0.0,0.0,0.0,0.0,0.0,0.0,0.0,0.0,0.0,0.0,0.0,0.0,0.0,0.0,0.7588,0.7862,0.8237,0.8389,0.8558,0.8789,0.8916,0.9058,0.0,0.0,0.0,0.0,0.0,0.0,0.0,0.0,0.0,0.0,0.0,0.0,0.0,0.0,0.0,0.0,0.9985,0.0,0.0,1.0061,1.0474,0.0,0.0,0.0,1.0487,1.1419,1.045,0.0,0.0,0.0,0.0,0.0,0.0,0.0,0.0,0.0,0.0,0.0,0.0,0.0,0.521,0.5796,0.6484,0.0,0.0,0.0,0.0,0.0,0.0,0.0,0.0,0.0,0.0,0.0,0.0,0.0,0.0,0.0,0.0,0.0,0.0,0.0,1.0169,1.0445,1.0308,0.994,0.9517,0.9047,0.8633,0.8189,0.766,0.752,0.745,0.7422,0.7725,0.7863,0.7824,0.8041,0.8014,0.7857,0.7759,0.7661,0.7629,0.7754,0.7787,0.7777,0.7622,0.7504,0.7421,0.73,0.7303,0.7313,0.0,0.0,0.0,0.0,0.0,0.0,0.0,0.0,0.0,0.0,0.0,0.0,0.0,0.0,0.0,0.0,0.7953,0.8082,0.8144,0.828,0.0,0.8471,0.8648,0.8803,0.8935,0.0,0.0,0.0,0.0,0.0,0.0,0.0,0.0,0.0,0.0,0.0,0.0,0.0,0.0,0.9473,1.0456,1.0421,0.0,0.0,1.0308,0.0,1.1267,1.0942,1.0246,1.0993,1.0265,0.0,0.0,0.0,0.0,0.0,0.7205,0.0,0.0,0.0,0.0,0.0,0.0,0.0,0.5649,0.5612,0.5704,0.0,0.0,0.0,0.0,0.0,0.0,0.0,0.0,0.0,0.0,0.0,0.0,0.0,0.0,0.0,0.0,0.0,0.9898,0.9898,1.0239,1.0283,0.9947,0.9577,0.9178,0.8751,0.8342,0.7848,0.7284,0.7305,0.721,0.6961,0.7415,0.7634,0.7633,0.785,0.7832,0.7666,0.7666,0.7596,0.7489,0.7489,0.7489,0.7489,0.7489,0.7489,0.7489,0.7489,0.7489,0.7489,0.0,0.0,0.0,0.0,0.0,0.0,0.0,0.0,0.0,0.0,0.0,0.0,0.0,0.0,0.0,0.0,0.0,0.7812,0.0,0.0,0.808,0.8258,0.8347,0.8435,0.8509,0.86,0.0,0.0,0.0,0.0,0.0,0.0,0.0,0.0,0.0,0.0,0.0,0.0,0.0,1.0508,0.9665,0.0,1.0153,1.059,1.1161,1.1787,1.2329,1.1845,1.0885,0.0,0.9861,0.9291,0.0,0.0,0.0,0.0,0.0,0.0,0.0,0.0,0.0,0.0,0.0,0.0,0.4843,0.4863,0.4922,0.0,0.0,0.0,0.0,0.0,0.0,0.0,0.0,0.0,0.0,0.0,0.0,0.0,0.0,0.0,0.0,0.0,0.9898,0.9898,1.0012,0.9921,0.9543,0.9237,0.885,0.8321,0.7869,0.7467,0.7139,0.6938,0.68,0.6773,0.7025,0.716,0.722,0.7427,0.7524,0.7526,0.7526,0.7526,0.7489,0.7489,0.7489,0.7489,0.7489,0.7489,0.7489,0.7489,0.7489,0.7489,0.0,0.0,0.0,0.0,0.0,0.0,0.0,0.0,0.0,0.0,0.0,0.0,0.0,0.0,0.0,0.0,0.0,0.0,0.0,0.0,0.8507,0.8642,0.8741,0.8818,0.8839,0.8722,0.0,0.0,0.0,0.0,0.0,0.0,0.0,0.0,0.0,0.0,0.0,0.0,0.9559,0.9763,0.986,0.0,1.1173,1.1418,1.1663,1.1959,1.2356,1.1985,1.1214,1.0637,0.9918,0.0,0.0,0.842,0.7674,0.0,0.7312,0.7044,0.0,0.0,0.0,0.5858,0.0,0.0,0.0,0.5092,0.4975,0.5242,0.0,0.0,0.0,0.0,0.0,0.0,0.0,0.0,0.0,0.0,0.0,0.0,0.0,0.0,0.0,0.0,0.9953,1.0084,0.9985,0.9688,0.9237,0.8877,0.848,0.7969,0.7515,0.7192,0.7009,0.6707,0.6517,0.644,0.666,0.6818,0.6946,0.7183,0.7358,0.7489,0.7489,0.7489,0.7489,0.7489,0.7489,0.7489,0.7489,0.7489,0.7489,0.7489,0.7489,0.7489,0.5107,0.0,0.0,0.0,0.0,0.0,0.0,0.0,0.0,0.0,0.0,0.0,0.0,0.0,0.0,0.0,0.0,0.0,0.0,0.0,0.0,0.9045,0.9147,0.9254,0.9361,0.9034,0.8911,0.0,0.0,0.0,0.0,0.0,0.0,0.0,0.0,0.0,0.0,0.0,0.0,0.9167,0.0,1.1031,1.1572,1.1633,1.1678,1.1738,1.2122,1.1814,1.12,1.096,0.0,0.8951,0.9027,0.8513,0.0,0.0,0.0,0.0,0.0,0.0,0.0,0.0,0.0,0.495,0.0,0.0,0.0,0.5401,0.0,0.0,0.0,0.0,0.0,0.0,0.0,0.0,0.0,0.0,0.0,0.0,0.0,0.0,0.0,0.0,0.9762,1.0158,0.9736,0.9307,0.8912,0.8554,0.8129,0.7643,0.7223,0.6913,0.6763,0.6418,0.6204,0.6144,0.6304,0.6516,0.674,0.7007,0.721,0.7404,0.7474,0.7493,0.7461,0.7493,0.7489,0.7489,0.7489,0.7489,0.7489,0.7489,0.7489,0.7489,0.5243,0.5439,0.0,0.0,0.0,0.0,0.0,0.0,0.0,0.0,0.0,0.0,0.0,0.0,0.0,0.0,0.0,0.0,0.8409,0.0,0.0,0.0,0.8841,0.9083,0.9551,0.9234,0.9084,0.0,0.0,0.0,0.0,0.0,0.0,0.0,0.9792,0.0,0.0,0.0,1.0168,0.0,1.0102,0.9749,0.0,0.9944,1.0706,1.1692,1.2263,1.1702,1.0694,0.0,0.9693,0.8319,0.0,0.8142,0.7729,0.0,0.0,0.0,0.0,0.0,0.0,0.0,0.5439,0.0,0.0,0.0,0.4312,0.4018,0.0,0.0,0.0,0.0,0.0,0.0,0.0,0.0,0.0,0.0,0.0,0.0,0.0,0.0,0.0,0.0,0.0,0.9703,0.8857,0.8371,0.8552,0.8345,0.7955,0.7365,0.6912,0.6514,0.6188,0.585,0.5769,0.5944,0.5968,0.6158,0.6548,0.676,0.688,0.6985,0.7348,0.7396,0.7232,0.7423,0.7489,0.7489,0.7489,0.7489,0.7489,0.7489,0.7489,0.7489,0.5925,0.6004,0.0,0.0,0.0,0.0,0.0,0.0,0.0,0.0,0.0,0.0,0.0,0.0,0.0,0.0,0.0,0.913,0.0,0.0,0.0,0.0,0.9009,0.0,0.919,0.8788,0.8747,0.9103,0.9067,0.0,0.0,0.0,0.0,0.0,1.023,0.0,1.0762,0.0,1.0268,0.0,0.0,0.0,0.0,1.0127,1.0942,1.1398,1.2006,1.1573,1.0795,0.0,1.0239,0.0,0.0,0.0,0.0,0.0,0.0,0.0,0.0,0.0,0.0,0.0,0.0,0.0,0.5018,0.0,0.4456,0.0,0.0,0.0,0.0,0.0,0.0,0.0,0.0,0.0,0.0,0.0,0.0,0.0,0.0,0.0,0.0,0.0,0.0,0.0,0.0,0.842,0.8228,0.821,0.7922,0.7327,0.6881,0.6537,0.6282,0.5939,0.5862,0.6069,0.5968,0.6075,0.6396,0.6542,0.6697,0.6786,0.7058,0.7159,0.7204,0.7297,0.7396,0.7489,0.7489,0.7489,0.7489,0.7489,0.7489,0.7489,0.6755,0.0,0.0,0.0,0.0,0.0,0.0,0.0,0.0,0.0,0.0,0.0,0.7566,0.8007,0.0,0.0,0.9079,0.9395,0.0,0.0,0.9719,0.0,0.0,0.0,0.0,0.8787,0.8764,0.9205,0.0,0.0,0.0,0.0,0.0,0.0,0.0,1.0515,1.0913,0.0,0.0,0.9154,0.9494,0.9241,0.8835,1.0507,1.113,1.1211,1.1852,1.1559,1.0982,1.1557,1.0521,0.0,0.9653,0.0,0.0,0.0,0.0,0.0,0.7489,0.0,0.0,0.0,0.0,0.0,0.0,0.0,0.0,0.0,0.0,0.0,0.0,0.0,0.0,0.0,0.0,0.0,0.0,0.0,0.0,0.0,0.0,0.0,0.0,0.0,0.0,0.0,0.7999,0.0,0.7839,0.7992,0.7781,0.7216,0.6796,0.6481,0.6267,0.5956,0.588,0.6031,0.5902,0.5908,0.6064,0.6253,0.6357,0.6419,0.6683,0.6908,0.7062,0.7149,0.733,0.7489,0.7489,0.7489,0.7489,0.7489,0.7455,0.7408,0.7642,0.734,0.0,0.0,0.0,0.0,0.0,0.0,0.0,0.0,0.0,0.0,0.0,0.0,0.0,0.0,0.0,1.017,0.9514,0.0,0.9885,0.0,0.0,0.929,0.0,0.0,0.0,0.0,0.0,0.0,0.0,0.0,0.0,0.0,0.0,0.9852,0.9739,0.9542,0.9535,0.9627,0.9141,0.9485,1.0355,0.0,1.0932,1.1285,1.2034,0.0,0.0,1.0759,1.0092,0.0,0.0,0.0,0.0,0.0,0.0,0.0,0.0,0.0,0.0,0.6157,0.0,0.0,0.0,0.0,0.4556,0.0,0.0,0.0,0.0,0.0,0.0,0.0,0.0,0.0,0.0,0.0,0.0,0.0,0.0,0.0,0.0,0.0,0.0,0.0,0.6499,0.0,0.7377,0.7611,0.7461,0.6939,0.6535,0.6179,0.592,0.5717,0.5623,0.5628,0.5623,0.5549,0.5439,0.5759,0.581,0.5669,0.6325,0.6634,0.6737,0.7057,0.733,0.7489,0.7489,0.7489,0.7489,0.7489,0.7365,0.7199,0.0,0.0,0.0,0.0,0.0,0.0,0.0,0.7565,0.0,0.0,0.0,0.0,0.0,0.8558,0.8778,0.0,0.0,0.9566,0.9394,0.9369,0.0,0.0,0.0,0.8658,0.0,0.0,0.0,0.0,0.0,0.0,0.0,0.0,0.0,0.0,0.0,0.9499,0.0,0.0,0.0,0.0,0.0,0.9517,1.021,0.0,0.0,1.1229,1.1882,1.1769,0.0,1.1603,1.0851,0.9894,1.0095,0.9498,0.877,0.9157,0.8932,0.0,0.0,0.0,0.738,0.6038,0.0,0.0,0.0,0.0,0.0,0.0,0.0,0.0,0.0,0.0,0.0,0.0,0.0,0.0,0.0,0.0,0.0,0.0,0.0,0.0,0.0,0.0,0.0,0.5394,0.6067,0.6671,0.0,0.7491,0.7567,0.7299,0.6913,0.6493,0.6097,0.5885,0.5852,0.5989,0.5716,0.5605,0.5604,0.5666,0.569,0.5694,0.6178,0.6572,0.6863,0.709,0.733,0.7489,0.7489,0.7489,0.7489,0.7489,0.7361,0.7171,0.7392,0.0,0.0,0.0,0.0,0.0,0.0,0.0,0.0,0.0,0.7717,0.0,0.823,0.0,0.8251,0.0,0.8923,0.9188,0.9321,0.9177,0.0,0.9415,0.8736,0.0,0.0,0.0,0.0,0.0,0.0,0.9309,0.0,0.0,0.0,0.0,0.0,0.9109,0.9383,0.0,0.9478,0.0,0.0,0.9982,0.0,0.0,1.1138,0.0,0.0,1.1911,1.1739,1.1892,1.1288,1.0466,1.0639,0.9962,0.9182,0.9596,0.9261,0.8683,0.834,0.8127,0.0,0.0,0.6424,0.0,0.5506,0.0,0.0,0.0,0.0,0.0,0.0,0.0,0.0,0.0,0.0,0.0,0.0,0.2922,0.0,0.0,0.0,0.0,0.0,0.0,0.4575,0.4556,0.5497,0.6268,0.0,0.0,0.7352,0.723,0.6846,0.6487,0.6172,0.5977,0.5977,0.6087,0.5744,0.5568,0.5494,0.5414,0.5441,0.5549,0.5999,0.6433,0.6821,0.709,0.733,0.7489,0.7489,0.7489,0.7489,0.7489,0.7281,0.6915,0.0,0.0,0.0,0.0,0.7244,0.0,0.0,0.0,0.7285,0.0,0.766,0.7744,0.8304,0.8431,0.8477,0.8452,0.876,0.9087,0.9335,0.9062,0.0,0.0,0.9097,0.8946,0.966,0.0,0.0,0.0,0.0,0.0,0.0,0.0,0.0,0.0,0.8765,0.0,0.8802,0.878,0.9151,0.9829,1.0617,1.0741,1.0573,1.1259,0.0,1.0664,1.1699,1.2096,1.2012,1.1616,1.1311,1.104,1.0629,1.0268,1.0074,1.0368,1.0133,0.9675,0.9288,0.8791,0.8147,0.7147,0.0,0.0,0.0,0.0,0.5793,0.0,0.0,0.0,0.0,0.0,0.0,0.0,0.0,0.0,0.0,0.0,0.0,0.0,0.0,0.0,0.0,0.3824,0.4074,0.4256,0.4771,0.5442,0.0,0.0,0.0,0.672,0.638,0.6176,0.6102,0.5963,0.5916,0.592,0.5722,0.5446,0.5134,0.5058,0.5093,0.525,0.577,0.6219,0.6634,0.7026,0.7321,0.7489,0.7489,0.7489,0.7456,0.7447,0.7092,0.6454,0.6908,0.6779,0.6665,0.0,0.6626,0.6717,0.0,0.0,0.0,0.0,0.8016,0.8027,0.8024,0.8047,0.8012,0.7913,0.8297,0.0,0.0,0.0,0.0,0.938,0.8885,0.884,0.9385,0.8903,0.0,0.8776,0.0,0.0,0.8671,0.0,0.0,0.0,0.0,0.0,0.8708,0.8518,0.872,0.9234,0.9494,0.9427,0.0,0.0,0.9864,0.9675,1.1205,1.1716,1.1709,1.162,1.1337,1.0968,1.0679,1.0354,1.007,0.9997,0.9539,0.9064,0.9044,0.8587,0.7906,0.7042,0.7017,0.6991,0.0,0.0,0.0,0.0,0.0,0.0,0.0,0.0,0.0,0.0,0.0,0.0,0.0,0.0,0.0,0.3967,0.0,0.0,0.3166,0.3545,0.3848,0.3855,0.4449,0.0,0.0,0.0,0.0,0.699,0.6583,0.627,0.6102,0.5963,0.5965,0.612,0.5909,0.5777,0.5691,0.5377,0.5415,0.5733,0.5866,0.6234,0.678,0.7068,0.7324,0.7489,0.7489,0.733,0.7022,0.6871,0.6502,0.5989,0.6753,0.0,0.0,0.6259,0.0,0.0,0.6753,0.0,0.0,0.7621,0.7703,0.0,0.7635,0.7584,0.753,0.753,0.7771,0.0,0.8076,0.0,0.0,0.8837,0.8698,0.8777,0.9155,0.8892,0.0,0.8588,0.0,0.0,0.8221,0.0,0.0,0.0,0.0,0.8196,0.861,0.8599,0.8677,0.8808,0.8963,0.0,0.0,0.915,0.9216,0.9187,1.0209,1.073,1.0888,1.0888,1.0688,1.0382,1.0269,0.9938,0.9583,0.9605,0.9159,0.8731,0.8978,0.8535,0.7927,0.7591,0.7484,0.7314,0.6716,0.6517,0.6434,0.0,0.0,0.0,0.0,0.0,0.0,0.0,0.0,0.0,0.0,0.0,0.0,0.0,0.4454,0.0,0.3388,0.3919,0.4221,0.3985,0.439,0.0,0.0,0.0,0.0,0.6597,0.636,0.6167,0.6061,0.5855,0.584,0.5932,0.581,0.5779,0.5769,0.5533,0.5604,0.5916,0.5979,0.6276,0.6704,0.7066,0.7256,0.737,0.7265,0.697,0.6523,0.6181,0.5902,0.5603,0.0,0.0,0.0,0.0,0.0,0.0,0.0,0.6688,0.0,0.7108,0.0,0.7109,0.7198,0.7116,0.7106,0.7177,0.0,0.7376,0.7595,0.7616,0.783,0.8235,0.8388,0.8573,0.8817,0.8866,0.0,0.0,0.8401,0.8206,0.7938,0.0,0.0,0.0,0.0,0.0,0.0,0.8758,0.8697,0.0,0.8663,0.8676,0.8488,0.8732,0.886,0.8877,0.9006,0.9432,0.9926,0.9926,0.9775,0.9586,0.967,0.9323,0.8923,0.9217,0.889,0.8507,0.8888,0.8495,0.8008,0.8202,0.7939,0.7523,0.7181,0.6971,0.6845,0.6799,0.6358,0.0,0.0,0.0,0.0,0.0,0.0,0.0,0.0,0.0,0.0,0.0,0.0,0.0,0.3914,0.4495,0.4732,0.4319,0.444,0.0,0.0,0.0,0.0,0.0,0.5995,0.0,0.5931,0.0,0.558,0.5609,0.5637,0.5651,0.5651,0.5651,0.576,0.5963,0.6092,0.6309,0.6572,0.6965,0.7149,0.7125,0.688,0.6478,0.5961,0.5503,0.5286,0.5181,0.0,0.0,0.0,0.0,0.0,0.6293,0.589,0.6401,0.6924,0.7159,0.7083,0.6925,0.666,0.6876,0.6924,0.6658,0.701,0.0,0.0,0.0,0.0,0.7477,0.7622,0.7756,0.7937,0.7825,0.7802,0.0,0.769,0.7584,0.7586,0.7586,0.0,0.0,0.0,0.0,0.7716,0.8203,0.0,0.764,0.805,0.8052,0.7788,0.7892,0.8021,0.813,0.7844,0.8477,0.9428,0.955,0.9551,0.9479,0.9291,0.901,0.874,0.8817,0.8434,0.8074,0.8363,0.8158,0.7782,0.7558,0.7352,0.7108,0.6704,0.6598,0.6592,0.6697,0.6833,0.6976,0.699,0.0,0.0,0.0,0.0,0.0,0.0,0.0,0.0,0.0,0.0,0.5047,0.0,0.4342,0.437,0.4225,0.0,0.0,0.0,0.0,0.0,0.0,0.0,0.0,0.0,0.0,0.0,0.5613,0.5779,0.5854,0.5854,0.5854,0.5946,0.6139,0.5998,0.6252,0.6744,0.6845,0.6889,0.6898,0.6433,0.6013,0.5613,0.5097,0.4776,0.453,0.0,0.0,0.0,0.0,0.0,0.0,0.0,0.5951,0.0,0.6418,0.6357,0.6207,0.591,0.6032,0.6085,0.599,0.629,0.6498,0.6537,0.6734,0.6943,0.7229,0.7323,0.0,0.77,0.7811,0.7735,0.7444,0.7618,0.7553,0.7252,0.7384,0.7447,0.7461,0.0,0.7516,0.0,0.0,0.0,0.7295,0.7401,0.7315,0.7186,0.7217,0.7379,0.7548,0.732,0.7716,0.8322,0.8457,0.859,0.8646,0.8586,0.8392,0.8195,0.8259,0.8057,0.7847,0.8029,0.7879,0.7615,0.7538,0.7352,0.7144,0.6962,0.6908,0.6953,0.7083,0.7309,0.7443,0.7422,0.7168,0.0,0.0,0.0,0.0,0.0,0.0,0.0,0.0,0.0,0.0,0.0,0.0,0.0,0.0,0.0,0.0,0.0,0.0,0.0,0.0,0.0,0.0,0.0,0.0,0.0,0.5613,0.5812,0.5906,0.5916,0.5998,0.6106,0.6205,0.6205,0.6374,0.6646,0.6675,0.6619,0.6445,0.6013,0.5583,0.515,0.4754,0.4493,0.4319,0.0,0.5366,0.0,0.0,0.5236,0.0,0.5258,0.5254,0.5361,0.5596,0.5624,0.5562,0.535,0.5359,0.537,0.5407,0.5628,0.5823,0.5987,0.6206,0.6527,0.6976,0.7043,0.7203,0.7577,0.7811,0.7728,0.0,0.7624,0.7556,0.71,0.7194,0.7313,0.0,0.0,0.0,0.0,0.0,0.7187,0.7066,0.6931,0.6812,0.6757,0.6715,0.6822,0.6966,0.6868,0.6965,0.7168,0.7279,0.7515,0.7829,0.795,0.7808,0.7615,0.7807,0.7737,0.7649,0.7771,0.7649,0.7508,0.7568,0.7424,0.7255,0.7194,0.7206,0.7284,0.744,0.7747,0.7963,0.7959,0.7822,0.0,0.0,0.0,0.0,0.0,0.0,0.0,0.0,0.0,0.0,0.5359,0.0,0.0,0.0,0.0,0.0,0.0,0.0,0.0,0.0,0.0,0.0,0.5634,0.0,0.5566,0.0,0.5769,0.5868,0.5916,0.6059,0.6186,0.6276,0.6431,0.6524,0.6573,0.6595,0.6411,0.6079,0.565,0.5203,0.4743,0.4478,0.4359,0.4284,0.0,0.0,0.0,0.0,0.0,0.0,0.0,0.41,0.4442,0.5321,0.5417,0.5417,0.5387,0.5498,0.5467,0.5154,0.5445,0.5539,0.5384,0.586,0.6202,0.6368,0.6506,0.6745,0.7141,0.7128,0.7219,0.0,0.0,0.7183,0.7363,0.6947,0.7001,0.0,0.0,0.0,0.0,0.7025,0.6879,0.6678,0.6958,0.6887,0.6614,0.6406,0.6314,0.6254,0.6008,0.6081,0.6306,0.6337,0.6835,0.747,0.7603,0.7465,0.7298,0.7615,0.7533,0.7365,0.7494,0.753,0.7456,0.7206,0.7183,0.7134,0.6915,0.6941,0.711,0.7362,0.8189,0.8784,0.8498,0.8998,0.9307,0.0,0.0,0.0,0.0,0.0,0.0,0.0,0.0,0.0,0.0,0.569,0.0,0.0,0.0,0.0,0.0,0.0,0.0,0.0,0.0,0.5282,0.5086,0.5249,0.0,0.5609,0.5628,0.5731,0.5906,0.593,0.6116,0.6473,0.6497,0.6634,0.684,0.6731,0.6494,0.6112,0.5418,0.4944,0.4577,0.4379,0.433,0.4391,0.0,0.0,0.0,0.0,0.0,0.0,0.0,0.3206,0.3353,0.372,0.4159,0.4459,0.4561,0.4581,0.46,0.4671,0.4829,0.4986,0.5042,0.5535,0.5871,0.6043,0.6307,0.6554,0.6782,0.7005,0.7141,0.0,0.0,0.0,0.6846,0.647,0.0,0.0,0.0,0.6607,0.6705,0.6561,0.6472,0.6356,0.6239,0.6043,0.5799,0.5651,0.5596,0.5568,0.535,0.5393,0.5594,0.5545,0.6135,0.6895,0.7023,0.6999,0.6949,0.7153,0.7144,0.7095,0.7225,0.7246,0.7224,0.7131,0.7188,0.7224,0.7117,0.7198,0.7372,0.7654,0.8383,0.9003,0.9038,0.9182,0.9306,0.0,0.0,0.0,0.0,0.0,0.0,0.0,0.0,0.0,0.0,0.0,0.5612,0.0,0.0,0.0,0.0,0.0,0.0,0.4953,0.0,0.5402,0.5358,0.5439,0.5651,0.5956,0.5956,0.5998,0.6073,0.6073,0.6299,0.6704,0.6856,0.6923,0.6869,0.6617,0.6317,0.5954,0.5352,0.5088,0.5029,0.4724,0.4762,0.4981,0.2429,0.0,0.1995,0.0,0.1925,0.1953,0.2203,0.2217,0.2284,0.2452,0.2854,0.3322,0.3727,0.3791,0.391,0.418,0.43,0.4424,0.4629,0.5086,0.5468,0.5694,0.5969,0.0,0.6418,0.668,0.6826,0.6856,0.6794,0.0,0.0,0.0,0.0,0.0,0.6359,0.6395,0.6371,0.6136,0.5955,0.5845,0.5567,0.5317,0.512,0.5014,0.4951,0.4894,0.4807,0.4839,0.4922,0.4973,0.5429,0.6018,0.6343,0.6485,0.6571,0.6712,0.6798,0.6874,0.695,0.7004,0.7031,0.7031,0.7171,0.729,0.729,0.7392,0.7601,0.7928,0.8454,0.8975,0.9283,0.9248,0.9313,0.0,0.0,0.0,0.0,0.0,0.0,0.0,0.8305,0.7755,0.6837,0.634,0.0,0.0,0.0,0.0,0.0,0.0,0.0,0.0,0.0,0.0,0.0,0.0,0.573,0.6022,0.6022,0.6054,0.6116,0.6299,0.6577,0.6925,0.719,0.7168,0.6979,0.6613,0.635,0.6086,0.5488,0.5394,0.5535,0.5128,0.5194,0.5452,0.1306,0.1169,0.1034,0.1097,0.1108,0.1108,0.1109,0.1109,0.1311,0.185,0.1748,0.2017,0.3092,0.3433,0.3619,0.3709,0.3887,0.4021,0.4002,0.4524,0.4926,0.0,0.0,0.5602,0.5988,0.5935,0.6169,0.6692,0.0,0.0,0.6799,0.0,0.0,0.6568,0.6127,0.5977,0.6083,0.5754,0.543,0.5128,0.5097,0.4936,0.4719,0.4719,0.4498,0.4249,0.4439,0.4384,0.4252,0.4608,0.4719,0.4853,0.5586,0.6,0.6228,0.6359,0.6544,0.6701,0.6701,0.6793,0.6906,0.6906,0.7095,0.729,0.729,0.7392,0.7628,0.8088,0.8421,0.8732,0.9133,0.9406,0.9684,0.9966,0.0,0.0,0.0,0.0,0.0,0.0,0.8448,0.8292,0.6742,0.0,0.0,0.0,0.0,0.0,0.0,0.0,0.0,0.512,0.5096,0.0,0.5016,0.5401,0.5613,0.5618,0.5618,0.5722,0.5935,0.653,0.693,0.7199,0.7399,0.7391,0.7171,0.6839,0.6708,0.6609,0.5881,0.5744,0.5931,0.5555,0.5507,0.5678,0.0261,0.0164,0.0099,0.0034,0.0101,0.0135,0.0135,0.0269,0.0471,0.0775,0.0942,0.1277,0.1848,0.2511,0.3051,0.0,0.3491,0.3621,0.0,0.4181,0.4474,0.4517,0.478,0.498,0.5121,0.5232,0.5459,0.581,0.0,0.0,0.0,0.5608,0.5604,0.5699,0.5472,0.5378,0.5401,0.5096,0.4936,0.4798,0.4577,0.4384,0.4218,0.4132,0.3968,0.3805,0.3858,0.3833,0.3833,0.4021,0.4159,0.4273,0.4601,0.5042,0.5508,0.5887,0.6105,0.6273,0.6436,0.6625,0.6761,0.6761,0.6815,0.6896,0.6896,0.7058,0.7306,0.7526,0.7875,0.8215,0.848,0.8877,0.929,0.9543,0.0,0.0,0.0,0.0,0.0,0.0,0.8708,0.8466,0.0,0.7577,0.0,0.0,0.0,0.0,0.0,0.0,0.0,0.0,0.5213,0.0,0.541,0.5679,0.5812,0.5812,0.5812,0.5899,0.612,0.6776,0.7128,0.7199,0.7403,0.7396,0.7171,0.6942,0.6843,0.6765,0.6177,0.6205,0.6552,0.6051,0.6137,0.6506,-0.0942,-0.0943,-0.0943,-0.101,-0.0775,-0.0606,-0.0606,-0.037,-0.0135,0.0067,0.0337,0.0639,0.0975,0.1645,0.0,0.2837,0.3056,0.3203,0.3332,0.3736,0.3974,0.3974,0.4216,0.4389,0.4442,0.0,0.0,0.5053,0.5171,0.5173,0.5096,0.5185,0.5159,0.5056,0.5,0.4881,0.4743,0.4577,0.4467,0.4353,0.4135,0.3968,0.383,0.3747,0.3663,0.3613,0.3613,0.3613,0.361,0.3691,0.3774,0.3885,0.3996,0.4298,0.4708,0.523,0.5504,0.57,0.5941,0.6213,0.6463,0.6495,0.6598,0.6701,0.6761,0.6901,0.709,0.7263,0.7499,0.7741,0.7975,0.8401,0.8798,0.9047,0.0,0.9238,0.0,0.0,0.0,0.0,0.0,0.0,0.0,0.758,0.0,0.0,0.0,0.0,0.0,0.0,0.0,0.5193,0.5458,0.0,0.5609,0.5807,0.5873,0.5798,0.5927,0.6153,0.645,0.6976,0.7228,0.7308,0.7437,0.7423,0.7297,0.7106,0.704,0.7092,0.658,0.6703,0.7065,0.659,0.6675,0.6974,-0.2186,-0.2085,0.0,0.0,-0.1512,0.0,-0.1176,-0.0841,-0.0539,-0.0404,-0.0202,0.0067,0.0403,0.0854,0.1437,0.2202,0.0,0.0,0.0,0.3165,0.3413,0.3555,0.3688,0.0,0.3968,0.4082,0.4245,0.4463,0.4849,0.4987,0.4873,0.4987,0.4908,0.4664,0.4636,0.4467,0.4166,0.4138,0.3996,0.3741,0.3741,0.3688,0.3555,0.3555,0.3555,0.3555,0.3583,0.3583,0.3583,0.3585,0.3613,0.361,0.3744,0.3796,0.3907,0.4494,0.4853,0.5097,0.5226,0.5614,0.5978,0.6146,0.6413,0.6707,0.6825,0.6879,0.696,0.7209,0.7301,0.7393,0.7645,0.7973,0.8273,0.8526,0.8648,0.8825,0.9292,0.0,0.0,0.0,0.0,0.0,0.0,0.7145,0.757,0.0,0.0,0.0,0.0,0.0,0.0,0.5821,0.5803,0.5755,0.5651,0.585,0.5859,0.5679,0.6054,0.645,0.6801,0.7078,0.7313,0.7489,0.7489,0.7489,0.7489,0.7297,0.733,0.7456,0.706,0.7158,0.7465,0.708,0.7047,0.7185,0.0,0.0,-0.2452,-0.2316,-0.2182,-0.2048,-0.1951,-0.1716,-0.1514,-0.1312,-0.0908,-0.0471,-0.0134,0.0268,0.066,0.1056,0.1791,0.2286,0.2443,0.2699,0.2968,0.3216,0.3383,0.3552,0.3694,0.3722,0.3858,0.4104,0.4328,0.4467,0.4601,0.4467,0.4387,0.4304,0.4104,0.391,0.3724,0.3638,0.3469,0.3269,0.3269,0.3244,0.3216,0.3216,0.3216,0.3244,0.3385,0.3441,0.3471,0.3555,0.3613,0.3613,0.3638,0.3638,0.3749,0.4193,0.4467,0.468,0.4924,0.5226,0.5532,0.5818,0.6119,0.6364,0.6495,0.6625,0.6793,0.696,0.7323,0.7616,0.7695,0.7923,0.8173,0.8334,0.8424,0.8554,0.8745,0.0,0.0,0.0,0.7587,0.737,0.7197,0.7422,0.7343,0.0,0.0,0.0,0.0,0.0,0.5962,0.5949,0.5907,0.5942,0.6054,0.6257,0.6332,0.629,0.6553,0.6698,0.6805,0.7225,0.7446,0.7489,0.7489,0.7489,0.7489,0.7461,0.7456,0.7474,0.7227,0.7292,0.7465,0.7234,0.7258,0.7413,-0.342,-0.332,-0.3155,-0.3052,-0.2854,-0.2653,-0.2589,-0.2386,-0.2183,-0.1982,-0.1579,-0.1176,-0.0806,-0.0303,0.0134,0.0363,0.1185,0.1734,0.1827,0.2226,0.2575,0.2826,0.3105,0.333,0.3499,0.3555,0.3666,0.3805,0.3941,0.4052,0.4079,0.4052,0.3941,0.3833,0.3691,0.3524,0.3357,0.3299,0.3188,0.3102,0.3102,0.3102,0.3102,0.3102,0.3102,0.313,0.333,0.3413,0.3413,0.3555,0.3613,0.3613,0.3613,0.3613,0.3638,0.386,0.4052,0.4211,0.4432,0.4763,0.5152,0.5686,0.5955,0.6168,0.6359,0.649,0.6628,0.6905,0.7214,0.7506,0.7591,0.7778,0.7931,0.801,0.7886,0.7864,0.8139,0.7747,0.0,0.7615,0.7387,0.7229,0.7259,0.7447,0.7367,0.6942,0.0,0.0,0.6594,0.6421,0.6313,0.6329,0.6314,0.637,0.6487,0.6596,0.6694,0.6818,0.6936,0.704,0.714,0.7389,0.7489,0.7489,0.7489,0.7489,0.7489,0.7489,0.7489,0.7479,0.737,0.7394,0.7479,0.7365,0.7394,0.7489,-0.4389,-0.4156,-0.3959,-0.3925,-0.3558,-0.3224,-0.319,-0.3021,-0.2818,-0.2651,-0.2251,-0.1816,-0.1446,-0.0807,-0.0303,-0.0067,0.0608,0.1069,0.1219,0.1745,0.2156,0.241,0.2798,0.3105,0.3357,0.3527,0.3613,0.3613,0.3716,0.3688,0.3583,0.3688,0.3605,0.3357,0.3357,0.3246,0.3077,0.3077,0.3049,0.3021,0.3021,0.2993,0.2963,0.2993,0.3021,0.3049,0.3246,0.3332,0.3357,0.3527,0.3583,0.3583,0.3585,0.3613,0.3613,0.3613,0.3691,0.3796,0.3938,0.4328,0.4857,0.5517,0.5841,0.6032,0.6273,0.6405,0.6566,0.6894,0.7128,0.7307,0.7443,0.7581,0.7637,0.7522,0.7235,0.7123,0.7474,0.0,0.6812,0.7246,0.7141,0.7022,0.7022,0.7207,0.733,0.733,0.7095,0.0,0.0,0.6991,0.6793,0.6822,0.6795,0.681,0.6868,0.6897,0.7031,0.7232,0.7232,0.7323,0.7489,0.7489,0.7489,0.7489,0.7489,0.7489,0.7489,0.7489,0.7489,0.7489,0.7489,0.7489,0.7489,0.7489,0.7489,0.7489,-0.4761,-0.4694,-0.4595,-0.4492,-0.4392,-0.4292,-0.412,-0.3823,-0.3625,-0.3589,-0.2852,-0.2183,-0.1849,-0.1311,-0.0774,-0.0303,0.0032,0.04,0.092,0.116,0.1513,0.2043,0.2408,0.277,0.313,0.3441,0.3613,0.3613,0.361,0.3555,0.3441,0.3441,0.3355,0.316,0.316,0.3079,0.2942,0.2942,0.2802,0.2603,0.2603,0.2491,0.235,0.2519,0.2603,0.2633,0.2886,0.2972,0.3028,0.3332,0.3441,0.3444,0.3555,0.3613,0.3613,0.3613,0.361,0.3663,0.3799,0.4242,0.477,0.5128,0.5513,0.5873,0.6032,0.6411,0.6743,0.6805,0.72,0.7507,0.7345,0.7443,0.7347,0.6776,0.6868,0.6935,0.0,0.0,0.6979,0.7276,0.6879,0.6596,0.6596,0.653,0.6478,0.6478,0.6691,0.6912,0.7052,0.7087,0.7202,0.7374,0.7017,0.6906,0.7142,0.7313,0.7413,0.7441,0.7441,0.746,0.7489,0.7489,0.7489,0.7489,0.7489,0.7489,0.7489,0.7489,0.7489,0.7489,0.7489,0.7489,0.7489,0.7489,0.7489,0.7489,-0.5256,-0.509,-0.4924,-0.4891,-0.4794,-0.4661,-0.4592,-0.4428,-0.4261,-0.4097,-0.3525,-0.2954,-0.2386,-0.1747,-0.1211,-0.0774,-0.0383,0.0,0.0401,0.0786,0.115,0.1513,0.1989,0.249,0.3074,0.3357,0.3499,0.3499,0.3499,0.3413,0.3244,0.3244,0.3163,0.2996,0.2996,0.2884,0.2691,0.2691,0.2549,0.2324,0.2324,0.2296,0.2212,0.2437,0.2493,0.2521,0.2805,0.2888,0.2944,0.3274,0.3413,0.3413,0.3555,0.3613,0.3613,0.3613,0.3613,0.3638,0.3771,0.4049,0.4411,0.4798,0.5156,0.5538,0.5946,0.6294,0.6625,0.6937,0.7267,0.7463,0.7359,0.737,0.7266,0.6831,0.6561,0.0,0.0,0.6481,0.6523,0.694,0.6748,0.6648,0.6749,0.671,0.6733,0.6822,0.7007,0.7145,0.7212,0.73,0.7394,0.7489,0.7277,0.7225,0.7351,0.7441,0.7489,0.7489,0.7489,0.7489,0.7489,0.7489,0.7489,0.7489,0.7489,0.7489,0.7489,0.7489,0.7489,0.7489,0.7489,0.7489,0.7489,0.7489,0.7489,0.7489,-0.5617,-0.5352,-0.5156,-0.5156,-0.5027,-0.493,-0.493,-0.4897,-0.4764,-0.4467,-0.4095,-0.3558,-0.2854,-0.2151,-0.158,-0.1143,-0.0675,-0.0342,-0.0123,0.0352,0.0763,0.1038,0.1653,0.2294,0.2935,0.316,0.3299,0.333,0.333,0.3246,0.3049,0.3049,0.2968,0.2805,0.2805,0.2663,0.2437,0.2437,0.2324,0.2155,0.2155,0.2128,0.2128,0.2326,0.2408,0.2465,0.2719,0.2833,0.2916,0.3218,0.333,0.3357,0.3555,0.3613,0.3613,0.3613,0.3613,0.361,0.3716,0.3855,0.4049,0.4439,0.477,0.5171,0.58,0.614,0.6479,0.7021,0.7286,0.7395,0.7377,0.7323,0.721,0.6816,0.0,0.0,0.0,0.6202,0.6167,0.6656,0.6647,0.6696,0.6844,0.6876,0.6967,0.7181,0.7277,0.7387,0.7404,0.7468,0.7489,0.7489,0.7489,0.7489,0.7489,0.7489,0.7489,0.7489,0.7489,0.7489,0.7489,0.7489,0.7489,0.7489,0.7489,0.7489,0.7489,0.7489,0.7489,0.7489,0.7489,0.7489,0.7489,0.7489,0.7489,0.7489,-0.565,-0.5488,-0.5395,-0.5395,-0.5362,-0.5362,-0.5362,-0.5193,-0.499,-0.4797,-0.4295,-0.3727,-0.3056,-0.2488,-0.1884,-0.1176,-0.0884,-0.0668,-0.0464,-0.0299,0.0116,0.0871,0.1624,0.2183,0.2549,0.2796,0.2991,0.313,0.313,0.3049,0.2916,0.2916,0.2775,0.2521,0.2521,0.241,0.2212,0.2212,0.2155,0.2015,0.2015,0.1934,0.1853,0.1989,0.2127,0.224,0.2465,0.2607,0.2747,0.3021,0.313,0.3188,0.3499,0.3613,0.3613,0.3613,0.3613,0.3613,0.361,0.3719,0.3852,0.4021,0.4384,0.4869,0.5335,0.5935,0.6483,0.6835,0.7214,0.7445,0.7254,0.7327,0.711,0.6219,0.0,0.0,0.6022,0.6142,0.6385,0.6676,0.6544,0.6418,0.6433,0.6501,0.662,0.6837,0.7076,0.7302,0.7488,0.7484,0.7489,0.7489,0.7489,0.7489,0.7489,0.7489,0.7489,0.7489,0.7489,0.7489,0.7489,0.7489,0.7489,0.7489,0.7489,0.7489,0.7489,0.7489,0.7489,0.7489,0.7489,0.7489,0.7489,0.7489,0.7489,0.7489,-0.5818,-0.5653,-0.5488,-0.5425,-0.5395,-0.5395,-0.5395,-0.5326,-0.5226,-0.5024,-0.4625,-0.4159,-0.3558,-0.2787,-0.2116,-0.1648,-0.1115,-0.0765,-0.0681,-0.051,-0.0116,0.0562,0.1065,0.1512,0.193,0.2294,0.2545,0.2715,0.28,0.2772,0.2663,0.2663,0.2521,0.2324,0.2324,0.2212,0.2071,0.2071,0.1989,0.1878,0.1878,0.1852,0.1825,0.1961,0.2071,0.224,0.2437,0.2577,0.2747,0.3021,0.3102,0.316,0.3499,0.3613,0.3613,0.3613,0.3613,0.3613,0.3613,0.3638,0.3719,0.3855,0.4141,0.456,0.5144,0.5761,0.6341,0.6797,0.7214,0.7389,0.7031,0.6995,0.6835,0.6231,0.0,0.6284,0.612,0.6168,0.632,0.6551,0.6386,0.6382,0.6615,0.6563,0.6643,0.7017,0.7147,0.7275,0.7479,0.7489,0.7489,0.7489,0.7489,0.7489,0.7489,0.7489,0.7489,0.7489,0.7489,0.7489,0.7489,0.7489,0.7489,0.7489,0.7489,0.7489,0.7489,0.7489,0.7489,0.7489,0.7489,0.7489,0.7489,0.7489,0.7489,0.7489,-0.5954,-0.5752,-0.555,-0.5428,-0.5395,-0.5395,-0.5395,-0.5395,-0.5296,-0.5024,-0.4791,-0.4392,-0.3692,-0.2954,-0.2318,-0.1849,-0.1257,-0.0873,-0.0879,-0.0724,-0.0377,0.0197,0.0561,0.0925,0.1315,0.1708,0.2045,0.2268,0.241,0.2465,0.2408,0.2408,0.2296,0.2127,0.2127,0.2071,0.1933,0.1933,0.1878,0.1797,0.1797,0.1797,0.1797,0.1906,0.2017,0.2155,0.2352,0.2493,0.2689,0.2993,0.3102,0.316,0.3499,0.3613,0.3613,0.3613,0.3613,0.3613,0.3613,0.3613,0.361,0.3716,0.3926,0.4292,0.4847,0.5488,0.6113,0.6565,0.7011,0.7194,0.6857,0.6791,0.6679,0.6356,0.6299,0.6276,0.6214,0.6205,0.6252,0.6393,0.629,0.6313,0.6571,0.6614,0.6723,0.704,0.7213,0.7346,0.7484,0.7489,0.7489,0.7489,0.7489,0.7489,0.7489,0.7489,0.7489,0.7489,0.7489,0.7489,0.7489,0.7489,0.7489,0.7489,0.7489,0.7489,0.7489,0.7489,0.7489,0.7489,0.7489,0.7531,0.7593,0.7593,0.7593,0.7593,-0.5954,-0.5752,-0.555,-0.5428,-0.5395,-0.5395,-0.5395,-0.5395,-0.5263,-0.4864,-0.4797,-0.4395,-0.3326,-0.2889,-0.2418,-0.1681,-0.1277,-0.1064,-0.1002,-0.0946,-0.0697,-0.0225,0.0168,0.0477,0.0701,0.1094,0.1457,0.179,0.193,0.2071,0.2212,0.2212,0.2127,0.1987,0.1987,0.1933,0.1797,0.1797,0.1797,0.1797,0.1797,0.1797,0.1797,0.1797,0.1878,0.2015,0.2155,0.2324,0.2549,0.2963,0.3102,0.316,0.3499,0.3613,0.3613,0.3613,0.3613,0.3613,0.3613,0.3613,0.3613,0.3613,0.3812,0.4083,0.4421,0.5116,0.5761,0.6045,0.6526,0.6884,0.6803,0.6796,0.6726,0.6539,0.6501,0.6431,0.6233,0.6205,0.6205,0.6205,0.6205,0.6205,0.6205,0.6548,0.6791,0.6791,0.7229,0.7489,0.7489,0.7489,0.7489,0.7489,0.7489,0.7489,0.7489,0.7489,0.7489,0.7489,0.7489,0.7489,0.7489,0.7489,0.7489,0.7489,0.7489,0.7489,0.7489,0.7489,0.7489,0.7493,0.7493,0.7626,0.7816,0.7816,0.7816,0.7816,-0.5958,-0.5855,-0.5723,-0.5462,-0.5395,-0.5395,-0.5395,-0.5292,-0.5156,-0.5024,-0.4694,-0.4231,-0.3694,-0.2954,-0.2318,-0.1849,-0.1379,-0.1087,-0.1005,-0.0934,-0.0842,-0.0702,-0.0364,-0.0084,0.0056,0.0449,0.0869,0.1317,0.157,0.185,0.2071,0.2071,0.1989,0.1852,0.1852,0.1824,0.1797,0.1797,0.1797,0.1797,0.1797,0.1797,0.1797,0.1797,0.1878,0.2015,0.2155,0.2324,0.2549,0.2858,0.3023,0.316,0.3499,0.3613,0.3613,0.3613,0.3613,0.3613,0.3613,0.3613,0.3613,0.3613,0.3727,0.3911,0.4095,0.4686,0.5312,0.5742,0.6247,0.6643,0.667,0.6785,0.6819,0.6607,0.6538,0.6483,0.6421,0.6294,0.6257,0.6393,0.629,0.6257,0.6398,0.6525,0.6661,0.6782,0.7229,0.7489,0.7489,0.7489,0.7489,0.7489,0.7489,0.7489,0.7489,0.7489,0.7489,0.7489,0.7489,0.7489,0.7489,0.7489,0.7489,0.7489,0.7489,0.7489,0.7489,0.7489,0.7579,0.7717,0.7717,0.7845,0.8025,0.8025,0.8025,0.8006,-0.5958,-0.5888,-0.5789,-0.5462,-0.5395,-0.5362,-0.5292,-0.519,-0.5024,-0.4824,-0.4431,-0.3961,-0.3424,-0.2753,-0.2151,-0.1715,-0.1299,-0.1039,-0.0991,-0.093,-0.09,-0.0899,-0.0701,-0.0533,-0.0393,-0.0028,0.0364,0.0757,0.1122,0.1458,0.1737,0.1849,0.1878,0.1797,0.1797,0.1797,0.1797,0.1797,0.1797,0.1797,0.1797,0.1797,0.1797,0.1797,0.1852,0.1934,0.2128,0.2268,0.2437,0.2775,0.3054,0.3244,0.3471,0.3555,0.3613,0.3613,0.3613,0.3613,0.3613,0.3613,0.3613,0.3613,0.3698,0.3812,0.3902,0.4383,0.4901,0.5209,0.5705,0.6078,0.6162,0.6321,0.6441,0.641,0.6287,0.6277,0.6392,0.6318,0.6314,0.6487,0.6473,0.6497,0.6619,0.6628,0.6713,0.693,0.7304,0.7489,0.7489,0.7489,0.7489,0.7489,0.7489,0.7489,0.7489,0.7489,0.7489,0.7489,0.7489,0.7489,0.7489,0.7489,0.7489,0.7484,0.7403,0.7418,0.7489,0.7489,0.7617,0.7821,0.7902,0.8023,0.8207,0.8207,0.8207,0.8188,-0.5958,-0.5888,-0.5789,-0.5462,-0.5395,-0.5326,-0.512,-0.509,-0.4858,-0.4331,-0.4064,-0.3591,-0.2753,-0.2354,-0.1918,-0.1344,-0.1115,-0.0989,-0.099,-0.093,-0.09,-0.0899,-0.0898,-0.0842,-0.0729,-0.0421,-0.0112,0.0168,0.0617,0.101,0.129,0.1628,0.1797,0.1797,0.1797,0.1797,0.1797,0.1797,0.1797,0.1797,0.1797,0.1797,0.1797,0.1797,0.1797,0.1825,0.21,0.2184,0.2268,0.2747,0.3109,0.3385,0.3385,0.3499,0.3613,0.3613,0.3613,0.3613,0.3613,0.3613,0.3613,0.3613,0.369,0.3796,0.3796,0.4118,0.4454,0.457,0.4975,0.5381,0.546,0.5651,0.5837,0.6016,0.5897,0.5901,0.6249,0.6294,0.6366,0.6501,0.6674,0.6791,0.6791,0.6824,0.6962,0.7228,0.7432,0.7546,0.7546,0.7546,0.7546,0.7546,0.7527,0.7522,0.7522,0.7498,0.7489,0.7489,0.7489,0.7489,0.7489,0.7512,0.7522,0.7508,0.7323,0.7361,0.7546,0.7527,0.766,0.7853,0.8072,0.824,0.8429,0.8429,0.8429,0.8425,-0.5958,-0.5888,-0.5789,-0.5462,-0.5395,-0.5326,-0.512,-0.4888,-0.4558,-0.4128,-0.356,-0.3021,-0.2517,-0.2016,-0.1614,-0.1311,-0.1115,-0.0989,-0.099,-0.093,-0.09,-0.0899,-0.0898,-0.0898,-0.087,-0.0673,-0.0421,-0.0112,0.0308,0.0729,0.115,0.1487,0.1713,0.1797,0.1797,0.1797,0.1797,0.1797,0.1797,0.1797,0.1797,0.1797,0.1797,0.1797,0.1797,0.1825,0.1989,0.2099,0.2268,0.2747,0.3026,0.3188,0.3357,0.3499,0.3613,0.3613,0.3613,0.3613,0.3613,0.3613,0.3613,0.3613,0.363,0.3649,0.3649,0.3806,0.405,0.4439,0.4698,0.4955,0.5349,0.5549,0.5643,0.5708,0.5769,0.5875,0.6123,0.6246,0.6364,0.6568,0.6699,0.6791,0.6791,0.714,0.7451,0.766,0.7864,0.7978,0.7978,0.7978,0.7978,0.7978,0.7826,0.7745,0.7745,0.7574,0.7489,0.7489,0.7489,0.7489,0.7493,0.7669,0.7745,0.774,0.7698,0.7792,0.7968,0.7811,0.7929,0.8274,0.8316,0.8458,0.8637,0.8637,0.8637,0.8614,-0.6086,-0.5954,-0.5822,-0.5557,-0.5458,-0.5292,-0.499,-0.4758,-0.4395,-0.383,-0.3226,-0.2686,-0.2217,-0.1747,-0.1372,-0.1189,-0.1061,-0.0999,-0.0969,-0.0909,-0.0914,-0.0898,-0.0911,-0.089,-0.089,-0.0875,-0.0724,-0.0449,-0.0056,0.0308,0.0673,0.115,0.1443,0.161,0.1781,0.1837,0.1837,0.1837,0.1822,0.1797,0.1797,0.1797,0.1797,0.1797,0.1797,0.1825,0.1961,0.2155,0.238,0.2691,0.294,0.313,0.3216,0.3413,0.3613,0.3613,0.3613,0.3613,0.3613,0.3613,0.3613,0.3613,0.3613,0.3613,0.3613,0.3663,0.3787,0.4155,0.4333,0.4572,0.4943,0.5123,0.5256,0.5352,0.5327,0.5452,0.5824,0.6005,0.6226,0.6559,0.6835,0.6982,0.6977,0.7371,0.765,0.7669,0.7949,0.8115,0.8115,0.8115,0.8115,0.8115,0.8011,0.7959,0.7959,0.7845,0.7788,0.7783,0.7584,0.7546,0.7645,0.7861,0.8005,0.8097,0.8093,0.8206,0.8393,0.8285,0.8397,0.87,0.8807,0.8877,0.8975,0.8975,0.8975,0.896,-0.6214,-0.605,-0.5888,-0.565,-0.5521,-0.5292,-0.4864,-0.4694,-0.4328,-0.3563,-0.2989,-0.2452,-0.1916,-0.1474,-0.1192,-0.1003,-0.1001,-0.097,-0.0915,-0.0914,-0.0898,-0.0898,-0.0897,-0.0913,-0.0913,-0.0973,-0.0901,-0.0736,-0.0396,-0.0113,0.014,0.0757,0.1142,0.1385,0.1707,0.1882,0.1911,0.1911,0.1849,0.1797,0.1797,0.1797,0.1797,0.1797,0.1797,0.1825,0.1933,0.2184,0.2465,0.2635,0.2884,0.3102,0.3102,0.333,0.3613,0.3613,0.3613,0.3613,0.3613,0.3613,0.3613,0.3613,0.3613,0.3619,0.3635,0.3641,0.3675,0.386,0.4047,0.4256,0.4518,0.4631,0.4764,0.4924,0.4863,0.4916,0.5392,0.5715,0.6069,0.6506,0.7001,0.7302,0.7361,0.7693,0.7815,0.765,0.7981,0.8188,0.8188,0.8188,0.8188,0.8188,0.8151,0.8132,0.8132,0.8134,0.8115,0.811,0.7764,0.7693,0.7903,0.8108,0.8329,0.8492,0.8513,0.8628,0.8806,0.8766,0.8877,0.9054,0.9251,0.9284,0.9284,0.9284,0.9284,0.9284,-0.6214,-0.6181,-0.6046,-0.565,-0.5583,-0.5388,-0.4894,-0.4694,-0.4259,-0.336,-0.2787,-0.2251,-0.1715,-0.1285,-0.1038,-0.1002,-0.0951,-0.0918,-0.0914,-0.0914,-0.0898,-0.0898,-0.0897,-0.0913,-0.0913,-0.0973,-0.0971,-0.0878,-0.0585,-0.0346,-0.014,0.0477,0.0914,0.1238,0.1591,0.1796,0.1911,0.1911,0.1849,0.1797,0.1797,0.1797,0.1797,0.1797,0.1797,0.1797,0.1825,0.2018,0.2296,0.2605,0.2884,0.3102,0.3102,0.333,0.3613,0.3613,0.3613,0.3613,0.3613,0.3613,0.3613,0.3613,0.3613,0.3638,0.3736,0.3761,0.3799,0.3876,0.402,0.4166,0.4309,0.4367,0.4367,0.4398,0.4547,0.4701,0.4866,0.5493,0.6023,0.6379,0.7174,0.7792,0.7973,0.8174,0.8307,0.8278,0.8491,0.8618,0.8618,0.8618,0.8618,0.8618,0.8448,0.8359,0.8359,0.8174,0.8115,0.8115,0.8058,0.8119,0.8343,0.8524,0.8726,0.8932,0.8902,0.9018,0.9215,0.9018,0.9069,0.9281,0.9273,0.9284,0.9284,0.9284,0.9284,0.9284,-0.6317,-0.6247,-0.6115,-0.5818,-0.5683,-0.5451,-0.5024,-0.4758,-0.4301,-0.3514,-0.2821,-0.2219,-0.1702,-0.1269,-0.097,-0.0954,-0.0928,-0.0906,-0.089,-0.0905,-0.0898,-0.0898,-0.0897,-0.0913,-0.0913,-0.0958,-0.0999,-0.0969,-0.0802,-0.0643,-0.0461,-0.0028,0.0432,0.0877,0.13,0.1616,0.1856,0.1915,0.1927,0.1841,0.1809,0.1797,0.1797,0.1797,0.1797,0.1825,0.1964,0.2102,0.2268,0.2663,0.294,0.313,0.3244,0.3413,0.3613,0.3613,0.3613,0.3613,0.3613,0.3613,0.3613,0.3613,0.366,0.3739,0.3827,0.396,0.4056,0.4008,0.4048,0.4156,0.4278,0.43,0.43,0.43,0.4367,0.452,0.4727,0.5213,0.5855,0.6601,0.7238,0.7675,0.7761,0.7947,0.8065,0.8065,0.8251,0.8365,0.8365,0.8365,0.8403,0.8513,0.8321,0.8275,0.8388,0.8184,0.8176,0.8282,0.8388,0.8478,0.8553,0.8667,0.8937,0.9346,0.9332,0.9448,0.9614,0.9542,0.9563,0.962,0.962,0.962,0.9657,0.9771,0.9733,0.9657]},{"header":{"parameterUnit":"m.s-1","parameterCategory":1,"la1":30.6,"la2":28.766,"lo1":-90.7593,"lo2":-88.6598,"dy":0.0162,"dx":0.0183,"nx":116,"ny":114,"refTime":"2023-10-16T18:00:00:Z","depth":0,"parameterNumber":3,"parameterNumberName":"V-component_of_WINDS"},"data":[0.0,0.0,0.0,0.0,0.0,0.0,0.0,0.0,0.0,0.0,0.0,0.0,0.0,0.0,0.0,0.0,0.0,0.0,0.0,0.0,0.0,0.0,0.0,0.0,0.0,0.0,0.0,0.0,0.0,0.0,0.0,0.0,0.0,0.0,0.0,0.0,0.0,0.0,0.0,0.0,0.0,0.0,0.0,0.0,0.0,0.0,0.0,0.0,0.0,0.0,0.0,0.0,0.0,0.0,0.0,0.0,0.0,0.0,0.0,0.0,0.0,0.0,0.0,0.0,0.0,0.0,0.0,0.0,0.0,0.0,0.0,0.0,0.0,0.0,0.0,0.0,0.0,0.0,0.0,0.0,0.0,0.0,0.0,0.0,0.0,0.0,0.0,0.0,0.0,0.0,0.0,0.0,0.0,0.0,0.0,0.0,0.0,0.0,0.0,0.0,0.0,0.0,0.0,0.0,0.0,0.0,0.0,0.0,0.0,0.0,0.0,0.0,0.0,0.0,0.0,0.0,0.0,0.0,0.0,0.0,0.0,0.0,0.0,0.0,0.0,0.0,0.0,0.0,0.0,0.0,0.0,0.0,0.0,0.0,0.0,0.0,0.0,0.0,0.0,0.0,0.0,0.0,0.0,0.0,0.0,0.0,0.0,0.0,0.0,0.0,0.0,0.0,0.0,0.0,0.0,0.0,0.0,0.0,0.0,0.0,0.0,0.0,0.0,0.0,0.0,0.0,0.0,0.0,0.0,0.0,0.0,0.0,0.0,0.0,0.0,0.0,0.0,0.0,0.0,0.0,0.0,0.0,0.0,0.0,0.0,0.0,0.0,0.0,0.0,0.0,0.0,0.0,0.0,0.0,0.0,0.0,0.0,0.0,0.0,0.0,0.0,0.0,0.0,0.0,0.0,0.0,0.0,0.0,0.0,0.0,0.0,0.0,0.0,0.0,0.0,0.0,0.0,0.0,0.0,0.0,0.0,0.0,0.0,0.0,0.0,0.0,0.0,0.0,0.0,0.0,0.0,0.0,0.0,0.0,0.0,0.0,0.0,0.0,0.0,0.0,0.0,0.0,0.0,0.0,0.0,0.0,0.0,0.0,0.0,0.0,0.0,0.0,0.0,0.0,0.0,0.0,0.0,0.0,0.0,0.0,0.0,0.0,0.0,0.0,0.0,0.0,0.0,0.0,0.0,0.0,0.0,0.0,0.0,0.0,0.0,0.0,0.0,0.0,0.0,0.0,0.0,0.0,0.0,0.0,0.0,0.0,0.0,0.0,0.0,0.0,0.0,0.0,0.0,0.0,0.0,0.0,0.0,0.0,0.0,0.0,0.0,0.0,0.0,0.0,0.0,0.0,0.0,0.0,0.0,0.0,0.0,0.0,0.0,0.0,0.0,0.0,0.0,0.0,0.0,0.0,0.0,0.0,0.0,0.0,0.0,0.0,0.0,0.0,0.0,0.0,0.0,0.0,0.0,0.0,0.0,0.0,0.0,0.0,0.0,0.0,0.0,0.0,0.0,0.0,0.0,0.0,0.0,0.0,0.0,0.0,0.0,0.0,0.0,0.0,0.0,0.0,0.0,0.0,0.0,0.0,0.0,0.0,0.0,0.0,0.0,0.0,0.0,0.0,0.0,0.0,0.0,0.0,0.0,0.0,0.0,0.0,0.0,0.0,0.0,0.0,0.0,0.0,0.0,0.0,0.0,0.0,0.0,0.0,0.0,0.0,0.0,0.0,0.0,0.0,0.0,0.0,0.0,0.0,0.0,0.0,0.0,0.0,0.0,0.0,0.0,0.0,0.0,0.0,0.0,0.0,0.0,0.0,0.0,0.0,0.0,0.0,0.0,0.0,0.0,0.0,0.0,0.0,0.0,0.0,0.0,0.0,0.0,0.0,0.0,0.0,0.0,0.0,0.0,0.0,0.0,0.0,0.0,0.0,0.0,0.0,0.0,0.0,0.0,0.0,0.0,0.0,0.0,0.0,0.0,0.0,0.0,0.0,0.0,0.0,0.0,0.0,0.0,0.0,0.0,0.0,0.0,0.0,0.0,0.0,0.0,0.0,0.0,0.0,0.0,0.0,0.0,0.0,0.0,0.0,0.0,0.0,0.0,0.0,0.0,0.0,0.0,0.0,0.0,0.0,0.0,0.0,0.0,0.0,0.0,0.0,0.0,0.0,0.0,0.0,0.0,0.0,0.0,0.0,0.0,0.0,0.0,0.0,0.0,0.0,0.0,0.0,0.0,0.0,0.0,0.0,0.0,0.0,0.0,0.0,0.0,0.0,0.0,0.0,0.0,0.0,0.0,0.0,0.0,0.0,0.0,0.0,0.0,0.0,0.0,0.0,0.0,0.0,0.0,0.0,0.0,0.0,0.0,0.0,0.0,0.0,0.0,0.0,0.0,0.0,0.0,0.0,0.0,0.0,0.0,0.0,0.0,0.0,0.0,0.0,0.0,0.0,0.0,0.0,0.0,0.0,0.0,0.0,0.0,0.0,0.0,0.0,0.0,0.0,0.0,0.0,0.0,0.0,0.0,0.0,0.0,0.0,0.0,0.0,0.0,0.0,0.0,0.0,0.0,0.0,0.0,0.0,0.0,0.0,0.0,0.0,0.0,0.0,0.0,0.0,0.0,0.0,0.0,0.0,0.0,0.0,0.0,0.0,0.0,0.0,0.0,0.0,0.0,0.0,0.0,0.0,0.0,0.0,0.0,0.0,0.0,0.0,0.0,0.0,0.0,0.0,0.0,0.0,0.0,0.0,0.0,0.0,0.0,0.0,0.0,0.0,0.0,0.0,0.0,0.0,0.0,0.0,0.0,0.0,0.0,0.0,0.0,0.0,0.0,0.0,0.0,0.0,0.0,0.0,0.0,0.0,0.0,0.0,0.0,0.0,0.0,0.0,0.0,0.0,0.0,0.0,0.0,0.0,0.0,0.0,0.0,0.0,0.0,0.0,0.0,0.0,0.0,0.0,0.0,0.0,0.0,0.0,0.0,0.0,0.0,0.0,0.0,0.0,0.0,0.0,0.0,0.0,0.0,0.0,0.0,0.0,0.0,0.0,0.0,0.0,0.0,0.0,0.0,0.0,0.0,0.0,0.0,0.0,0.0,0.0,0.0,0.0,0.0,0.0,0.0,0.0,0.0,0.0,0.0,0.0,0.0,0.0,0.0,0.0,0.0,0.0,0.0,0.0,0.0,0.0,0.0,0.0,0.0,0.0,0.0,0.0,0.0,0.0,0.0,0.0,0.0,0.0,0.0,0.0,0.0,0.0,0.0,0.0,0.0,0.0,0.0,0.0,0.0,0.0,0.0,0.0,0.0,0.0,0.0,0.0,0.0,0.0,0.0,0.0,0.0,0.0,0.0,0.0,0.0,0.0,0.0,0.0,0.0,0.0,0.0,0.0,0.0,0.0,0.0,0.0,0.0,0.0,0.0,0.0,0.0,0.0,0.0,0.0,0.0,0.0,0.0,0.0,0.0,0.0,0.0,0.0,0.0,0.0,0.0,0.0,0.0,0.0,0.0,0.0,0.0,0.0,0.0,0.0,0.0,0.0,0.0,0.0,0.0,0.0,0.0,0.0,0.0,0.0,0.0,0.0,0.0,0.0,0.0,0.0,0.0,0.0,0.0,0.0,0.0,0.0,0.0,0.0,0.0,0.0,0.0,0.0,0.0,0.0,0.0,0.0,0.0,0.0,0.0,0.0,0.0,0.0,0.0,0.0,0.0,0.0,0.0,0.0,0.0,0.0,0.0,0.0,0.0,0.0,0.0,0.0,0.0,0.0,0.0,0.0,0.0,0.0,0.0,0.0,0.0,0.0,0.0,0.0,0.0,0.0,0.0,0.0,0.0,0.0,0.0,0.0,0.0,0.0,0.0,0.0,0.0,0.0,0.0,0.0,0.0,0.0,0.0,0.0,0.0,0.0,0.0,0.0,0.0,0.0,0.0,0.0,0.0,0.0,0.0,0.0,0.0,0.0,0.0,0.0,0.0,0.0,0.0,0.0,0.0,0.0,0.0,0.0,0.0,0.0,0.0,0.0,0.0,0.0,0.0,0.0,0.0,0.0,0.0,0.0,0.0,0.0,0.0,0.0,0.0,0.0,0.0,0.0,0.0,0.0,0.0,0.0,0.0,0.0,0.0,0.0,0.0,0.0,0.0,0.0,0.0,0.0,0.0,0.0,0.0,0.0,0.0,0.0,0.0,0.0,0.0,0.0,0.0,0.0,0.0,0.0,0.0,0.0,0.0,0.0,0.0,0.0,0.0,0.0,0.0,0.0,0.0,0.0,0.0,0.0,0.0,0.0,0.0,0.0,0.0,0.0,0.0,0.0,0.0,0.0,0.0,0.0,0.0,0.0,0.0,0.0,0.0,0.0,0.0,0.0,0.0,0.0,0.0,0.0,0.0,0.0,0.0,0.0,0.0,0.0,0.0,0.0,0.0,0.0,0.0,0.0,0.0,0.0,0.0,0.0,0.0,0.0,0.0,0.0,0.0,0.0,0.0,0.0,0.0,0.0,0.0,0.0,0.0,0.0,0.0,0.0,0.0,0.0,0.0,0.0,0.0,0.0,0.0,0.0,0.0,0.0,0.0,0.0,0.0,0.0,0.0,0.0,0.0,0.0,0.0,0.0,0.0,0.0,0.0,0.0,0.0,0.0,0.0,0.0,0.0,0.0,0.0,0.0,0.0,0.0,0.0,0.0,0.0,0.0,0.0,0.0,0.0,0.0,0.0,0.0,0.0,0.0,0.0,0.0,0.0,0.0,0.0,0.0,0.0,0.0,0.0,0.0,0.0,0.0,0.0,0.0,0.0,0.0,0.0,0.0,0.0,0.0,0.0,0.0,0.0,0.0,0.0,0.0,0.0,0.0,0.0,0.0,0.0,0.0,0.0,0.0,0.0,0.0,0.0,0.0,0.0,0.0,0.0,0.0,0.0,0.0,0.0,0.0,0.0,0.0,0.0,0.0,0.0,0.0,0.0,0.0,0.0,0.0,0.0,0.0,0.0,0.0,0.0,0.0,0.0,0.0,0.0,0.0,0.0,0.0,0.0,0.0,0.0,0.0,0.0,0.0,0.0,0.0,0.0,0.0,0.0,0.0,0.0,0.0,0.0,0.0,0.0,0.0,0.0,0.0,0.0,0.0,0.0,0.0,0.0,0.0,0.0,0.0,0.0,0.0,0.0,0.0,0.0,0.0,0.0,0.0,0.0,0.0,0.0,0.0,0.0,0.0,0.0,0.0,0.0,0.0,0.0,0.0,0.0,0.0,0.0,0.0,0.0,0.0,0.0,0.0,0.0,0.0,0.0,0.0,0.0,0.0,0.0,0.0,0.0,0.0,0.0,0.0,0.0,0.0,0.0,0.0,0.0,0.0,0.0,0.0,0.0,0.0,0.0,0.0,0.0,0.0,0.0,0.0,0.0,0.0,0.0,0.0,0.0,0.0,0.0,0.0,0.0,0.0,0.0,0.0,0.0,0.0,0.0,0.0,0.0,0.0,0.0,0.0,0.0,0.0,0.0,0.0,0.0,0.0,0.0,0.0,0.0,0.0,0.0,0.0,0.0,0.0,0.0,0.0,0.0,0.0,0.0,0.0,0.0,0.0,0.0,0.0,0.0,0.0,0.0,0.0,0.0,0.0,0.0,0.0,0.0,0.0,0.0,0.0,0.0,0.0,0.0,0.0,0.0,0.0,0.0,0.0,0.0,0.0,0.0,0.0,0.0,0.0,0.0,0.0,0.0,0.0,0.0,0.0,0.0,0.0,0.0,0.0,0.0,0.0,0.0,0.0,0.0,0.0,0.0,0.0,0.0,0.0,0.0,0.0,0.0,0.0,0.0,0.0,0.0,0.0,0.0,0.0,0.0,0.0,0.0,0.0,0.0,0.0,0.0,0.0,0.0,0.0,0.0,0.0,0.0,0.0,0.0,0.0,0.0,0.0,0.0,0.0,0.0,0.0,0.0,0.0,0.0,0.0,0.0,0.0,0.0,0.0,0.0,0.0,0.0,0.0,0.0,0.0,0.0,0.0,0.0,0.0,0.0,0.0,0.0,0.0,0.0,0.0,0.0,0.0,0.0,0.0,0.0,0.0,0.0,0.0,0.9295,0.0,0.0,0.0,0.0,0.0,0.0,0.0,0.0,0.0,0.0,0.0,0.0,0.0,0.0,0.0,0.0,0.0,0.0,0.0,0.0,0.0,0.0,0.0,0.0,0.0,0.0,0.0,0.0,0.0,0.0,0.0,0.0,0.0,0.0,0.0,0.0,0.0,0.0,0.0,0.0,0.0,0.0,0.0,0.0,0.0,0.0,0.0,0.0,0.0,0.0,0.0,0.0,0.0,0.0,0.0,0.0,0.0,0.0,0.0,0.0,0.0,0.0,0.0,0.0,0.0,0.0,0.0,0.0,0.0,0.0,0.0,0.0,0.0,0.0,0.0,0.0,0.0,0.0,0.0,0.0,0.0,0.0,0.0,0.0,0.0,0.0,0.0,0.0,0.0,0.0,0.0,0.0,0.0,0.0,0.0,0.0,0.0,0.0,0.0,0.0,0.0,0.0,0.0,0.0,0.0,0.0,0.0,0.0,0.0,0.0,0.0,0.0,0.0,0.0,0.0,0.0,1.0402,0.0,0.0,0.0,0.0,0.0,0.0,0.0,0.0,0.0,0.0,0.0,0.0,0.0,0.0,0.0,0.0,0.0,0.0,0.0,0.0,0.0,0.0,0.0,0.0,0.0,0.0,0.0,0.0,0.0,0.0,0.0,0.0,0.0,0.0,0.0,0.0,0.0,0.0,0.0,0.0,0.0,0.0,0.0,0.0,0.0,0.0,0.0,0.0,0.0,0.0,0.0,0.0,0.0,0.0,0.0,0.0,0.0,0.0,0.0,0.0,0.0,0.0,0.0,0.0,0.0,0.0,0.0,0.0,0.0,0.0,0.0,0.0,0.0,0.0,0.0,0.0,0.0,0.0,0.0,0.0,0.0,0.0,0.0,0.0,0.0,0.0,0.0,0.0,0.0,0.0,0.0,0.0,0.0,0.0,0.0,0.0,0.0,0.0,0.0,0.0,0.0,0.0,0.0,0.0,0.0,0.0,0.0,0.0,0.0,1.3041,1.308,1.4001,1.482,1.5376,1.3398,1.2739,1.2963,0.0,0.0,0.0,0.0,0.0,0.0,0.0,0.0,0.0,0.0,0.0,0.0,0.0,0.0,0.0,0.0,0.0,0.0,0.0,0.0,0.0,0.0,0.0,0.0,0.0,0.0,0.0,0.0,0.0,0.0,0.0,0.0,0.0,0.0,0.0,0.0,0.0,0.0,0.0,0.915,1.0211,1.0834,1.1047,0.0,0.0,0.0,0.0,0.0,0.0,0.0,0.0,0.0,0.0,0.0,0.0,0.0,0.0,0.0,0.0,0.0,0.0,0.0,0.0,0.0,0.0,0.0,0.0,0.0,0.0,0.0,0.0,0.0,0.0,0.0,0.0,0.0,0.0,0.0,0.0,0.0,0.0,0.0,0.0,0.0,0.0,0.0,0.0,0.9811,1.0088,0.0,0.0,0.0,0.0,0.0,0.0,0.0,0.0,0.0,0.0,0.0,0.0,0.0,0.0,1.1758,1.2311,1.3082,1.4171,1.538,1.5983,1.6053,1.6935,1.7499,1.7751,1.7249,0.0,1.5603,1.434,0.0,0.0,0.0,0.0,0.0,0.0,0.0,0.0,0.0,0.0,0.0,0.0,0.0,0.0,0.0,0.0,0.0,0.0,0.0,0.0,0.0,0.0,0.0,0.0,0.0,0.0,0.0,0.0,0.0,0.0,0.0,0.0,0.0,0.0,0.0,0.0,0.7951,0.9255,0.9554,1.1041,1.204,1.2627,1.2489,1.198,1.1202,1.0566,0.0,0.0,0.0,0.0,0.0,0.0,0.0,0.0,0.0,0.0,0.0,0.0,0.0,0.0,0.0,0.0,0.0,0.0,0.0,0.0,0.0,0.0,0.0,0.0,0.0,0.0,0.0,0.0,0.0,0.0,0.0,0.0,0.0,0.0,0.0,0.0,0.0,0.0,0.0,0.8936,0.9312,0.9793,0.94,0.8917,0.0,0.0,0.0,0.0,0.0,0.0,0.0,0.0,0.0,1.104,1.1555,1.2463,1.3835,1.4198,1.4889,1.5958,1.6591,1.7201,1.7787,1.846,1.8838,1.9001,1.9234,1.9107,1.8572,1.6419,1.5389,1.5067,0.0,0.0,0.0,0.0,0.0,0.0,0.0,0.0,0.0,0.0,0.0,0.0,0.0,0.0,0.0,0.0,0.0,0.0,0.0,0.0,0.0,0.0,0.0,0.0,0.0,0.0,0.0,0.0,0.0,0.0,0.0,0.0,0.0,0.0,0.8403,0.9636,1.0167,1.1587,1.2708,1.3585,1.4149,1.37,1.2484,1.1526,1.0676,0.0,0.0,0.0,0.0,0.0,0.0,0.0,0.0,0.0,0.0,0.0,0.0,0.0,0.0,0.0,0.0,0.0,0.0,0.0,0.0,0.0,0.0,0.0,0.0,0.0,0.0,0.0,0.0,0.0,0.0,0.0,0.0,0.0,0.0,0.0,0.0,0.0,0.0,0.9309,0.9704,0.9982,0.9885,0.9494,0.0,0.0,0.0,0.0,0.0,0.0,0.9824,1.0433,1.1374,1.2624,1.3281,1.4184,1.5421,1.5698,1.6288,1.7179,1.7571,1.8154,1.8913,1.9499,1.9819,1.998,2.0478,2.0769,2.0705,1.8379,1.7324,1.7104,1.6458,1.6076,0.0,1.6296,1.6705,1.7144,0.0,0.0,0.0,0.0,0.0,0.0,0.0,0.0,0.0,0.0,0.0,0.0,0.0,0.0,0.0,0.0,0.0,0.0,0.0,0.0,0.0,0.0,0.0,0.0,0.0,0.0,0.0,0.0,0.0,0.0,0.0,0.0,0.0,0.0,0.0,0.0,0.0,1.3521,1.2442,1.0923,0.0,0.0,0.0,0.0,0.0,0.0,0.0,0.0,0.0,0.0,0.0,0.0,0.0,0.0,0.0,0.0,0.0,0.0,0.0,0.0,0.0,0.0,0.0,0.0,0.0,0.0,0.0,0.0,0.0,0.0,0.0,0.0,0.0,0.0,0.0,0.0,0.0,0.0,0.0,1.1471,1.1283,0.0,0.0,0.0,0.0,1.0262,1.0693,1.1185,1.173,1.2317,1.3043,1.3875,1.4247,1.4856,1.5764,1.6408,1.7046,1.7696,1.8783,1.9322,1.9386,2.0308,2.0803,2.0951,2.1103,2.1237,2.1294,2.0324,1.9537,1.8898,1.8303,1.7679,1.7258,1.8462,1.8927,1.9149,0.0,0.0,0.0,0.0,0.0,0.0,0.0,0.0,0.0,0.0,0.0,0.0,0.0,0.0,0.0,0.0,0.0,0.0,0.0,0.0,0.0,0.0,0.0,0.0,0.0,0.0,0.0,0.0,0.0,0.0,0.0,0.0,0.0,0.0,0.0,0.0,0.0,0.0,0.0,0.0,0.0,0.0,0.0,0.0,0.0,0.0,0.0,0.0,0.0,0.0,0.0,0.0,0.0,0.0,0.0,0.0,0.0,0.0,0.0,0.0,0.0,0.0,0.0,0.0,0.0,0.0,0.0,0.0,0.0,0.0,0.0,0.0,0.0,0.0,0.0,0.0,0.0,0.0,0.0,1.1865,1.2057,0.0,1.1135,1.1291,1.1373,1.1246,1.1975,1.2511,1.2737,1.3342,1.3891,1.4315,1.4971,1.5737,1.6563,1.7024,1.7682,1.8526,1.9038,1.9444,1.98,2.0394,2.0797,2.1019,2.1596,2.193,2.2025,2.2019,2.1355,2.0306,2.0088,1.9914,1.987,2.0761,2.1407,2.188,0.0,0.0,0.0,0.0,0.0,0.0,0.0,0.0,0.0,0.0,0.0,0.0,0.0,0.0,0.0,0.0,0.0,0.0,0.0,0.0,0.0,0.0,0.0,0.0,0.0,0.0,0.0,0.0,0.0,0.0,0.0,0.0,0.0,0.0,0.0,0.0,0.0,0.0,0.0,0.0,0.0,0.0,1.019,0.0,0.0,0.0,0.0,0.0,0.0,0.0,0.0,0.0,0.0,0.0,0.0,0.0,0.0,0.0,0.0,0.0,0.0,0.0,0.0,0.0,0.0,0.0,0.0,0.0,0.0,0.0,0.0,0.0,0.0,0.0,0.0,0.0,0.0,0.0,1.2731,1.2446,1.3101,1.3266,1.2529,1.3008,1.3307,1.3173,1.3584,1.3872,1.3916,1.4138,1.4372,1.4547,1.5423,1.6177,1.6803,1.7576,1.8267,1.8946,1.9246,1.9598,2.0016,2.0422,2.0747,2.1033,2.1841,2.2278,2.244,2.2925,2.2549,2.1719,2.1762,2.1831,2.1982,2.2658,2.326,2.3755,0.0,0.0,0.0,0.0,0.0,0.0,0.0,0.0,0.0,0.0,0.0,0.0,0.0,0.0,0.0,0.0,0.0,0.0,0.0,0.0,0.0,0.0,0.0,0.0,0.0,0.0,0.0,0.0,0.0,0.0,0.0,0.0,0.0,0.0,0.0,0.0,0.0,0.0,0.0,0.0,0.0,0.0,1.1771,0.0,0.0,0.0,0.0,0.0,0.0,0.0,0.0,0.0,0.0,0.0,0.0,0.0,0.0,0.0,0.0,0.0,0.0,0.0,0.0,0.0,0.0,0.0,0.0,0.0,0.0,0.0,0.0,0.0,0.0,0.0,0.0,0.0,1.0431,1.2541,1.3911,1.3347,1.4493,1.5319,1.5319,1.5211,1.5362,1.5949,1.5463,1.5186,1.5319,1.4772,1.4566,1.4775,1.5682,1.6256,1.6492,1.8069,1.8859,1.8884,1.9508,1.9888,2.0067,2.0435,2.0747,2.1057,2.1864,2.2278,2.244,2.2939,2.3119,2.3127,2.3253,2.3297,2.3393,2.4079,2.4474,2.4753,0.0,0.0,0.0,0.0,0.0,0.0,0.0,0.0,0.0,0.0,0.0,0.0,0.0,0.0,0.0,0.0,0.0,0.0,0.0,0.0,0.0,0.0,0.0,0.0,0.0,0.0,0.0,0.0,0.0,0.0,0.0,0.0,0.0,0.0,0.0,0.0,0.0,0.0,0.0,0.0,0.0,0.0,1.3007,0.0,0.0,0.0,0.0,0.0,0.0,0.0,0.0,0.0,0.0,0.0,0.0,0.0,0.0,0.0,0.0,0.0,0.0,0.0,0.0,0.0,0.0,0.0,0.0,0.0,0.0,0.0,0.0,0.0,0.0,0.0,0.0,1.2178,1.2315,1.3603,1.4708,1.5169,1.5565,1.5769,1.5665,1.564,1.5694,1.584,1.5604,1.5528,1.5665,1.5734,1.5946,1.6356,1.7151,1.7888,1.8566,1.9403,2.0,2.0382,2.0432,2.0611,2.0926,2.0692,2.0957,2.1616,2.202,2.2402,2.282,2.3647,2.3762,2.3436,2.3341,2.3392,2.3679,2.4919,2.6514,2.8018,0.0,0.0,0.0,0.0,0.0,0.0,0.0,0.0,0.0,0.0,0.0,0.0,0.0,0.0,0.0,0.0,0.0,0.0,0.0,0.0,0.0,0.0,0.0,0.0,0.0,0.0,0.0,0.0,0.0,0.0,0.0,0.0,0.0,0.0,0.0,0.0,0.0,0.0,0.0,0.0,0.0,0.0,1.4302,1.4055,1.3266,1.2211,1.168,1.1352,1.1117,1.0727,0.0,0.0,0.0,0.0,0.0,0.0,0.0,0.0,0.0,0.0,0.0,0.0,0.0,0.0,0.0,0.0,0.0,0.0,0.0,0.0,0.0,0.0,0.0,0.0,1.1923,1.3257,1.415,1.4954,1.5637,1.607,1.6311,1.6362,1.624,1.6224,1.6224,1.6224,1.5951,1.5945,1.6282,1.6331,1.6661,1.7317,1.8075,1.8821,1.9527,2.0204,2.0751,2.12,2.1154,2.1329,2.1758,2.1602,2.1757,0.0,2.2516,2.276,2.297,2.3906,2.4223,0.0,0.0,0.0,0.0,0.0,2.7881,2.9543,0.0,0.0,0.0,0.0,0.0,0.0,0.0,0.0,0.0,0.0,0.0,0.0,0.0,0.0,0.0,0.0,0.0,0.0,0.0,0.0,0.0,0.0,0.0,0.0,0.0,0.0,0.0,0.0,0.0,0.0,0.0,0.0,0.0,0.0,0.0,0.0,0.0,0.0,0.0,0.0,0.0,0.0,1.5453,1.4702,1.4376,1.4191,1.3056,1.2307,1.1841,1.1708,0.0,0.0,0.0,0.0,0.0,0.0,0.0,0.0,0.0,0.0,0.0,0.0,0.0,0.0,0.0,0.0,0.0,0.0,0.0,0.0,0.0,0.0,0.0,0.0,1.2862,1.4058,1.5641,1.618,1.6386,1.6353,1.6708,1.6937,1.6807,1.6818,1.6818,1.6818,1.645,1.649,1.7076,0.0,0.0,0.0,0.0,1.9509,1.9973,2.0811,2.1386,2.171,2.1802,2.2097,2.2588,2.2764,2.2823,2.2804,2.317,2.3173,2.3015,2.3975,2.4672,2.5182,2.5697,2.5742,2.5696,2.7281,2.8756,0.0,0.0,0.0,0.0,0.0,0.0,0.0,0.0,0.0,0.0,0.0,0.0,0.0,0.0,0.0,0.0,0.0,0.0,0.0,0.0,0.0,0.0,0.0,0.0,0.0,0.0,0.0,0.0,0.0,0.0,0.0,0.0,0.0,0.0,0.0,0.0,0.0,0.0,0.0,0.0,0.0,0.0,0.0,1.5732,1.5731,1.5495,1.5134,1.4894,1.4747,1.4568,1.3585,1.2732,1.1899,1.078,0.0,0.0,0.0,0.0,0.0,0.0,0.0,0.0,0.0,0.0,0.0,0.0,0.0,0.0,0.0,0.0,0.0,0.0,0.0,0.0,1.1859,1.3278,1.46,1.553,1.5724,1.601,1.6623,1.6782,1.6835,1.6818,1.6818,1.6818,1.6818,1.6969,1.7257,1.7604,1.83,0.0,1.9712,2.0538,2.1174,2.1698,2.2279,2.2718,2.3044,0.0,0.0,2.3607,2.3219,2.3094,2.3195,2.3363,2.336,2.3297,2.4283,2.5659,2.7108,2.6681,2.6863,2.744,2.8006,2.9496,3.1174,0.0,0.0,0.0,0.0,0.0,0.0,0.0,0.0,0.0,0.0,0.0,0.0,0.0,0.0,0.0,0.0,0.0,0.0,0.0,0.0,0.0,0.0,0.0,0.0,0.0,0.0,0.0,0.0,0.0,0.0,0.0,0.0,0.0,0.0,0.0,0.0,0.0,0.0,0.0,0.0,0.0,0.0,1.5533,1.6225,1.6262,1.5969,1.6043,1.5698,1.5144,1.4518,1.3433,1.2211,1.1434,1.0271,0.9029,0.0,0.0,0.0,0.0,0.0,0.0,0.0,0.0,0.0,0.0,0.0,0.0,0.0,0.0,0.855,0.0,0.0,1.1421,1.27,1.3605,1.4374,1.5061,1.5147,1.5468,1.6343,1.6534,1.6602,1.6602,1.6602,1.6602,1.6602,1.683,1.7302,1.8097,1.8805,1.9689,2.0776,2.146,2.2018,2.2445,2.2545,2.2795,2.3205,2.3238,2.3559,2.4096,2.438,2.4473,2.4426,2.4307,2.4133,2.4045,2.5255,2.6552,2.7839,2.8107,2.8373,2.8629,2.8892,2.9922,3.1101,0.0,0.0,0.0,0.0,0.0,0.0,0.0,0.0,0.0,0.0,0.0,0.0,0.0,0.0,0.0,0.0,0.0,0.0,0.0,0.0,0.0,0.0,0.0,0.0,0.0,0.0,0.0,0.0,0.0,0.0,0.0,0.0,0.0,0.0,0.0,0.0,0.0,0.0,0.0,0.0,0.0,0.0,1.5105,1.6184,1.6417,1.6154,1.6273,1.5657,1.4781,1.4624,1.3515,1.2157,1.1834,1.0854,0.96,0.8405,0.7858,0.0,0.0,0.0,0.0,0.0,0.0,0.0,0.0,0.0,0.8241,0.8921,0.9132,0.9553,1.0789,1.1139,1.1778,1.344,1.3766,1.395,1.4381,1.4438,1.476,1.5581,1.5987,1.622,1.6316,1.6316,1.6374,1.6413,1.6618,1.7207,1.8291,1.8892,1.9833,2.1225,2.1801,2.2244,2.2548,2.2477,2.2604,2.2983,2.3317,2.3824,2.4501,2.5418,2.579,2.5702,2.5346,2.5138,2.5145,2.6432,2.7372,2.8148,2.9281,2.9614,2.9441,2.9659,3.0161,3.0757,0.0,0.0,0.0,0.0,0.0,0.0,0.0,0.0,0.0,0.0,0.0,0.0,0.0,0.0,0.0,0.0,0.0,0.0,0.0,0.0,0.0,0.0,0.0,0.0,0.0,0.0,0.0,0.0,0.0,0.0,0.0,0.0,0.0,0.0,0.0,0.0,0.0,0.0,0.0,0.0,0.0,0.0,1.4617,1.5235,1.5236,1.491,1.491,1.4562,1.4046,1.355,1.3212,1.2838,1.2105,1.1001,0.9748,0.8609,0.0,0.6429,0.5411,0.5684,0.6429,0.7121,0.7609,0.8211,0.0,0.0,1.018,1.0935,1.1532,1.2089,1.2476,1.2838,1.3185,1.3407,1.3629,1.3744,1.3571,1.3555,1.3699,1.4089,1.4955,1.5613,1.5931,1.6056,1.621,1.6374,1.6911,1.7389,1.7768,1.8625,1.9625,2.0726,2.135,2.1797,2.2063,2.2652,2.2892,2.2844,2.3269,2.4055,2.5111,2.5414,2.576,2.6135,2.5955,2.6198,2.672,2.757,2.8166,2.8608,2.9523,2.9874,2.9836,2.9874,3.0289,3.0881,0.0,0.0,0.0,0.0,0.0,0.0,0.0,0.0,0.0,0.0,0.0,0.0,0.0,0.0,0.0,0.0,0.0,0.0,0.0,0.0,0.0,0.0,0.0,0.0,0.0,0.0,0.0,0.0,0.0,0.0,0.0,0.0,0.0,0.0,0.0,0.0,0.0,0.0,0.0,0.0,0.0,0.0,1.3211,1.3721,1.3271,1.2485,1.3328,1.3132,0.0,0.0,1.1206,1.0737,1.0558,0.9717,0.8611,0.774,0.6908,0.0,0.6218,0.6661,0.732,0.0,0.9014,0.9893,1.0656,1.0922,1.1235,1.2046,1.2308,1.2497,1.2861,1.3041,1.3223,0.0,1.3393,1.3298,1.3191,1.2965,1.2902,1.3107,1.3873,1.4773,1.569,1.5912,1.6085,1.6374,1.6845,1.7374,1.7955,1.8879,1.9784,2.0682,2.1391,2.1832,2.1945,2.2224,2.2419,2.257,2.3027,2.3939,2.5156,2.5843,2.6475,2.7013,2.6995,2.7003,2.7077,2.7969,2.8452,2.8694,2.9545,2.9896,2.9896,2.9896,3.0075,3.0312,0.0,0.0,0.0,0.0,0.0,0.0,0.0,0.0,0.0,0.0,0.0,0.0,0.0,0.0,0.0,0.0,0.0,0.0,0.0,0.0,0.0,0.0,0.0,0.0,0.0,0.0,0.0,0.0,0.0,0.0,0.0,0.0,0.0,0.0,0.0,0.0,0.0,0.0,0.0,0.0,0.0,0.0,1.2058,1.2476,1.1723,1.0592,1.1708,1.1442,0.0,0.0,0.9308,0.8806,0.8977,0.8359,0.7437,0.6789,0.6171,0.5822,0.6473,0.7186,0.7989,0.8993,1.0127,1.1091,1.157,1.1711,1.1885,1.2377,1.2391,1.2377,1.264,1.2674,1.2787,1.3101,1.293,1.2754,1.268,1.2415,1.2271,1.2372,1.2989,1.3892,1.5148,1.5659,1.6028,1.6374,1.6864,1.7426,1.8016,1.8958,1.9817,2.0548,2.1392,2.1869,2.1937,2.206,2.226,2.2491,2.3168,2.4124,2.5322,2.6588,2.7485,2.8038,2.8091,2.8012,2.7864,2.857,2.8909,2.9033,2.967,2.9924,2.9924,2.9918,2.9896,2.9896,0.0,0.0,0.0,0.0,0.0,0.0,0.0,0.0,0.0,0.0,0.0,0.0,0.0,0.0,0.0,0.0,0.0,0.0,0.0,0.0,0.0,0.0,0.0,0.0,0.0,0.0,0.0,0.0,0.0,0.0,0.0,0.0,0.0,0.0,0.0,0.0,0.0,0.0,0.0,0.0,0.0,0.0,1.1544,1.1828,1.1045,0.9845,1.0034,0.0,0.0,0.0,0.801,0.7932,0.7875,0.7333,0.0,0.6017,0.5264,0.481,0.5534,0.6649,0.7961,0.9491,1.054,1.1345,1.1938,1.224,1.2245,1.1833,1.1938,1.2062,1.1866,1.1828,1.1913,1.2201,1.222,1.2121,1.1873,1.184,1.1832,1.1832,1.2292,1.3018,0.0,1.5213,1.6028,1.6374,1.706,1.7534,1.7706,1.8679,1.9519,2.0177,2.1183,2.1797,2.2013,2.2517,2.275,2.2715,2.3878,2.491,2.5839,2.7751,2.8779,2.9042,2.9189,2.9387,2.9633,2.9711,2.9837,2.9962,2.9995,2.9995,2.9995,2.9924,2.9896,2.9896,0.0,0.0,0.0,0.0,0.0,0.0,0.0,0.0,0.0,0.0,0.0,0.0,0.0,0.0,0.0,0.0,0.0,0.0,0.0,0.0,0.0,0.0,0.0,0.0,0.0,0.0,0.0,0.0,0.0,0.0,0.0,0.0,0.0,0.0,0.0,0.0,0.0,0.0,0.0,0.0,0.0,0.0,0.9446,0.9389,0.8776,0.7904,0.0,0.0,0.0,0.0,0.0,0.5874,0.607,0.5719,0.5135,0.4631,0.4624,0.4997,0.5859,0.7194,0.8592,0.9641,1.055,1.1251,1.1463,1.1359,1.1256,1.1394,1.0936,1.057,1.0767,1.0587,1.048,1.0693,1.0965,1.1132,1.1069,1.1207,1.1336,1.1336,1.2093,0.0,0.0,0.0,0.0,1.6467,1.7228,1.781,1.8213,1.9095,1.9964,2.0706,2.1399,2.1952,2.2319,2.2686,2.3002,2.3326,2.5097,2.6445,2.7375,2.8565,2.9243,2.9509,2.9547,2.9408,2.9172,2.9295,2.9401,2.9543,2.9572,2.9868,3.0253,3.0248,3.0119,2.9968,0.0,0.0,0.0,0.0,0.0,0.0,0.0,0.0,0.0,0.0,0.0,0.0,0.0,0.0,0.0,0.0,0.0,0.0,0.0,0.0,0.0,0.0,0.0,0.0,0.0,0.0,0.0,0.0,0.0,0.0,0.0,0.0,0.0,0.0,0.0,0.0,0.0,0.0,0.0,0.0,0.0,0.0,0.7945,0.7919,0.7386,0.0,0.0,0.0,0.0,0.0,0.0,0.4572,0.4669,0.4406,0.4058,0.3966,0.4433,0.5206,0.6271,0.7488,0.8684,0.9559,1.0186,1.0592,1.0592,1.0382,1.0196,1.0171,0.9496,0.8955,0.9059,0.9013,0.8934,0.8901,0.951,1.0025,1.0116,1.0449,1.0822,1.1225,1.2021,1.2801,0.0,0.0,0.0,1.6616,1.7484,1.8197,1.8712,1.9683,2.0522,2.1115,2.1766,2.2342,2.283,2.312,2.3819,2.4894,2.6279,2.7618,2.8864,2.9374,2.9732,2.993,2.9691,2.924,2.8674,2.8852,2.8824,2.874,2.9353,2.9852,3.024,3.0444,3.0401,3.021,0.0,0.0,0.0,0.0,0.0,0.0,0.0,0.0,0.0,0.0,0.0,0.0,0.0,0.0,0.0,0.0,0.0,0.0,0.0,0.0,0.0,0.0,0.0,0.0,0.0,0.0,0.0,0.0,0.0,0.0,0.0,0.0,0.0,0.0,0.0,0.0,0.0,0.0,0.0,0.0,0.0,0.0,0.7029,0.7336,0.0,0.0,0.0,0.0,0.0,0.0,0.0,0.4029,0.3738,0.3512,0.3468,0.4063,0.4672,0.5404,0.6648,0.7518,0.8288,0.919,0.9382,0.9376,0.9394,0.9369,0.9084,0.8183,0.766,0.7228,0.0,0.0,0.7321,0.6893,0.7968,0.8891,0.9057,0.9585,1.0339,0.0,0.0,0.0,0.0,0.0,0.0,1.6765,0.0,1.8712,1.92,2.0358,2.1151,2.1465,2.2291,2.2965,2.345,2.3794,2.505,2.7179,2.7315,2.8348,3.0095,3.0095,3.0197,3.0252,2.9625,2.888,2.8147,2.8446,2.8161,2.7715,2.9229,2.9852,2.9984,3.0493,3.0679,3.0651,0.0,0.0,0.0,0.0,0.0,0.0,0.0,0.0,0.0,0.0,0.0,0.0,0.0,0.0,0.0,0.0,0.0,0.0,0.0,0.0,0.0,0.0,0.0,0.0,0.0,0.0,0.0,0.0,0.0,0.0,0.0,0.0,0.0,0.0,0.0,0.0,0.0,0.0,0.0,0.0,0.0,0.0,0.5519,0.0,0.0,0.0,0.0,0.0,0.0,0.0,0.0,0.0,0.4233,0.4214,0.4151,0.4645,0.5261,0.5904,0.6473,0.7235,0.7914,0.7988,0.7902,0.7798,0.7783,0.7452,0.703,0.674,0.6012,0.5376,0.0,0.0,0.0,0.5812,0.7113,0.0,0.8592,0.9747,0.0,1.1249,0.0,1.3167,1.3959,1.5089,0.0,0.0,1.8135,1.8992,1.976,2.0758,2.1633,2.2337,2.2905,2.3551,2.4198,2.4755,2.5639,2.6899,2.715,2.7819,2.8853,2.8965,2.9021,2.9043,2.8879,2.8081,2.6984,2.7698,2.7603,2.7114,2.815,2.9185,3.0148,3.0296,3.0566,3.0915,0.0,0.0,0.0,0.0,0.0,0.0,0.0,0.0,0.0,0.0,0.0,0.0,0.0,0.0,0.0,0.0,0.0,0.0,0.0,0.0,0.0,0.0,0.0,0.0,0.0,0.0,0.0,0.0,0.0,0.0,0.0,0.0,0.0,0.0,0.0,0.0,0.0,0.0,0.0,0.0,0.0,0.0,0.0,0.0,0.0,0.0,0.0,0.0,0.0,0.0,0.0,0.4181,0.4696,0.4762,0.4764,0.5327,0.0,0.6192,0.6643,0.7146,0.7473,0.7129,0.6857,0.6604,0.6314,0.5933,0.5526,0.5174,0.4521,0.0,0.3878,0.4193,0.0,0.0,0.0,0.0,0.7985,0.9326,1.0554,0.0,1.2377,0.0,1.4276,1.535,1.6407,0.0,1.8459,1.9399,2.0295,2.1272,2.2175,2.2987,2.3515,2.4009,2.4453,2.4553,2.5131,2.6142,2.6655,2.735,2.8198,2.8624,2.8829,2.8795,0.0,2.7265,2.6235,2.6774,2.6617,2.6168,2.7653,2.8716,2.9468,3.0098,3.0517,3.083,0.0,0.0,0.0,0.0,0.0,0.0,0.0,0.0,0.0,0.0,0.0,0.0,0.0,0.0,0.0,0.0,0.0,0.0,0.0,0.0,0.0,0.0,0.0,0.0,0.0,0.0,0.0,0.0,0.0,0.0,0.0,0.0,0.0,0.0,0.0,0.0,0.0,0.0,0.0,0.0,0.0,0.0,0.0,0.0,0.0,0.0,0.0,0.0,0.0,0.0,0.4648,0.4753,0.5235,0.5325,0.5376,0.6039,0.6251,0.6388,0.6921,0.7094,0.6966,0.6525,0.6117,0.5653,0.5014,0.4735,0.4408,0.3667,0.0,0.2936,0.2719,0.348,0.4076,0.3863,0.0,0.6943,0.7418,0.8692,1.0087,1.144,1.2552,1.3607,1.4669,1.5613,1.6616,1.7639,1.8818,1.9888,2.0795,2.1846,2.2727,2.3424,2.4003,2.4304,2.4319,2.3895,2.4216,2.5229,2.595,2.6725,2.7539,2.8236,2.856,2.8492,0.0,0.0,2.5709,2.592,2.567,2.535,2.7437,2.8316,2.8558,2.9884,3.0432,3.0621,0.0,0.0,0.0,0.0,0.0,0.0,0.0,0.0,0.0,0.0,0.0,0.0,0.0,0.0,0.0,0.0,0.0,0.0,0.0,0.0,0.0,0.0,0.0,0.0,0.0,0.0,0.0,0.0,0.0,0.0,0.0,0.0,0.0,0.0,0.0,0.0,0.0,0.0,0.0,0.0,0.0,0.0,0.0,0.0,0.0,0.0,0.0,0.0,0.0,0.0,0.4913,0.5178,0.6086,0.6207,0.6137,0.6821,0.6832,0.667,0.6872,0.6738,0.6412,0.5946,0.5385,0.4798,0.4291,0.3939,0.0,0.0,0.2529,0.2425,0.2117,0.2742,0.3449,0.3902,0.5195,0.6446,0.7295,0.8636,1.0042,0.0,1.2552,1.3694,0.0,0.0,0.0,0.0,0.0,0.0,2.1091,2.2291,2.3175,2.3639,2.4065,2.4176,2.3916,2.4098,2.4386,2.4803,2.5107,2.535,2.5517,2.5655,2.5706,2.5706,0.0,0.0,2.5203,2.582,2.6008,2.6008,2.7075,2.7851,2.8506,2.9368,3.0092,3.0765,0.0,0.0,0.0,0.0,0.0,0.0,0.0,0.0,0.0,0.0,0.0,0.0,0.0,0.0,0.0,0.0,0.0,0.0,0.0,0.0,0.0,0.0,0.0,0.0,0.0,0.0,0.0,0.0,0.0,0.0,0.0,0.0,0.0,0.0,0.0,0.0,0.0,0.0,0.0,0.0,0.0,0.0,0.0,0.0,0.0,0.0,0.0,0.0,0.0,0.0,0.4425,0.4891,0.6146,0.644,0.6397,0.6816,0.6817,0.6716,0.6876,0.6659,0.6269,0.5696,0.5062,0.4402,0.3686,0.0,0.0,0.0,0.2014,0.1967,0.1913,0.2505,0.0,0.3611,0.4931,0.6204,0.7071,0.8523,0.0,1.1161,1.2312,1.343,0.0,0.0,0.0,0.0,0.0,0.0,2.1414,2.2988,2.4035,2.4425,2.4067,2.3892,2.3902,2.3516,2.3427,2.3659,2.424,2.4531,2.4549,2.4887,2.5049,2.5031,0.0,0.0,2.5023,2.5385,2.5749,2.618,2.6988,2.7523,2.792,2.8661,2.9161,2.9661,0.0,0.0,0.0,0.0,0.0,0.0,0.0,0.0,0.0,0.0,0.0,0.0,0.0,0.0,0.0,0.0,0.0,0.0,0.0,0.0,0.0,0.0,0.0,0.0,0.0,0.0,0.0,0.2591,0.0,0.0,0.0,0.0,0.0,0.0,0.0,0.0,0.0,0.0,0.0,0.0,0.0,0.0,0.0,0.0,0.0,0.0,0.0,0.0,0.0,0.0,0.3752,0.4247,0.5491,0.5966,0.6118,0.6421,0.6507,0.6557,0.6764,0.66,0.6195,0.557,0.4923,0.4189,0.3296,0.2791,0.0,0.1858,0.1669,0.1654,0.1822,0.2358,0.2874,0.0,0.4446,0.5706,0.6685,0.8119,0.9558,0.0,1.2095,0.0,0.0,0.0,0.0,0.0,0.0,0.0,2.2188,2.377,2.4772,2.5,2.4076,2.3687,2.3879,2.2948,2.2579,2.2781,2.3693,2.4129,2.4147,2.4656,2.4875,2.4843,0.0,0.0,0.0,2.5178,2.5678,2.6419,2.704,2.7299,2.7385,2.8127,2.8403,2.8592,0.0,0.0,0.0,0.0,0.0,0.0,0.0,0.0,0.0,0.0,0.0,0.0,0.0,0.0,0.0,0.0,0.0,0.0,0.0,0.0,0.0,0.0,0.0,0.0,0.0,0.0,0.0,0.2249,0.2129,0.0,0.0,0.0,0.0,0.0,0.0,0.0,0.0,0.0,0.0,0.0,0.0,0.0,0.0,0.0,0.0,0.0,0.0,0.0,0.0,0.0,0.0,0.3213,0.3782,0.4409,0.5066,0.5695,0.0,0.0,0.652,0.6415,0.6081,0.554,0.4816,0.4041,0.3276,0.0,0.2332,0.1741,0.161,0.1619,0.1704,0.2069,0.2467,0.28,0.0,0.4453,0.6049,0.7092,0.8512,1.0746,0.0,0.0,0.0,0.0,0.0,0.0,0.0,0.0,0.0,2.4522,2.4828,2.4735,2.4162,2.3765,2.3553,2.2976,2.2777,2.2982,2.3807,2.4187,2.4187,2.4191,2.4159,2.4091,0.0,0.0,0.0,2.573,2.6471,2.7195,2.7264,2.7299,2.7385,2.8127,2.8403,2.8523,0.0,0.0,0.0,0.0,0.0,0.0,0.0,0.0,0.0,0.0,0.0,0.0,0.0,0.0,0.0,0.0,0.0,0.0,0.0,0.0,0.0,0.0,0.0,0.0,0.0,0.0,0.0,0.0,0.2476,0.0,0.0,0.0,0.0,0.0,0.0,0.321,0.0,0.0,0.0,0.0,0.0,0.0,0.0,0.0,0.0,0.0,0.0,0.0,0.0,0.0,0.0,0.0,0.2778,0.2966,0.0,0.0,0.5331,0.5663,0.6171,0.6237,0.6008,0.5372,0.468,0.3946,0.3257,0.0,0.2161,0.18,0.1658,0.1633,0.1738,0.203,0.2273,0.2363,0.0,0.0,0.5299,0.6652,0.8215,1.0172,1.173,0.0,0.0,0.0,0.0,0.0,0.0,0.0,0.0,2.5036,2.529,2.5489,2.4614,2.417,2.4217,2.3764,2.3611,2.3796,2.4607,2.4989,2.4971,2.441,2.4392,2.4753,0.0,0.0,0.0,2.6003,2.6575,2.7299,2.7299,2.7299,2.7333,2.7627,2.773,2.7833,0.0,0.0,0.0,0.0,0.0,0.0,0.0,0.0,0.0,0.0,0.0,0.0,0.0,0.0,0.0,0.0,0.0,0.0,0.0,0.0,0.0,0.0,0.0,0.0,0.0,0.0,0.0,0.0,0.0,0.2602,0.0,0.0,0.273,0.2732,0.0,0.0,0.0,0.0,0.0,0.0,0.0,0.0,0.0,0.0,0.0,0.0,0.0,0.0,0.0,0.0,0.0,0.0,0.0,0.0,0.0,0.0,0.4557,0.5009,0.5584,0.5798,0.5723,0.5191,0.4502,0.3792,0.0,0.0,0.1996,0.1838,0.1641,0.157,0.1768,0.1976,0.2114,0.0,0.0,0.3723,0.4655,0.6124,0.7616,0.0,0.0,0.0,0.0,0.0,0.0,0.0,0.0,0.0,0.0,2.5532,2.583,2.6207,2.5262,2.4873,2.5165,2.4726,2.4546,2.4651,2.5491,2.5751,2.5495,2.5099,2.5067,0.0,0.0,0.0,0.0,2.6411,2.6814,2.7299,2.7299,2.7299,2.7299,2.7299,2.7299,2.7368,0.0,0.0,0.0,0.0,0.0,0.0,0.0,0.0,0.0,0.0,0.0,0.0,0.0,0.0,0.0,0.0,0.0,0.0,0.0,0.0,0.0,0.0,0.0,0.0,0.0,0.0,0.0,0.0,0.0,0.0,0.0,0.0,0.2819,0.3205,0.0,0.0,0.0,0.0,0.0,0.0,0.0,0.0,0.0,0.0,0.0,0.0,0.0,0.0,0.0,0.0,0.0,0.0,0.0,0.2053,0.2157,0.0,0.3545,0.4062,0.4741,0.5108,0.5232,0.4972,0.4256,0.3508,0.0,0.2481,0.1887,0.1814,0.1537,0.1405,0.1737,0.1861,0.1942,0.2078,0.2553,0.0,0.4178,0.5347,0.0,0.0,0.0,0.0,0.0,0.0,0.0,0.0,0.0,0.0,0.0,0.0,2.6401,2.6674,2.6092,2.5949,2.628,2.5687,2.5428,2.5495,2.637,2.6335,2.5531,2.6319,0.0,0.0,0.0,0.0,0.0,2.7061,2.7345,2.7299,2.7299,2.7299,2.7299,2.7299,2.7299,2.7299,0.0,0.0,0.0,0.0,0.0,0.0,0.0,0.0,0.0,0.0,0.0,0.0,0.0,0.0,0.0,0.0,0.0,0.0,0.0,0.0,0.0,0.0,0.0,0.0,0.0,0.0,0.0,0.0,0.0,0.0,0.0,0.0,0.0,0.0,0.4027,0.0,0.0,0.0,0.0,0.0,0.0,0.0,0.0,0.0,0.0,0.0,0.0,0.0,0.0,0.0,0.0,0.0,0.0,0.0,0.0,0.2172,0.2639,0.3176,0.3611,0.403,0.4235,0.3788,0.3402,0.2997,0.2521,0.2107,0.1813,0.1749,0.176,0.1831,0.1978,0.2059,0.2165,0.2337,0.2869,0.0,0.0,0.0,0.0,0.0,0.0,0.0,0.0,0.0,0.0,0.0,0.0,0.0,0.0,0.0,2.6741,2.6972,2.6394,2.6222,2.6574,2.6421,2.6379,2.6464,2.673,2.673,2.6455,2.61,0.0,0.0,0.0,0.0,0.0,2.7348,2.7393,2.736,2.733,2.7299,2.7299,2.7299,2.7299,2.7299,0.0,0.0,0.0,0.0,0.0,0.0,0.0,0.0,0.0,0.0,0.0,0.0,0.0,0.0,0.0,0.0,0.0,0.0,0.0,0.0,0.0,0.0,0.0,0.0,0.0,0.0,0.0,0.0,0.0,0.0,0.0,0.0,0.0,0.0,0.0,0.0,0.0,0.0,0.0,0.0,0.0,0.0,0.4654,0.0,0.0,0.0,0.0,0.0,0.0,0.0,0.0,0.0,0.0,0.0,0.0,0.0,0.1975,0.2276,0.2767,0.328,0.356,0.3101,0.288,0.0,0.0,0.2018,0.1794,0.1907,0.1965,0.2042,0.215,0.2245,0.2376,0.2545,0.3189,0.3955,0.0,0.0,0.0,0.0,0.0,0.0,0.0,0.0,0.0,0.0,0.0,0.0,0.0,0.0,2.7006,2.7277,2.6946,2.6909,2.7187,2.7252,2.7307,2.7348,2.7077,2.6934,2.6917,0.0,0.0,0.0,0.0,0.0,0.0,2.7526,2.7454,2.7409,2.7345,2.733,2.7297,2.733,2.7346,2.7329,0.0,0.0,0.0,0.0,0.0,0.0,0.0,0.0,0.0,0.0,0.0,0.0,0.0,0.0,0.0,0.0,0.0,0.0,0.0,0.0,0.0,0.0,0.0,0.0,0.0,0.0,0.0,0.0,0.3259,0.3489,0.3971,0.0,0.0,0.0,0.0,0.0,0.0,0.0,0.0,0.0,0.0,0.0,0.0,0.0,0.0,0.0,0.0,0.0,0.0,0.0,0.0,0.0,0.0,0.0,0.0,0.0,0.0,0.0,0.0,0.2774,0.3127,0.2843,0.2671,0.258,0.2584,0.2151,0.0,0.2246,0.2182,0.2124,0.2319,0.2464,0.2599,0.2729,0.3548,0.0,0.0,0.0,0.0,0.0,0.0,0.0,0.0,0.0,0.0,0.0,0.0,0.0,0.0,0.0,0.0,2.7585,2.7689,2.7821,2.7996,2.8085,2.8077,2.8006,2.7273,2.6902,2.6848,0.0,0.0,0.0,0.0,0.0,0.0,2.763,2.7529,2.7407,2.7392,2.736,2.7313,2.7376,2.7392,2.7423,0.0,0.0,0.0,0.0,0.0,0.0,0.0,0.0,0.0,0.0,0.0,0.0,0.0,0.0,0.0,0.0,0.0,0.0,0.0,0.0,0.0,0.0,0.0,0.0,0.0,0.0,0.0,0.4044,0.4442,0.4645,0.4671,0.4615,0.0,0.0,0.0,0.0,0.0,0.0,0.0,0.0,0.0,0.0,0.0,0.0,0.0,0.0,0.4413,0.4262,0.0,0.0,0.0,0.0,0.0,0.0,0.0,0.0,0.1976,0.1949,0.2121,0.0,0.2274,0.245,0.2434,0.2381,0.0,0.0,0.0,0.0,0.0,0.0,0.0,0.3019,0.3158,0.329,0.4138,0.5226,0.0,0.0,0.0,0.0,0.0,0.0,0.0,0.0,0.0,0.0,0.0,0.0,0.0,0.0,0.0,2.7657,2.7879,2.8039,2.814,2.8168,2.7879,2.725,2.6448,2.5808,2.5338,0.0,0.0,0.0,0.0,0.0,0.0,2.7692,2.7572,2.7526,2.7438,2.7423,2.7452,2.7407,2.7421,2.7465,0.0,0.0,0.0,0.0,0.0,0.0,0.0,0.0,0.0,0.0,0.0,0.0,0.0,0.0,0.0,0.0,0.0,0.0,0.0,0.0,0.0,0.0,0.0,0.0,0.0,0.0,0.0,0.0,0.0,0.5267,0.0,0.0,0.0,0.0,0.0,0.0,0.0,0.0,0.0,0.0,0.5689,0.0,0.0,0.0,0.0,0.0,0.4615,0.4504,0.0,0.416,0.4037,0.3915,0.0,0.0,0.0,0.0,0.2419,0.2426,0.2456,0.2416,0.2392,0.2507,0.2553,0.2604,0.2739,0.0,0.0,0.0,0.0,0.0,0.0,0.0,0.0,0.0,0.5004,0.0,0.0,0.0,0.0,0.0,0.0,0.0,0.0,0.0,0.0,0.0,0.0,0.0,0.0,0.0,0.0,0.0,2.7982,2.8126,2.8196,2.8196,2.7803,2.6978,2.6218,2.5678,2.538,0.0,0.0,0.0,0.0,0.0,2.8,2.7813,2.7677,2.7587,2.7529,2.7498,2.7496,2.7498,2.7496,2.7557,0.0,0.0,0.0,0.0,0.0,0.0,0.0,0.0,0.0,0.0,0.0,0.0,0.0,0.0,0.0,0.0,0.0,0.0,0.0,0.0,0.0,0.0,0.0,0.0,0.0,0.0,0.0,0.0,0.0,0.0,0.0,0.0,0.0,0.0,0.0,0.0,0.0,0.0,0.0,0.0,0.5893,0.0,0.0,0.0,0.0,0.0,0.0,0.0,0.0,0.4425,0.4354,0.4303,0.4055,0.0,0.0,0.0,0.0,0.0,0.3036,0.3123,0.3154,0.2966,0.2972,0.308,0.3301,0.0,0.0,0.0,0.0,0.0,0.0,0.4389,0.0,0.0,0.0,0.0,0.0,0.0,0.0,0.0,0.0,0.0,0.0,0.0,0.0,0.0,0.0,0.0,0.0,0.0,0.0,0.0,2.8025,2.814,2.8196,2.8088,2.762,2.68,2.6077,2.5781,2.5841,2.6009,0.0,0.0,0.0,0.0,2.8014,2.7932,2.7801,2.7632,2.7617,2.7572,2.7542,2.7585,2.7632,2.7662,0.0,0.0,0.0,0.0,0.0,0.0,0.0,0.0,0.0,0.0,0.0,0.0,0.0,0.0,0.0,0.0,0.0,0.0,0.0,0.0,0.0,0.0,0.0,0.0,0.0,0.0,0.0,0.0,0.0,0.0,0.6768,0.6694,0.6638,0.0,0.0,0.0,0.0,0.6387,0.6307,0.6245,0.6116,0.0,0.0,0.0,0.0,0.0,0.0,0.0,0.0,0.4683,0.4603,0.4524,0.4372,0.0,0.0,0.0,0.0,0.0,0.3749,0.4164,0.4476,0.4009,0.3726,0.366,0.3976,0.0,0.0,0.0,0.0,0.0,0.0,0.497,0.4993,0.0,0.0,0.0,0.0,0.0,0.0,0.0,0.0,0.0,0.0,0.0,0.0,0.0,0.0,0.0,0.0,0.0,0.0,0.0,0.0,2.8182,2.8196,2.7531,2.6782,2.5979,2.529,2.5004,2.5103,2.5727,2.6452,0.0,0.0,0.0,2.8071,2.7946,2.7874,2.7845,2.7679,2.763,2.7672,2.7686,2.7766,2.7859,0.0,0.0,0.0,0.0,0.0,0.0,0.0,0.0,0.0,0.0,0.0,0.0,0.0,0.0,0.0,0.0,0.0,0.0,0.0,0.0,0.0,0.0,0.0,0.0,0.0,0.0,0.0,0.0,0.0,0.7187,0.7058,0.6952,0.6858,0.6757,0.0,0.0,0.0,0.6514,0.6439,0.6384,0.0,0.0,0.0,0.0,0.0,0.0,0.0,0.0,0.0,0.0,0.4822,0.4744,0.4603,0.0,0.0,0.0,0.0,0.0,0.4052,0.4389,0.4812,0.4891,0.4874,0.49,0.0,0.0,0.0,0.0,0.0,0.0,0.0,0.0,0.0,0.0,0.0,0.0,0.0,0.0,0.0,0.0,0.0,0.0,0.0,0.0,0.0,0.0,0.0,0.0,0.0,0.0,0.0,0.0,0.0,2.7549,2.7549,2.7214,2.6869,2.6494,2.5823,2.5494,2.5512,2.6339,2.686,0.0,0.0,2.8196,2.8099,2.8028,2.7961,2.7888,2.7842,2.781,2.781,2.7896,2.8025,2.8168,0.0,0.0,0.0,0.0,0.0,0.0,0.0,0.0,0.0,0.0,0.0,0.0,0.0,0.0,0.0,0.0,0.0,0.0,0.0,0.0,0.0,0.0,0.0,0.0,0.0,0.0,0.0,0.7527,0.7406,0.7298,0.7195,0.708,0.699,0.0,0.0,0.0,0.6816,0.6642,0.6557,0.6521,0.0,0.0,0.0,0.0,0.0,0.0,0.0,0.0,0.0,0.0,0.0,0.0,0.0,0.0,0.0,0.4346,0.4414,0.4573,0.4365,0.461,0.5051,0.5552,0.5655,0.0,0.0,0.0,0.0,0.0,0.0,0.0,0.0,0.0,0.0,0.0,0.0,0.0,0.0,0.0,0.0,0.0,0.0,0.0,0.0,0.0,0.0,0.0,0.0,0.0,0.0,0.0,0.0,0.0,0.0,0.0,2.7281,2.7181,2.7113,2.7125,2.6453,2.6189,2.6357,2.7,2.7347,2.7435,2.8018,2.8223,2.8112,2.8112,2.8028,2.7946,2.8,2.8014,2.8032,2.8154,2.8313,2.8484,0.0,0.0,0.0,0.0,0.0,0.0,0.0,0.0,0.0,0.0,0.0,0.0,0.0,0.0,0.0,0.0,0.0,0.0,0.0,0.0,0.0,0.0,0.0,0.0,0.0,0.748,0.7717,0.7597,0.7514,0.7384,0.7195,0.7118,0.7096,0.7074,0.0,0.0,0.6891,0.6816,0.674,0.6676,0.6521,0.0,0.0,0.0,0.0,0.0,0.0,0.0,0.0,0.0,0.0,0.0,0.0,0.0,0.498,0.4933,0.4952,0.4961,0.4942,0.5276,0.5674,0.5835,0.5508,0.0,0.6431,0.6694,0.0,0.7345,0.0,0.0,0.0,0.0,0.0,0.0,0.0,0.0,0.0,0.0,0.0,0.0,0.0,0.0,0.0,0.0,0.0,0.0,0.0,0.0,0.0,0.0,0.0,0.0,0.0,0.0,2.8106,2.7507,2.7189,2.7178,2.6513,2.6584,2.7302,2.7302,2.7679,2.8308,2.8246,2.8196,2.8182,2.8126,2.8099,2.8085,2.8085,2.8209,2.8367,2.8427,2.8612,2.8773,0.0,0.0,0.0,0.0,0.0,0.0,0.0,0.0,0.0,0.0,0.0,0.0,0.0,0.0,0.0,0.0,0.0,0.0,0.0,0.0,0.0,0.0,0.0,0.6955,0.6861,0.747,0.7731,0.7605,0.7484,0.7376,0.7258,0.7241,0.0,0.0,0.0,0.0,0.7003,0.6829,0.6715,0.6681,0.6509,0.6381,0.0,0.0,0.0,0.0,0.0,0.0,0.0,0.0,0.5435,0.5368,0.5253,0.5205,0.5166,0.5088,0.5098,0.5117,0.5117,0.5561,0.6029,0.6073,0.6055,0.0,0.0,0.8342,0.839,0.8298,0.897,0.0,0.0,0.0,0.0,0.0,0.0,0.0,0.0,0.0,0.0,0.0,0.0,0.0,0.0,0.0,0.0,0.0,0.0,0.0,0.0,0.0,0.0,0.0,0.0,2.7152,0.0,2.7749,2.7931,2.7998,2.7327,2.7411,2.8141,2.8079,2.8157,2.8327,2.8237,2.8196,2.8196,2.8168,2.8154,2.8168,2.83,2.8471,2.8662,2.8718,2.8858,2.8987,0.0,0.0,0.0,0.0,0.0,0.0,0.0,0.0,0.0,0.0,0.0,0.0,0.0,0.0,0.0,0.0,0.0,0.0,0.0,0.0,0.0,0.0,0.0,0.7318,0.7247,0.7631,0.7761,0.7605,0.7461,0.7376,0.7329,0.0,0.0,0.0,0.0,0.0,0.0,0.6912,0.6803,0.6748,0.6591,0.6483,0.0,0.0,0.0,0.0,0.0,0.0,0.0,0.0,0.5642,0.5548,0.5454,0.5396,0.5349,0.5272,0.5392,0.5552,0.5592,0.5941,0.6351,0.6587,0.0,0.0,0.9548,0.9791,0.966,1.0045,1.0644,0.0,0.0,0.0,0.0,0.0,0.0,0.0,0.0,0.0,0.0,0.0,0.0,0.0,0.0,0.0,0.0,0.0,0.0,0.0,0.0,0.0,0.0,0.0,0.0,0.0,0.0,2.8005,2.8367,2.8453,2.802,2.8106,2.8637,2.8531,2.8445,2.8327,2.8237,2.8196,2.8196,2.8223,2.8291,2.8367,2.8536,2.8724,2.8905,2.8975,2.9067,2.9175,0.0,0.0,0.0,0.0,0.0,0.0,0.0,0.0,0.0,0.0,0.0,0.0,0.0,0.0,0.0,0.0,0.0,0.0,0.0,0.0,0.0,0.0,0.0,0.8068,0.8007,0.7926,0.7797,0.7605,0.7461,0.7399,0.7399,0.7329,0.0,0.0,0.0,0.0,0.0,0.0,0.7012,0.6899,0.6824,0.6757,0.6693,0.0,0.0,0.0,0.0,0.0,0.0,0.0,0.5817,0.5695,0.57,0.5617,0.5521,0.5586,0.5935,0.6329,0.6466,0.6508,0.6693,0.7428,0.0,0.0,1.1208,1.0837,1.056,1.2767,0.0,1.2656,0.0,0.0,0.0,0.0,0.0,0.0,0.0,0.0,0.0,0.0,0.0,0.0,0.0,0.0,0.0,0.0,0.0,0.0,0.0,0.0,0.0,0.0,0.0,0.0,2.8196,2.8277,2.8327,2.8411,2.8471,2.8569,2.8682,2.8556,2.8471,2.838,2.825,2.8196,2.8196,2.8291,2.8453,2.8706,2.8773,2.8929,2.91,2.9167,2.924,2.9294,0.0,0.0,0.0,0.0,0.0,0.0,0.0,0.0,0.0,0.0,0.0,0.0,0.0,0.0,0.0,0.0,0.0,0.0,0.0,0.0,0.0,0.0,0.0,0.0,0.0,0.0,0.7657,0.7605,0.7512,0.7427,0.0,0.0,0.0,0.7294,0.0,0.0,0.0,0.0,0.6932,0.6899,0.6774,0.6715,0.6689,0.0,0.0,0.0,0.0,0.0,0.0,0.0,0.0,0.0,0.5883,0.581,0.5773,0.5745,0.5901,0.6099,0.6134,0.711,0.0,0.7915,0.0,0.0,0.0,1.2372,0.0,0.0,0.0,0.0,0.0,0.0,0.0,0.0,0.0,0.0,0.0,0.0,0.0,0.0,0.0,0.0,0.0,0.0,0.0,0.0,0.0,0.0,0.0,0.0,0.0,0.0,0.0,0.0,2.8196,2.8223,2.8246,2.8327,2.8353,2.8432,2.8556,2.8471,2.8393,2.8327,2.8237,2.8223,2.8286,2.851,2.8682,2.887,2.9021,2.9152,2.924,2.9323,2.8965,2.8559,0.0,0.0,0.0,0.0,0.0,0.0,0.0,0.0,0.0,0.0,0.9087,0.0,0.0,0.0,0.0,0.0,0.0,0.0,0.0,0.0,0.0,0.0,0.0,0.0,0.0,0.7731,0.7635,0.0,0.0,0.0,0.0,0.0,0.0,0.7254,0.0,0.7139,0.0,0.0,0.7001,0.6969,0.6899,0.6858,0.6854,0.0,0.0,0.0,0.0,0.0,0.0,0.0,0.0,0.0,0.6135,0.6084,0.614,0.6552,0.6539,0.6564,0.7314,0.8161,0.0,0.913,1.0183,1.1729,1.3826,0.0,0.0,0.0,0.0,0.0,0.0,0.0,0.0,0.0,0.0,0.0,0.0,0.0,0.0,0.0,0.0,0.0,0.0,0.0,0.0,0.0,0.0,0.0,0.0,0.0,0.0,0.0,0.0,0.0,2.8196,2.8196,0.0,2.8246,2.8246,2.8313,2.8414,2.838,2.8353,2.834,2.834,2.8406,2.8523,2.8731,2.8899,2.8996,2.8798,2.8976,2.9289,2.8996,2.8765,2.869,0.0,0.0,0.0,0.0,0.0,0.0,0.0,0.0,0.0,0.0,0.9093,0.9007,0.0,0.0,0.0,0.0,0.0,0.0,0.0,0.0,0.0,0.0,0.0,0.0,0.0,0.0,0.0,0.0,0.0,0.0,0.0,0.0,0.7203,0.7203,0.0,0.7196,0.0,0.7261,0.7253,0.7204,0.7142,0.7118,0.709,0.6974,0.0,0.0,0.0,0.0,0.0,0.0,0.0,0.0,0.6418,0.6372,0.6514,0.7556,0.7478,0.7421,0.9132,0.9355,0.9429,1.0726,1.1636,0.0,1.5393,1.6505,1.6913,1.6645,0.0,0.0,0.0,0.0,0.0,0.0,0.0,0.0,0.0,0.0,0.0,0.0,0.0,0.0,0.0,0.0,0.0,0.0,0.0,0.0,0.0,0.0,0.0,0.0,0.0,0.0,2.8196,2.8196,0.0,0.0,2.8227,2.8264,2.8327,2.8313,2.8353,2.8432,2.8574,2.87,2.8834,2.8957,2.91,2.9137,2.841,2.8658,2.9304,2.8505,2.8672,2.9285,0.0,0.0,0.0,0.0,0.0,0.0,0.0,0.0,0.0,0.0,0.0,0.0,0.0,0.0,0.0,0.0,0.0,0.0,0.0,0.0,0.0,0.0,0.0,0.0,0.0,0.0,0.0,0.0,0.0,0.0,0.0,0.0,0.0,0.729,0.0,0.7943,0.804,0.8005,0.8005,0.7998,0.7477,0.7222,0.7177,0.7147,0.7096,0.0,0.0,0.0,0.0,0.0,0.0,0.0,0.651,0.6467,0.6511,0.6754,0.7084,0.7478,0.7892,0.9353,0.0,0.0,1.2942,1.4784,1.5574,1.6323,1.6908,1.717,0.0,0.0,0.0,0.0,0.0,0.0,0.0,0.0,0.0,0.0,0.0,0.0,0.0,0.0,0.0,0.0,0.0,0.0,0.0,0.0,0.0,0.0,0.0,0.0,0.0,2.7567,2.8196,2.8196,2.8223,0.0,2.8327,2.8406,2.8536,2.8419,2.8471,2.8632,2.8785,2.8875,2.8957,2.9112,2.92,2.9272,2.9151,2.9219,2.9388,2.9192,2.8802,2.8486,0.0,0.0,0.0,0.0,0.0,0.0,0.0,0.0,0.0,0.0,0.0,0.0,0.0,0.0,0.0,0.0,0.0,0.0,0.0,0.0,0.0,0.0,0.0,0.0,0.0,0.0,0.0,0.0,0.0,0.0,0.0,0.0,0.0,0.7316,0.0,0.781,0.7874,0.7865,0.789,0.7887,0.7538,0.7374,0.7337,0.7274,0.7233,0.719,0.7158,0.0,0.0,0.0,0.0,0.0,0.0,0.0,0.67,0.7247,0.7275,0.7436,0.8873,0.0,0.0,1.2549,0.0,1.5691,1.5937,1.6589,1.7134,0.0,0.0,0.0,0.0,0.0,0.0,0.0,0.0,0.0,0.0,0.0,0.0,0.0,0.0,0.0,0.0,0.0,0.0,0.0,0.0,0.0,0.0,0.0,0.0,0.0,2.6425,2.6639,2.7054,2.708,2.7133,2.7192,2.7299,2.7646,2.8221,2.8506,2.8706,2.8851,2.8998,2.9078,2.9145,2.9262,2.9334,2.9318,2.8922,2.9025,2.9341,2.8932,2.8746,2.8783,0.0,0.0,0.0,0.0,0.0,0.0,0.0,0.0,0.0,0.0,0.0,0.0,0.0,0.0,0.0,0.0,0.0,0.0,0.0,0.0,0.0,0.0,0.0,0.0,0.0,0.0,0.0,0.0,0.0,0.0,0.0,0.0,0.0,0.7353,0.0,0.0,0.7624,0.7678,0.7702,0.7695,0.7588,0.7624,0.7717,0.7594,0.7609,0.7669,0.7501,0.7378,0.7289,0.718,0.0,0.0,0.0,0.0,0.695,0.7887,0.7566,0.7453,0.9957,0.0,1.1385,1.398,1.5255,0.0,1.6179,1.6763,1.719,0.0,0.0,0.0,0.0,0.0,0.0,0.0,0.0,0.0,0.0,0.0,0.0,0.0,0.0,0.0,0.0,0.0,0.0,0.0,0.0,0.0,0.0,0.0,2.4837,2.5586,2.5604,2.5676,2.58,2.5881,2.5954,2.6045,2.621,2.6833,2.7849,2.8466,2.8863,2.9067,2.9178,2.9262,2.9323,2.9376,2.9396,2.9322,2.8616,2.8775,2.9314,2.8589,2.8785,2.9427,0.0,0.0,0.0,0.0,0.0,0.0,0.0,0.0,0.0,0.0,0.8953,0.0,0.0,0.0,0.0,0.0,0.0,0.0,0.0,0.0,0.0,0.0,0.0,0.0,0.0,0.0,0.0,0.0,0.0,0.0,0.0,0.0,0.0,0.7581,0.0,0.0,0.0,0.847,0.8481,0.8486,0.7967,0.8108,0.8626,0.861,0.8856,0.9139,0.8608,0.8294,0.8057,0.7463,0.7222,0.0,0.0,0.0,0.7065,0.7165,0.7455,0.7826,0.8233,0.0,1.2339,0.0,1.5281,1.5565,0.0,0.0,0.0,0.0,0.0,0.0,0.0,0.0,0.0,0.0,0.0,0.0,0.0,0.0,0.0,0.0,0.0,0.0,0.0,0.0,0.0,0.0,0.0,0.0,0.0,2.3666,2.4022,2.4819,2.4855,0.0,2.5788,2.593,2.6051,2.6181,2.6486,2.7097,2.7982,2.8145,2.859,2.9251,2.9344,2.9386,2.9386,2.9396,2.9396,2.9388,2.9266,2.9287,2.9392,2.9262,2.9339,2.9491,0.0,0.0,0.0,0.0,0.0,0.0,0.0,0.0,0.0,0.0,0.0,0.8903,0.0,0.0,0.0,0.0,0.0,0.0,0.0,0.0,0.0,0.0,0.0,0.0,0.0,0.0,0.0,0.0,0.0,0.0,0.0,0.8668,0.8726,0.0,0.0,0.0,0.0,0.0,0.8966,0.9317,0.8709,0.8869,0.9481,0.9514,0.9626,0.9746,0.9431,0.8958,0.8422,0.8134,0.7679,0.7251,0.7217,0.0,0.0,0.0,0.7268,0.7775,0.9285,1.1207,1.3194,0.0,1.5536,1.5783,1.6012,0.0,0.0,0.0,0.0,0.0,0.0,0.0,0.0,0.0,0.0,0.0,0.0,0.0,0.0,0.0,0.0,0.0,0.0,0.0,0.0,0.0,0.0,0.0,2.3487,2.3505,2.3666,2.4022,2.4022,0.0,2.4551,2.4696,2.4896,2.5147,2.5768,2.6532,2.7406,2.792,2.8608,2.9365,2.9386,2.9396,2.9396,2.9396,2.9399,2.9363,2.8898,2.9021,2.9397,2.8949,2.9099,2.9492,0.0,0.0,0.0,0.0,0.0,0.0,0.0,0.0,0.0,0.0,0.0,0.0,0.0,0.0,0.0,0.0,0.0,0.0,0.0,0.0,0.0,0.0,0.0,0.0,0.0,0.0,0.0,0.0,0.0,0.0,0.9017,0.9677,1.0086,0.0,0.9884,0.0,0.0,0.0,0.0,0.0,0.9465,0.9721,1.0331,1.0398,1.0602,1.0791,1.0404,0.9911,0.9413,0.0,0.0,0.0,0.0,0.7717,0.0,0.0,0.0,0.7695,0.0,0.0,1.2819,1.4375,1.5005,1.5383,0.0,0.0,0.0,0.0,0.0,0.0,0.0,0.0,0.0,0.0,0.0,0.0,0.0,0.0,0.0,0.0,0.0,0.0,0.0,0.0,0.0,0.0,0.0,0.0,2.347,2.3505,2.3505,2.3505,2.3505,2.3539,2.3618,2.3792,2.4139,2.4653,2.5329,2.62,2.7289,2.7932,2.8649,2.9419,2.9419,2.9419,2.9419,2.9419,2.9421,2.9377,2.8762,2.894,2.9456,2.8848,2.9007,2.955,0.0,0.0,0.0,0.0,0.0,0.0,0.0,0.0,0.0,0.0,0.0,0.0,0.0,0.0,0.0,0.0,0.0,0.0,0.0,0.0,0.0,0.0,0.0,0.0,0.0,0.0,0.0,0.0,0.0,0.0,0.986,1.0454,1.1112,1.173,1.0389,0.9833,0.989,0.0,0.0,0.0,0.0,1.0583,0.0,0.0,0.0,0.0,0.0,0.0,0.0,0.0,0.0,0.0,0.0,0.0,0.0,0.0,0.0,0.0,0.0,0.9686,0.0,1.2493,1.309,0.0,0.0,0.0,0.0,0.0,0.0,0.0,0.0,0.0,0.0,0.0,0.0,0.0,0.0,0.0,0.0,0.0,0.0,0.0,0.0,0.0,0.0,0.0,0.0,0.0,2.347,2.3505,2.3505,2.3505,2.3505,2.3555,2.3689,2.3949,2.4598,2.5624,2.5744,2.6646,2.8232,2.8269,2.8736,2.9492,2.9492,2.9492,2.9492,2.9492,2.9492,2.9492,2.9455,2.9503,2.9598,2.956,2.9589,2.9673,0.0,0.0,0.0,0.0,0.0,0.0,0.0,0.0,0.0,0.0,0.0,0.0,0.0,0.0,0.873,0.8665,0.8961,0.0,0.0,0.0,0.0,0.0,0.0,0.0,0.0,0.0,0.0,0.0,0.0,1.0039,0.9929,1.1007,1.1665,1.194,1.1383,1.1208,1.1272,1.0841,0.0,0.0,0.0,0.0,0.0,0.0,0.0,0.0,0.0,0.0,0.0,0.0,0.0,0.0,0.0,0.0,0.0,0.0,0.0,0.0,0.0,0.0,0.0,1.1273,1.2179,1.2848,0.0,0.0,0.0,0.0,0.0,0.0,0.0,0.0,0.0,0.0,0.0,0.0,0.0,0.0,0.0,0.0,0.0,0.0,0.0,0.0,0.0,0.0,0.0,0.0,2.347,2.3505,2.3505,2.3505,2.3578,2.3736,2.3949,2.4135,2.4737,2.5762,2.6302,2.7177,2.8316,2.8877,2.9298,2.956,2.9617,2.957,2.9502,2.9502,2.9531,2.9466,2.8372,2.8352,2.8762,2.7691,2.8017,2.8993,0.0,0.0,0.0,0.0,0.0,0.0,0.0,0.0,0.0,0.0,0.0,0.0,0.0,0.0,0.9511,0.9445,0.9707,1.0149,1.0823,1.0786,0.0,0.0,0.0,0.0,0.0,0.0,0.0,0.0,0.0,0.0,0.0,1.1197,1.1789,1.208,1.2029,1.2075,0.0,0.0,0.0,1.2334,0.0,0.0,1.2745,0.0,0.0,0.0,0.0,0.0,0.0,0.0,0.0,0.0,0.0,0.0,0.0,0.0,0.0,0.0,0.8976,0.0,0.0,0.0,0.0,1.1034,0.0,0.0,0.0,0.0,0.0,0.0,0.0,0.0,0.0,0.0,0.0,0.0,0.0,0.0,0.0,0.0,0.0,0.0,0.0,0.0,0.0,0.0,0.0,0.0,2.347,2.3505,2.351,2.356,2.3714,2.3925,2.4154,2.458,2.5263,2.6252,2.7065,2.7933,2.8793,2.9373,2.9636,2.9645,2.9681,2.9654,2.9579,2.9589,2.9636,2.9561,2.8435,2.8385,2.8803,2.7692,2.801,2.9007,0.0,0.0,0.0,0.0,0.0,0.0,0.0,0.0,0.0,0.0,0.0,0.0,0.0,0.0,0.0,1.093,1.0764,1.0938,1.1594,1.1524,0.0,0.0,0.0,0.0,0.0,0.0,0.0,0.0,0.0,0.0,0.0,0.0,1.1514,1.2221,1.2282,1.2272,1.2262,0.0,1.2994,1.2549,0.0,1.4003,1.2934,0.0,0.0,0.0,1.5092,1.4994,0.0,1.4883,0.0,0.0,0.0,0.0,0.0,0.0,0.0,0.0,0.0,0.0,0.0,0.0,0.0,0.0,1.0922,0.0,0.0,0.0,0.0,0.0,0.0,0.0,0.0,0.0,0.0,0.0,0.0,0.0,0.0,0.0,0.0,0.0,0.0,0.0,0.0,0.0,0.0,2.2678,2.347,2.3505,2.356,2.3703,2.3907,2.4105,2.4294,2.5208,2.6133,2.7088,2.795,2.8811,2.9673,2.9692,2.9701,2.9689,2.9708,2.9717,2.9717,2.9771,2.9808,2.9808,2.977,2.977,2.977,2.9732,2.9751,2.977,0.0,0.0,0.0,0.0,0.0,0.0,0.0,0.0,0.0,0.0,0.0,0.0,0.0,0.0,0.0,1.1801,1.175,1.1951,1.2579,1.2528,1.2485,1.2518,1.2455,0.0,0.0,0.0,0.0,0.0,0.0,0.0,0.0,0.0,0.0,0.0,1.2477,1.253,1.2565,1.2746,0.0,0.0,1.4341,1.4436,0.0,0.0,0.0,0.0,0.0,1.6709,1.5899,0.0,1.536,1.2844,0.0,0.0,0.0,0.0,0.0,0.0,0.8283,0.0,0.0,0.0,0.0,0.0,0.855,0.9971,0.0,0.0,0.0,0.0,0.0,0.0,0.0,0.0,0.0,0.0,0.0,0.0,0.0,0.0,0.0,0.0,0.0,0.0,0.0,0.0,2.2382,2.3273,2.3487,2.3589,2.3725,2.3907,2.4067,2.4247,2.4437,2.4747,2.5346,2.6236,2.706,2.7929,2.8854,2.9418,2.9727,2.9771,2.9815,2.9851,2.9842,2.9816,2.9808,2.9751,2.9156,2.8927,2.885,2.8283,2.845,2.9004,0.0,0.0,0.0,0.0,0.0,0.0,0.0,0.0,0.0,0.0,0.0,0.0,0.0,0.0,0.0,0.0,1.2598,1.2705,1.3024,1.295,1.2839,1.2729,1.2616,1.2467,0.0,0.0,0.0,0.0,0.0,0.0,0.0,0.0,0.0,0.0,0.0,0.0,0.0,0.0,0.0,0.0,1.5267,0.0,0.0,1.5868,1.6601,0.0,0.0,0.0,1.65,1.7967,1.613,0.0,0.0,0.0,0.0,0.0,0.0,0.0,0.0,0.0,0.0,0.0,0.0,0.0,0.8237,0.9298,1.0504,0.0,0.0,0.0,0.0,0.0,0.0,0.0,0.0,0.0,0.0,0.0,0.0,0.0,0.0,0.0,0.0,0.0,0.0,0.0,2.2774,2.3528,2.3567,2.3703,2.3855,2.4037,2.421,2.4384,2.4576,2.4987,2.5456,2.5992,2.7165,2.7999,2.8577,2.9368,2.978,2.9842,2.9868,2.9893,2.9901,2.9849,2.9841,2.9803,2.9339,2.9147,2.9088,2.8615,2.8755,2.9196,0.0,0.0,0.0,0.0,0.0,0.0,0.0,0.0,0.0,0.0,0.0,0.0,0.0,0.0,0.0,0.0,1.3268,1.3189,1.3128,1.2997,0.0,1.292,1.2731,1.2601,1.2555,0.0,0.0,0.0,0.0,0.0,0.0,0.0,0.0,0.0,0.0,0.0,0.0,0.0,0.0,1.4552,1.6334,1.6357,0.0,0.0,1.6658,0.0,1.8431,1.7988,1.6926,1.8071,1.6547,0.0,0.0,0.0,0.0,0.0,1.0783,0.0,0.0,0.0,0.0,0.0,0.0,0.0,0.8975,0.9114,0.9424,0.0,0.0,0.0,0.0,0.0,0.0,0.0,0.0,0.0,0.0,0.0,0.0,0.0,0.0,0.0,0.0,0.0,2.2296,2.2296,2.3064,2.3578,2.3721,2.3852,2.3988,2.4126,2.4312,2.4517,2.469,2.5477,2.589,2.5978,2.7555,2.8366,2.8487,2.9298,2.9748,2.9912,2.9912,2.991,2.9897,2.9897,2.9897,2.9897,2.9897,2.9897,2.9897,2.9897,2.9897,2.9897,0.0,0.0,0.0,0.0,0.0,0.0,0.0,0.0,0.0,0.0,0.0,0.0,0.0,0.0,0.0,0.0,0.0,1.3329,0.0,0.0,1.3122,1.3057,1.2977,1.2896,1.2825,1.2811,0.0,0.0,0.0,0.0,0.0,0.0,0.0,0.0,0.0,0.0,0.0,0.0,0.0,1.6695,1.5356,0.0,1.6249,1.6989,1.8037,1.9188,2.007,1.9519,1.8205,0.0,1.6131,1.5014,0.0,0.0,0.0,0.0,0.0,0.0,0.0,0.0,0.0,0.0,0.0,0.0,0.7981,0.8015,0.8071,0.0,0.0,0.0,0.0,0.0,0.0,0.0,0.0,0.0,0.0,0.0,0.0,0.0,0.0,0.0,0.0,0.0,2.2296,2.2296,2.3163,2.3732,2.3845,2.3986,2.4152,2.4339,2.449,2.4615,2.4692,2.4911,2.505,2.5058,2.6102,2.6956,2.7667,2.8461,2.9223,2.9907,2.9907,2.9907,2.9897,2.9897,2.9897,2.9897,2.9897,2.9897,2.9897,2.9897,2.9897,2.9897,0.0,0.0,0.0,0.0,0.0,0.0,0.0,0.0,0.0,0.0,0.0,0.0,0.0,0.0,0.0,0.0,0.0,0.0,0.0,0.0,1.437,1.4312,1.4229,1.4181,1.4145,1.3757,0.0,0.0,0.0,0.0,0.0,0.0,0.0,0.0,0.0,0.0,0.0,0.0,1.556,1.5893,1.5856,0.0,1.8099,1.8452,1.9127,1.9952,2.0716,2.0346,1.9326,1.8148,1.6712,0.0,0.0,1.3807,1.2523,0.0,1.1759,1.1328,0.0,0.0,0.0,0.9375,0.0,0.0,0.0,0.8538,0.8403,0.8767,0.0,0.0,0.0,0.0,0.0,0.0,0.0,0.0,0.0,0.0,0.0,0.0,0.0,0.0,0.0,0.0,2.2486,2.2918,2.3451,2.3828,2.3986,2.4142,2.4284,2.4436,2.458,2.4676,2.4749,2.4813,2.4863,2.4903,2.5754,2.6601,2.7475,2.8282,2.9104,2.9897,2.9897,2.9897,2.9897,2.9897,2.9897,2.9897,2.9897,2.9897,2.9897,2.9897,2.9897,2.9897,0.9049,0.0,0.0,0.0,0.0,0.0,0.0,0.0,0.0,0.0,0.0,0.0,0.0,0.0,0.0,0.0,0.0,0.0,0.0,0.0,0.0,1.5549,1.5489,1.5516,1.5657,1.4851,1.4399,0.0,0.0,0.0,0.0,0.0,0.0,0.0,0.0,0.0,0.0,0.0,0.0,1.5295,0.0,1.7957,1.8885,1.9031,1.9483,2.0128,2.1102,2.0828,1.9896,1.9224,0.0,1.531,1.5287,1.4344,0.0,0.0,0.0,0.0,0.0,0.0,0.0,0.0,0.0,0.8259,0.0,0.0,0.0,0.9285,0.0,0.0,0.0,0.0,0.0,0.0,0.0,0.0,0.0,0.0,0.0,0.0,0.0,0.0,0.0,0.0,2.2121,2.3292,2.3217,2.3329,2.3838,2.4155,2.4384,2.452,2.4484,2.4512,2.4595,2.4485,2.454,2.4757,2.5401,2.6254,2.7285,2.8104,2.8919,2.9696,2.984,2.9916,2.9924,2.9916,2.9897,2.9897,2.9897,2.9897,2.9897,2.9897,2.9897,2.9897,0.9174,0.9444,0.0,0.0,0.0,0.0,0.0,0.0,0.0,0.0,0.0,0.0,0.0,0.0,0.0,0.0,0.0,0.0,1.5857,0.0,0.0,0.0,1.5666,1.5933,1.6542,1.5755,1.5345,0.0,0.0,0.0,0.0,0.0,0.0,0.0,1.6058,0.0,0.0,0.0,1.7177,0.0,1.7193,1.6427,0.0,1.6674,1.822,2.02,2.1786,2.1003,1.9194,0.0,1.7046,1.4592,0.0,1.3996,1.3354,0.0,0.0,0.0,0.0,0.0,0.0,0.0,0.9421,0.0,0.0,0.0,0.786,0.7286,0.0,0.0,0.0,0.0,0.0,0.0,0.0,0.0,0.0,0.0,0.0,0.0,0.0,0.0,0.0,0.0,0.0,2.2382,2.1383,2.1389,2.295,2.3897,2.4482,2.4666,2.4005,2.3691,2.3819,2.3139,2.3139,2.384,2.3935,2.4814,2.6387,2.724,2.8116,2.8955,2.961,2.994,2.998,2.9913,2.9897,2.9897,2.9897,2.9897,2.9897,2.9897,2.9897,2.9897,1.0314,1.0426,0.0,0.0,0.0,0.0,0.0,0.0,0.0,0.0,0.0,0.0,0.0,0.0,0.0,0.0,0.0,1.8668,0.0,0.0,0.0,0.0,1.6421,0.0,1.6119,1.5336,1.5112,1.5492,1.5127,0.0,0.0,0.0,0.0,0.0,1.7026,0.0,1.8594,0.0,1.8381,0.0,0.0,0.0,0.0,1.7945,1.9638,2.1214,2.2881,2.2292,2.0848,0.0,1.9308,0.0,0.0,0.0,0.0,0.0,0.0,0.0,0.0,0.0,0.0,0.0,0.0,0.0,0.9099,0.0,0.8381,0.0,0.0,0.0,0.0,0.0,0.0,0.0,0.0,0.0,0.0,0.0,0.0,0.0,0.0,0.0,0.0,0.0,0.0,0.0,0.0,2.1307,2.2154,2.3593,2.4472,2.4637,2.44,2.4292,2.44,2.36,2.3619,2.4453,2.3935,2.4593,2.6264,2.661,2.7497,2.8821,2.9118,2.9535,3.0007,2.9964,2.994,2.9897,2.9897,2.9897,2.9897,2.9897,2.9897,2.9897,1.1729,0.0,0.0,0.0,0.0,0.0,0.0,0.0,0.0,0.0,0.0,0.0,1.5953,1.717,0.0,0.0,2.0095,2.038,0.0,0.0,1.9335,0.0,0.0,0.0,0.0,1.5651,1.5373,1.5863,0.0,0.0,0.0,0.0,0.0,0.0,0.0,1.8444,1.9587,0.0,0.0,1.787,1.8836,1.8635,1.7965,1.9918,2.1267,2.2302,2.3968,2.3568,2.2393,2.3242,2.0987,0.0,1.8843,0.0,0.0,0.0,0.0,0.0,1.358,0.0,0.0,0.0,0.0,0.0,0.0,0.0,0.0,0.0,0.0,0.0,0.0,0.0,0.0,0.0,0.0,0.0,0.0,0.0,0.0,0.0,0.0,0.0,0.0,0.0,0.0,0.0,1.9074,0.0,2.0965,2.2966,2.4128,2.4262,2.4403,2.4509,2.4565,2.3777,2.3695,2.4302,2.367,2.403,2.5259,2.5434,2.6353,2.7804,2.8243,2.8913,2.9699,2.992,2.9956,2.9897,2.9897,2.9897,2.9897,2.9897,2.9764,2.9575,1.3337,1.2745,0.0,0.0,0.0,0.0,0.0,0.0,0.0,0.0,0.0,0.0,0.0,0.0,0.0,0.0,0.0,2.2709,2.112,0.0,2.0841,0.0,0.0,1.7799,0.0,0.0,0.0,0.0,0.0,0.0,0.0,0.0,0.0,0.0,0.0,1.8098,1.8269,1.8329,1.8815,1.9468,1.8793,1.9885,2.1893,0.0,2.2353,2.3267,2.4879,0.0,0.0,2.2306,2.098,0.0,0.0,0.0,0.0,0.0,0.0,0.0,0.0,0.0,0.0,1.1922,0.0,0.0,0.0,0.0,0.899,0.0,0.0,0.0,0.0,0.0,0.0,0.0,0.0,0.0,0.0,0.0,0.0,0.0,0.0,0.0,0.0,0.0,0.0,0.0,1.5594,0.0,1.9156,2.1795,2.3308,2.3427,2.3564,2.368,2.3746,2.2931,2.2552,2.2571,2.2552,2.257,2.2657,2.3424,2.4316,2.531,2.6863,2.8034,2.8893,2.968,2.9956,2.9897,2.9897,2.9897,2.9897,2.9897,2.9404,2.8741,0.0,0.0,0.0,0.0,0.0,0.0,0.0,1.4005,0.0,0.0,0.0,0.0,0.0,2.0471,2.1457,0.0,0.0,2.2674,2.2132,2.1483,0.0,0.0,0.0,1.7508,0.0,0.0,0.0,0.0,0.0,0.0,0.0,0.0,0.0,0.0,0.0,1.8593,0.0,0.0,0.0,0.0,0.0,2.1439,2.3205,0.0,0.0,2.4288,2.5922,2.5824,0.0,2.5169,2.3537,2.1462,2.1649,2.0311,1.8754,1.9198,1.8569,0.0,0.0,0.0,1.5089,1.2244,0.0,0.0,0.0,0.0,0.0,0.0,0.0,0.0,0.0,0.0,0.0,0.0,0.0,0.0,0.0,0.0,0.0,0.0,0.0,0.0,0.0,0.0,0.0,1.2115,1.4208,1.6305,0.0,2.0864,2.2862,2.4156,2.4309,2.4445,2.4567,2.3714,2.3581,2.4131,2.3032,2.2798,2.3341,2.3044,2.3701,2.5165,2.6236,2.7507,2.8863,2.9673,2.9956,2.9897,2.9897,2.9897,2.9897,2.9897,2.9385,2.8627,1.3544,0.0,0.0,0.0,0.0,0.0,0.0,0.0,0.0,0.0,1.7537,0.0,2.0499,0.0,2.1707,0.0,2.3019,2.3103,2.3071,2.2223,0.0,2.1271,1.9393,0.0,0.0,0.0,0.0,0.0,0.0,1.737,0.0,0.0,0.0,0.0,0.0,1.8939,1.9782,0.0,2.0858,0.0,0.0,2.3876,0.0,0.0,2.5464,0.0,0.0,2.7151,2.6757,2.6946,2.5504,2.3647,2.3826,2.231,2.0563,2.0997,2.0205,1.8945,1.7834,1.733,0.0,0.0,1.362,0.0,1.1807,0.0,0.0,0.0,0.0,0.0,0.0,0.0,0.0,0.0,0.0,0.0,0.0,0.5481,0.0,0.0,0.0,0.0,0.0,0.0,0.9784,1.0115,1.2604,1.4993,0.0,0.0,2.1657,2.3196,2.3679,2.4103,2.4528,2.3973,2.3973,2.4529,2.3146,2.2646,2.2885,2.202,2.2556,2.4276,2.5355,2.6797,2.8411,2.9532,2.9956,2.9897,2.9897,2.9897,2.9897,2.9897,2.9204,2.8127,0.0,0.0,0.0,0.0,1.3624,0.0,0.0,0.0,1.5847,0.0,1.8665,1.9914,2.1562,2.2475,2.2978,2.2988,2.3665,2.4064,2.3927,2.3153,0.0,0.0,2.143,2.0453,2.1075,0.0,0.0,0.0,0.0,0.0,0.0,0.0,0.0,0.0,1.8584,0.0,2.0005,2.0014,2.1492,2.4024,2.636,2.6837,2.6336,2.7955,0.0,2.52,2.7561,2.8411,2.8298,2.7533,2.6729,2.5931,2.5193,2.4413,2.3732,2.3562,2.2961,2.1989,2.0322,1.9346,1.8244,1.5867,0.0,0.0,0.0,0.0,1.3049,0.0,0.0,0.0,0.0,0.0,0.0,0.0,0.0,0.0,0.0,0.0,0.0,0.0,0.0,0.0,0.0,0.7565,0.8422,0.9179,1.081,1.2861,0.0,0.0,0.0,2.0838,2.18,2.2751,2.37,2.3695,2.3727,2.3746,2.295,2.2153,2.1384,2.0478,2.1013,2.2742,2.4265,2.5904,2.7633,2.9266,2.9918,2.9897,2.9897,2.9897,2.9905,2.9867,2.8848,2.7274,1.3818,1.3861,1.3894,0.0,1.3891,1.4323,0.0,0.0,0.0,0.0,2.1441,2.2435,2.3553,2.3876,2.4032,2.4085,2.4183,0.0,0.0,0.0,0.0,2.3888,2.2131,2.1474,2.2178,2.0536,0.0,1.9653,0.0,0.0,1.8649,0.0,0.0,0.0,0.0,0.0,2.0088,2.0127,2.165,2.4134,2.5393,2.5813,0.0,0.0,2.7379,2.6492,2.7997,2.8549,2.8531,2.8314,2.7712,2.6892,2.6103,2.5308,2.4537,2.3912,2.2749,2.155,2.105,1.9928,1.8456,1.6743,1.6733,1.6722,0.0,0.0,0.0,0.0,0.0,0.0,0.0,0.0,0.0,0.0,0.0,0.0,0.0,0.0,0.0,0.7269,0.0,0.0,0.6147,0.7268,0.8205,0.846,0.9992,0.0,0.0,0.0,0.0,2.1592,2.2046,2.2705,2.37,2.3695,2.4036,2.4662,2.3809,2.3278,2.3038,2.1566,2.1819,2.343,2.386,2.5358,2.7577,2.8613,2.9374,2.9897,2.9897,2.9956,2.9969,2.9323,2.8446,2.744,1.4565,0.0,0.0,1.47,0.0,0.0,1.6609,0.0,0.0,2.1522,2.2611,0.0,2.44,2.4518,2.4534,2.4534,2.4459,0.0,2.4401,0.0,0.0,2.4115,2.3188,2.2865,2.3242,2.1938,0.0,2.067,0.0,0.0,1.8852,0.0,0.0,0.0,0.0,1.9606,2.0787,2.1971,2.3363,2.4873,2.6122,0.0,0.0,2.816,2.8364,2.8066,2.8728,2.8892,2.8833,2.8833,2.8303,2.7584,2.7104,2.6144,2.5129,2.4619,2.3325,2.2024,2.1945,2.0734,1.9316,1.844,1.8294,1.8047,1.6835,1.6598,1.6652,0.0,0.0,0.0,0.0,0.0,0.0,0.0,0.0,0.0,0.0,0.0,0.0,0.0,0.8647,0.0,0.6909,0.8171,0.9001,0.8744,0.989,0.0,0.0,0.0,0.0,2.0303,2.1216,2.2145,2.3125,2.3158,2.3423,2.3904,2.3411,2.3177,2.3139,2.2192,2.2476,2.3727,2.4093,2.5288,2.7013,2.821,2.8968,2.9423,2.9831,3.0042,3.0042,2.9236,2.8377,2.7541,0.0,0.0,0.0,0.0,0.0,0.0,0.0,1.8952,0.0,2.2457,0.0,2.4192,2.4898,2.5023,2.4986,2.4823,0.0,2.4703,2.4555,2.4528,2.4461,2.4348,2.4275,2.421,2.4143,2.3249,0.0,0.0,2.0599,1.975,1.893,0.0,0.0,0.0,0.0,0.0,0.0,2.4144,2.5346,0.0,2.7475,2.8269,2.8428,2.9129,2.9438,2.9494,2.923,2.9136,2.9137,2.9137,2.8693,2.8138,2.7986,2.6886,2.564,2.5411,2.4179,2.2905,2.2781,2.1634,2.0461,2.03,1.9774,1.9099,1.8289,1.8161,1.8188,1.8185,1.7119,0.0,0.0,0.0,0.0,0.0,0.0,0.0,0.0,0.0,0.0,0.0,0.0,0.0,0.8346,0.9476,1.0034,0.945,1.006,0.0,0.0,0.0,0.0,0.0,2.0,0.0,2.223,0.0,2.2381,2.2495,2.2609,2.2665,2.2665,2.2665,2.3101,2.3916,2.4548,2.542,2.6482,2.7934,2.8673,2.8981,2.9802,3.0152,3.0139,2.9511,2.8697,2.7783,0.0,0.0,0.0,0.0,0.0,2.0828,2.133,2.279,2.4449,2.6147,2.6552,2.6775,2.6963,2.6949,2.6654,2.5977,2.5823,0.0,0.0,0.0,0.0,2.4551,2.4547,2.4505,2.4426,2.3558,2.2659,0.0,2.0916,2.0018,1.9074,1.9074,0.0,0.0,0.0,0.0,2.0844,2.3409,0.0,2.4991,2.7396,2.8432,2.8567,2.87,2.9171,2.9567,2.8166,2.839,2.9343,2.9283,2.918,2.8957,2.8278,2.7425,2.6506,2.5697,2.4321,2.304,2.2978,2.2263,2.1382,2.0694,2.0478,2.0212,1.9402,1.9231,1.9213,1.9177,1.8901,1.8535,1.8091,0.0,0.0,0.0,0.0,0.0,0.0,0.0,0.0,0.0,0.0,1.0641,0.0,0.9418,0.9534,0.9407,0.0,0.0,0.0,0.0,0.0,0.0,0.0,0.0,0.0,0.0,0.0,2.2514,2.3177,2.348,2.348,2.348,2.3961,2.4738,2.4169,2.5193,2.7304,2.7581,2.8556,2.9878,3.0102,3.0228,3.0285,3.0257,2.9736,2.8806,0.0,0.0,0.0,0.0,0.0,0.0,0.0,2.6568,0.0,2.7523,2.7537,2.7572,2.7657,2.721,2.6758,2.6339,2.5827,2.5352,2.4939,2.4805,2.493,2.5316,2.533,0.0,2.5891,2.5449,2.4348,2.2574,2.2124,2.0966,1.9204,1.9174,1.915,1.9186,0.0,2.0792,0.0,0.0,0.0,2.544,2.6688,2.7541,2.8039,2.8031,2.8534,2.9055,2.7803,2.806,2.8904,2.8437,2.854,2.8727,2.7867,2.7028,2.6291,2.58,2.4798,2.3798,2.3737,2.3128,2.2434,2.2048,2.1657,2.1274,2.0882,2.0797,2.0782,2.0717,2.0639,2.0175,1.8782,1.7093,0.0,0.0,0.0,0.0,0.0,0.0,0.0,0.0,0.0,0.0,0.0,0.0,0.0,0.0,0.0,0.0,0.0,0.0,0.0,0.0,0.0,0.0,0.0,0.0,0.0,2.2514,2.331,2.3689,2.3727,2.4169,2.4605,2.5003,2.5003,2.5686,2.6906,2.7804,2.896,3.0159,3.0228,3.031,3.0367,3.0016,2.9622,2.9115,0.0,1.9186,0.0,0.0,2.3866,0.0,2.753,2.9239,2.9835,2.8459,2.8274,2.8286,2.8347,2.7729,2.715,2.6724,2.6059,2.5476,2.5056,2.5124,2.5466,2.6035,2.6057,2.6419,2.7207,2.7018,2.5883,0.0,2.3378,2.2021,1.9842,1.9434,1.9431,0.0,0.0,0.0,0.0,0.0,2.5064,2.5808,2.6208,2.6824,2.7482,2.7312,2.7748,2.8336,2.7294,2.7551,2.8225,2.7167,2.7447,2.811,2.7385,2.6572,2.5916,2.5838,2.5207,2.4539,2.4459,2.3986,2.3456,2.3293,2.2765,2.2245,2.206,2.2015,2.2009,2.1916,2.1954,2.144,1.9577,1.8428,0.0,0.0,0.0,0.0,0.0,0.0,0.0,0.0,0.0,0.0,1.2002,0.0,0.0,0.0,0.0,0.0,0.0,0.0,0.0,0.0,0.0,0.0,2.1884,0.0,2.2324,0.0,2.3139,2.3537,2.3727,2.4416,2.4927,2.5288,2.5913,2.6413,2.6864,2.8425,2.9527,3.0215,3.0298,3.0279,3.0157,2.9525,2.9168,2.8883,0.0,0.0,0.0,0.0,0.0,0.0,0.0,2.9403,3.04,3.0179,3.0142,3.0142,3.0167,3.0028,2.9319,2.7808,2.7533,2.6777,2.5193,2.5768,2.621,2.627,2.6216,2.6559,2.7365,2.6601,2.6029,0.0,0.0,2.2781,2.1612,2.0103,2.0188,0.0,0.0,0.0,0.0,2.4298,2.4806,2.5144,2.6666,2.7369,2.7417,2.6683,2.6946,2.7501,2.5894,2.6338,2.7449,2.5775,2.6193,2.7398,2.7301,2.6691,2.5987,2.5916,2.5329,2.4666,2.4607,2.4534,2.4292,2.3571,2.3313,2.3063,2.2271,2.2099,2.2046,2.1922,2.2273,2.2087,2.0326,2.1006,2.134,0.0,0.0,0.0,0.0,0.0,0.0,0.0,0.0,0.0,0.0,1.2668,0.0,0.0,0.0,0.0,0.0,0.0,0.0,0.0,0.0,1.9209,2.021,2.0954,0.0,2.2495,2.2571,2.2988,2.3689,2.3784,2.4643,2.6084,2.6178,2.711,2.8628,2.9596,3.0068,3.0208,3.034,2.9946,2.9313,2.9303,2.8758,2.7919,0.0,0.0,0.0,0.0,0.0,0.0,0.0,3.0182,3.0618,3.0575,3.0558,3.0516,3.052,2.9549,2.8637,2.7913,2.6874,2.5951,2.5204,2.59,2.6346,2.6307,2.6787,2.717,2.7456,2.7581,2.7123,0.0,0.0,0.0,2.2047,2.0364,0.0,0.0,0.0,2.2853,2.3577,2.4488,2.4915,2.5026,2.5739,2.6046,2.6022,2.5755,2.6186,2.6771,2.5579,2.5929,2.6746,2.5538,2.5804,2.6541,2.5982,2.5563,2.5273,2.5257,2.5016,2.4745,2.4687,2.466,2.4586,2.4267,2.4169,2.4097,2.3741,2.3635,2.3561,2.3471,2.3511,2.3302,2.2511,2.203,2.166,0.0,0.0,0.0,0.0,0.0,0.0,0.0,0.0,0.0,0.0,0.0,1.283,0.0,0.0,0.0,0.0,0.0,0.0,1.6458,0.0,1.9986,2.149,2.1813,2.2665,2.3999,2.3999,2.4169,2.4472,2.4472,2.5382,2.7013,2.7498,2.8427,2.9604,3.0002,3.0206,3.0279,3.0352,3.0199,2.9853,2.9408,2.865,2.772,2.6118,0.0,2.684,0.0,2.8881,2.931,3.0546,3.074,3.0735,3.0723,3.0688,3.0641,3.0633,2.9287,2.8266,2.7971,2.6588,2.5577,2.5283,2.6011,2.6432,2.6365,2.6924,0.0,2.7523,2.7823,2.7505,2.6511,2.5355,0.0,0.0,0.0,0.0,0.0,2.3126,2.3865,2.4417,2.4839,2.5044,2.507,2.5113,2.5147,2.5168,2.5209,2.562,2.6088,2.5468,2.5641,2.6082,2.5436,2.5543,2.5811,2.509,2.4851,2.4849,2.4832,2.4828,2.4787,2.4746,2.473,2.4723,2.4723,2.4703,2.4709,2.4709,2.4658,2.4574,2.4491,2.4294,2.4085,2.3947,2.289,2.2208,0.0,0.0,0.0,0.0,0.0,0.0,0.0,1.8708,1.7521,1.5492,1.4537,0.0,0.0,0.0,0.0,0.0,0.0,0.0,0.0,0.0,0.0,0.0,0.0,2.3089,2.4264,2.4264,2.4397,2.4643,2.5382,2.6501,2.7904,2.8703,2.9433,3.008,3.0142,3.0199,3.0253,3.0348,3.0206,2.9862,2.9083,2.8197,2.7253,2.7821,2.8179,2.8712,3.0468,3.0761,3.0761,3.08,3.08,3.0792,3.0804,3.079,3.0774,3.0704,2.9842,2.8954,2.8175,2.7224,2.6316,2.5449,2.6155,2.6579,0.0,0.0,2.6784,2.758,2.6772,2.6719,2.7478,0.0,0.0,2.4727,0.0,0.0,2.4728,2.4016,2.4657,2.6218,2.5431,2.5143,2.5206,2.5193,2.5245,2.5306,2.5306,2.5346,2.5389,2.5337,2.5346,2.5408,2.5326,2.5306,2.5261,2.5069,2.4993,2.4977,2.4924,2.4856,2.4794,2.4794,2.4809,2.4798,2.4798,2.4745,2.4709,2.4709,2.4658,2.4566,2.4438,2.4284,2.4154,2.4026,2.3878,2.3746,2.3693,0.0,0.0,0.0,0.0,0.0,0.0,1.9029,1.8735,1.5598,0.0,0.0,0.0,0.0,0.0,0.0,0.0,0.0,1.7285,1.8146,0.0,2.0026,2.1661,2.2514,2.2533,2.2533,2.295,2.3803,2.6311,2.7922,2.8741,2.9537,2.9921,3.0014,3.0072,3.0101,3.0123,3.0254,2.9723,2.883,2.8089,2.7222,2.6288,2.9921,3.0039,3.0215,3.0762,3.0879,3.0879,3.0879,3.0839,3.0817,3.0869,3.0825,3.0794,3.0765,2.9444,2.843,0.0,2.6746,2.5762,0.0,2.6212,2.6381,2.5779,2.6268,2.639,2.6044,2.6301,2.6534,2.6759,0.0,0.0,0.0,2.336,2.3682,2.4201,2.4554,2.5034,2.5548,2.5332,2.5245,2.5271,2.5312,2.5346,2.5374,2.5369,2.5415,2.5459,2.5432,2.5455,2.5455,2.5387,2.5364,2.5365,2.5288,2.5204,2.5106,2.5,2.4947,2.4926,2.4884,2.4834,2.4798,2.4798,2.4783,2.4761,2.4761,2.4715,2.4663,2.4617,2.4508,2.4375,2.4284,2.4142,2.3966,2.3845,0.0,0.0,0.0,0.0,0.0,0.0,2.064,2.0128,0.0,1.8636,0.0,0.0,0.0,0.0,0.0,0.0,0.0,0.0,1.9288,0.0,2.1699,2.2779,2.331,2.331,2.331,2.3771,2.4662,2.7176,2.8457,2.8741,2.9556,2.994,3.0014,3.0068,3.0091,3.0049,2.9537,2.9511,2.9556,2.8166,2.7827,2.7904,3.0845,3.0864,3.0864,3.0862,3.0869,3.0853,3.0853,3.0857,3.0859,3.0898,3.0857,3.0833,3.0805,2.9544,0.0,2.8178,2.6819,2.5857,2.5526,2.5963,2.6007,2.5453,2.5889,2.588,2.5356,0.0,0.0,2.5998,2.5417,2.4599,2.3596,2.4137,2.4402,2.4443,2.4993,2.5255,2.5282,2.5312,2.5332,2.5332,2.5388,2.5415,2.5436,2.5448,2.546,2.5507,2.5507,2.5507,2.5488,2.5456,2.5444,2.5427,2.541,2.5341,2.5248,2.5145,2.5087,2.5063,2.4987,2.4921,2.4877,2.4889,2.4842,2.4794,2.4798,2.478,2.4726,2.4717,2.4626,2.4551,2.4455,2.4312,2.4171,2.4037,0.0,2.2936,0.0,0.0,0.0,0.0,0.0,0.0,0.0,1.9747,0.0,0.0,0.0,0.0,0.0,0.0,0.0,1.8727,2.0638,0.0,2.2495,2.3291,2.3556,2.3253,2.3885,2.4795,2.5989,2.785,2.8855,2.9177,2.9688,2.9913,2.9964,3.003,3.0046,2.9973,2.953,2.9622,2.9859,2.8546,2.8346,2.8636,3.0782,3.0789,0.0,0.0,3.0783,0.0,3.0798,3.0848,3.0894,3.0896,3.0898,3.0879,3.0818,3.0085,2.9242,2.8372,0.0,0.0,0.0,2.5547,2.5495,2.5496,2.5437,0.0,2.5415,2.5416,2.537,2.5313,2.5241,2.5215,2.5217,2.5215,2.525,2.5316,2.5321,2.5332,2.5403,2.5407,2.541,2.541,2.541,2.5437,2.5496,2.5496,2.5496,2.5496,2.5492,2.5492,2.5492,2.5511,2.5507,2.5488,2.5429,2.5401,2.5385,2.5327,2.5261,2.5193,2.5126,2.5063,2.5018,2.4998,2.491,2.4813,2.4821,2.4806,2.4783,2.4732,2.4746,2.476,2.4622,2.4538,2.4459,2.433,2.3519,2.314,2.3818,0.0,0.0,0.0,0.0,0.0,0.0,1.9764,2.0939,0.0,0.0,0.0,0.0,0.0,0.0,2.1167,2.2042,2.2559,2.2665,2.3461,2.3499,2.2779,2.4397,2.5989,2.7532,2.8389,2.9196,2.9897,2.9897,2.9897,2.9897,2.9964,2.9956,2.9905,2.9981,2.9958,2.9802,2.9072,2.8799,2.8684,0.0,0.0,3.0723,3.0714,3.0723,3.0733,3.0798,3.0812,3.0822,3.0812,3.0826,3.0817,3.08,3.0663,3.0227,2.9336,2.7794,2.6797,2.6587,2.5954,2.5551,2.5501,2.5479,2.5476,2.5476,2.5472,2.5432,2.5373,2.5356,2.5332,2.5288,2.5332,2.5366,2.538,2.5373,2.5404,2.5491,2.5484,2.5488,2.5475,2.5475,2.5498,2.5501,2.5501,2.5501,2.5498,2.5499,2.5491,2.5507,2.5496,2.5507,2.5507,2.5484,2.5484,2.5468,2.5398,2.5332,2.5253,2.5187,2.5126,2.5081,2.5076,2.5004,2.4943,2.4889,2.4834,2.4809,2.4783,2.5228,2.561,2.5566,2.5517,2.5438,2.5365,2.4552,2.3989,2.4107,0.0,0.0,0.0,2.1803,2.1403,2.105,2.1943,2.1866,0.0,0.0,0.0,0.0,0.0,2.2545,2.2104,2.2943,2.372,2.4397,2.5212,2.5515,2.5344,2.6406,2.7115,2.7551,2.8976,2.9726,2.9897,2.9897,2.9897,2.9897,2.9924,2.9905,2.984,2.9257,2.9382,2.9802,2.9014,2.9109,2.9593,3.061,3.0621,3.0658,3.0649,3.0688,3.0706,3.0751,3.0747,3.0743,3.0756,3.078,3.0798,3.079,3.0838,3.0683,3.0232,2.8569,2.7367,2.6969,2.6097,2.5574,2.5547,2.5515,2.5506,2.5503,2.5496,2.548,2.5459,2.5419,2.5402,2.5397,2.5402,2.5419,2.5455,2.5456,2.548,2.5503,2.549,2.5505,2.5495,2.5495,2.5495,2.5495,2.5495,2.5495,2.5492,2.5506,2.5495,2.5495,2.5496,2.5507,2.5507,2.5507,2.5507,2.5484,2.5451,2.5402,2.5336,2.5298,2.5238,2.5181,2.5126,2.5044,2.4972,2.4924,2.487,2.4955,2.5326,2.5686,2.607,2.6472,2.6153,2.5841,2.5797,2.4361,2.3504,2.4236,2.2987,0.0,2.3093,2.2819,2.2582,2.2593,2.3353,2.3276,2.1935,0.0,0.0,2.3283,2.4282,2.4633,2.4145,2.4976,2.5667,2.6141,2.6577,2.6975,2.7346,2.782,2.8237,2.8635,2.9499,2.9897,2.9897,2.9897,2.9897,2.9897,2.9897,2.9897,2.9859,2.9423,2.9518,2.9859,2.9404,2.9518,2.9897,3.0506,3.0539,3.0585,3.0589,3.0634,3.0671,3.0674,3.0672,3.0671,3.0686,3.0738,3.0786,3.0806,3.081,3.0838,3.0898,2.931,2.7987,2.7238,2.6192,2.5612,2.5609,2.555,2.5515,2.5503,2.5499,2.5507,2.5507,2.5433,2.5437,2.5492,2.5437,2.5449,2.5503,2.5503,2.5517,2.5518,2.5518,2.5522,2.5525,2.5525,2.5528,2.5512,2.5528,2.5525,2.5522,2.5517,2.5526,2.5503,2.5499,2.5492,2.5492,2.5511,2.5507,2.5507,2.5507,2.5456,2.5401,2.54,2.5356,2.528,2.5144,2.5051,2.5005,2.4926,2.4993,2.5274,2.5955,2.6257,2.6572,2.7183,2.6658,2.5991,2.5597,2.3665,2.2677,2.3979,0.0,2.1772,2.3335,2.3448,2.3423,2.3423,2.4041,2.4452,2.4452,2.4745,0.0,0.0,2.6435,2.6627,2.6741,2.7252,2.757,2.7676,2.779,2.8199,2.8874,2.8874,2.9233,2.9897,2.9897,2.9897,2.9897,2.9897,2.9897,2.9897,2.9897,2.9897,2.9897,2.9897,2.9897,2.9897,2.9897,2.9897,2.9897,3.049,3.05,3.0515,3.0511,3.0525,3.054,3.0524,3.0582,3.0626,3.0611,3.0668,3.0743,3.0784,3.0792,3.083,3.0897,2.9316,2.8239,2.811,2.6576,2.5658,2.5602,2.559,2.5553,2.5492,2.5491,2.5507,2.5507,2.5488,2.5496,2.5491,2.5491,2.5483,2.5508,2.5508,2.5538,2.5573,2.5573,2.5589,2.5571,2.5571,2.5582,2.5576,2.5579,2.5571,2.5587,2.558,2.559,2.5583,2.5526,2.5491,2.5511,2.5496,2.5507,2.5507,2.5507,2.5488,2.546,2.5421,2.5351,2.5276,2.5206,2.5125,2.5063,2.5005,2.5475,2.5955,2.608,2.7228,2.8016,2.7412,2.7183,2.6379,2.4227,2.3469,2.3042,0.0,0.0,2.3375,2.4367,2.3893,2.3486,2.3486,2.3646,2.3762,2.3762,2.508,2.6254,2.7146,2.7903,2.8619,2.9301,2.8142,2.7828,2.8514,2.9196,2.9593,2.9707,2.9707,2.9783,2.9897,2.9897,2.9897,2.9897,2.9897,2.9897,2.9897,2.9897,2.9897,2.9897,2.9897,2.9897,2.9897,2.9897,2.9897,2.9897,3.0389,3.0417,3.0444,3.0449,3.0485,3.0505,3.0496,3.054,3.0564,3.0606,3.0638,3.0678,3.0747,3.0771,3.0816,3.083,2.9294,2.8301,2.8298,2.6668,2.5697,2.5658,2.5626,2.5563,2.5499,2.5503,2.5503,2.5503,2.5503,2.5495,2.5498,2.5498,2.5527,2.5548,2.5548,2.556,2.5601,2.5601,2.5596,2.5598,2.5598,2.56,2.5608,2.5607,2.5601,2.5599,2.5609,2.5599,2.5593,2.5513,2.5495,2.5495,2.5496,2.5507,2.5507,2.5507,2.5507,2.5484,2.5425,2.5382,2.5341,2.5271,2.5201,2.5239,2.5628,2.5967,2.6448,2.7316,2.8099,2.8472,2.8075,2.7627,2.6766,2.5163,2.3759,0.0,0.0,2.3173,2.3324,2.4606,2.4437,2.4383,2.4862,2.4933,2.5129,2.557,2.6734,2.7626,2.8012,2.8877,2.9518,2.9897,2.9185,2.8976,2.9347,2.9707,2.9897,2.9897,2.9897,2.9897,2.9897,2.9897,2.9897,2.9897,2.9897,2.9897,2.9897,2.9897,2.9897,2.9897,2.9897,2.9897,2.9897,2.9897,2.9897,2.9897,3.0304,3.0352,3.0406,3.0406,3.0447,3.0483,3.0483,3.0488,3.0509,3.0574,3.0586,3.0634,3.0688,3.0765,3.0799,3.0799,2.9445,2.8514,2.83,2.6853,2.5907,2.5702,2.565,2.5581,2.5515,2.5508,2.549,2.5506,2.5506,2.5517,2.5522,2.5522,2.5551,2.5609,2.5609,2.5604,2.5607,2.5607,2.5598,2.5593,2.5593,2.5615,2.5615,2.5617,2.559,2.5604,2.5598,2.5605,2.5596,2.552,2.5506,2.5503,2.5496,2.5507,2.5507,2.5507,2.5507,2.5488,2.5433,2.5412,2.5382,2.5337,2.5276,2.5417,2.6162,2.6465,2.6987,2.8423,2.882,2.8853,2.8655,2.8064,2.7145,2.5774,0.0,0.0,0.0,2.335,2.3218,2.4624,2.4808,2.5099,2.5767,2.6001,2.6461,2.7274,2.8137,2.8693,2.889,2.9539,2.9897,2.9897,2.9897,2.9897,2.9897,2.9897,2.9897,2.9897,2.9897,2.9897,2.9897,2.9897,2.9897,2.9897,2.9897,2.9897,2.9897,2.9897,2.9897,2.9897,2.9897,2.9897,2.9897,2.9897,2.9897,2.9897,3.0298,3.0348,3.0404,3.0404,3.041,3.041,3.041,3.0419,3.0433,3.0504,3.0559,3.0633,3.0688,3.0759,3.0802,3.0798,3.0006,2.9152,2.8356,2.742,2.6543,2.5747,2.5632,2.5591,2.5596,2.5531,2.5509,2.5492,2.5492,2.5522,2.5596,2.5596,2.5592,2.5599,2.5599,2.5609,2.5608,2.5608,2.5593,2.5604,2.5604,2.565,2.5695,2.5626,2.5595,2.5605,2.5604,2.561,2.5595,2.5525,2.5492,2.5505,2.5503,2.5507,2.5507,2.5507,2.5507,2.5507,2.5488,2.5452,2.5393,2.5387,2.5346,2.5496,2.6221,2.6912,2.7668,2.8609,2.9341,2.9585,2.8828,2.8588,2.7494,2.4375,0.0,0.0,2.2772,2.3124,2.3827,2.47,2.4856,2.4929,2.4986,2.5714,2.655,2.7422,2.8248,2.9017,2.9756,2.9878,2.9897,2.9897,2.9897,2.9897,2.9897,2.9897,2.9897,2.9897,2.9897,2.9897,2.9897,2.9897,2.9897,2.9897,2.9897,2.9897,2.9897,2.9897,2.9897,2.9897,2.9897,2.9897,2.9897,2.9897,2.9897,2.9897,3.0286,3.0317,3.0348,3.0379,3.0404,3.0404,3.0404,3.0396,3.0414,3.0428,3.0491,3.0558,3.0634,3.0694,3.0747,3.0796,3.0057,2.9228,2.8351,2.7476,2.6601,2.5736,2.5681,2.5639,2.5591,2.5581,2.5557,2.5559,2.557,2.5573,2.5604,2.5604,2.5599,2.5598,2.5598,2.5608,2.56,2.56,2.5626,2.5654,2.5654,2.5675,2.5697,2.5628,2.56,2.5605,2.5607,2.5593,2.5595,2.5525,2.5495,2.5508,2.5503,2.5507,2.5507,2.5507,2.5507,2.5507,2.5507,2.5484,2.5452,2.5412,2.5783,2.6366,2.7094,2.7848,2.8602,2.944,2.9763,2.9499,2.8199,2.7926,2.7161,2.4876,0.0,2.4742,2.4098,2.4288,2.4773,2.5561,2.526,2.5362,2.6411,2.6323,2.6766,2.8142,2.8532,2.9044,2.9859,2.9897,2.9897,2.9897,2.9897,2.9897,2.9897,2.9897,2.9897,2.9897,2.9897,2.9897,2.9897,2.9897,2.9897,2.9897,2.9897,2.9897,2.9897,2.9897,2.9897,2.9897,2.9897,2.9897,2.9897,2.9897,2.9897,2.9897,3.0279,3.0299,3.0316,3.0398,3.0404,3.0404,3.0404,3.0404,3.0421,3.0428,3.0465,3.0525,3.0618,3.0678,3.0733,3.0784,3.0306,2.9616,2.8756,2.7647,2.6618,2.5741,2.5697,2.5686,2.563,2.5627,2.5622,2.5603,2.5609,2.5604,2.559,2.559,2.56,2.5595,2.5595,2.56,2.563,2.563,2.5654,2.5699,2.5699,2.5699,2.5699,2.5652,2.5624,2.5593,2.5595,2.5601,2.5582,2.5528,2.5495,2.5508,2.5503,2.5507,2.5507,2.5507,2.5507,2.5507,2.5507,2.5507,2.5488,2.5433,2.6073,2.6906,2.7664,2.84,2.9071,2.9613,2.9631,2.9125,2.7759,2.7494,2.7039,2.561,2.5382,2.5288,2.5041,2.5003,2.5193,2.5761,2.5344,2.5439,2.6603,2.6652,2.7088,2.8237,2.8798,2.9328,2.9878,2.9897,2.9897,2.9897,2.9897,2.9897,2.9897,2.9897,2.9897,2.9897,2.9897,2.9897,2.9897,2.9897,2.9897,2.9897,2.9897,2.9897,2.9897,2.9897,2.9897,2.9897,2.9897,3.0067,3.0313,3.0313,3.0313,3.0313,3.0279,3.0299,3.0316,3.0398,3.0404,3.0404,3.0404,3.0404,3.0427,3.0493,3.0504,3.0545,3.068,3.0704,3.0725,3.0794,3.0794,3.047,2.9631,2.7953,2.6612,2.5741,2.5703,2.5699,2.5694,2.5699,2.5662,2.5601,2.5591,2.56,2.5608,2.5608,2.5595,2.5607,2.5607,2.563,2.5699,2.5699,2.5699,2.5699,2.5699,2.5699,2.5699,2.5699,2.5654,2.5604,2.5593,2.5598,2.5596,2.5512,2.5495,2.5508,2.5503,2.5507,2.5507,2.5507,2.5507,2.5507,2.5507,2.5507,2.5507,2.5507,2.609,2.6919,2.7716,2.847,2.8964,2.8906,2.8841,2.8537,2.7672,2.7513,2.7228,2.6349,2.6197,2.5913,2.5117,2.5003,2.5003,2.5003,2.5003,2.5003,2.5003,2.6508,2.7494,2.7494,2.8995,2.9897,2.9897,2.9897,2.9897,2.9897,2.9897,2.9897,2.9897,2.9897,2.9897,2.9897,2.9897,2.9897,2.9897,2.9897,2.9897,2.9897,2.9897,2.9897,2.9897,2.9897,2.9897,2.9916,2.9916,3.0446,3.1204,3.1204,3.1204,3.1204,3.0299,3.0299,3.0324,3.0392,3.0404,3.0404,3.0404,3.0402,3.0406,3.0428,3.05,3.0588,3.0637,3.0678,3.0733,3.0784,3.0809,3.0195,2.8771,2.7621,2.6608,2.5733,2.57,2.5703,2.5703,2.5699,2.5688,2.5669,2.5675,2.5656,2.56,2.56,2.5626,2.5675,2.5675,2.5677,2.5699,2.5699,2.5699,2.5699,2.5699,2.5699,2.5699,2.5699,2.5654,2.5604,2.5593,2.5598,2.5596,2.5583,2.5544,2.5508,2.5503,2.5507,2.5507,2.5507,2.5507,2.5507,2.5507,2.5507,2.5507,2.5507,2.6102,2.6767,2.6996,2.7633,2.8315,2.8868,2.8923,2.8774,2.8467,2.84,2.8131,2.7258,2.6591,2.6122,2.5875,2.5363,2.5212,2.5761,2.5344,2.5212,2.578,2.6292,2.6842,2.7456,2.8995,2.9897,2.9897,2.9897,2.9897,2.9897,2.9897,2.9897,2.9897,2.9897,2.9897,2.9897,2.9897,2.9897,2.9897,2.9897,2.9897,2.9897,2.9897,2.9897,2.9897,2.9897,3.0257,3.0806,3.0806,3.1318,3.2037,3.2037,3.2037,3.1962,3.0299,3.0292,3.0311,3.0392,3.0404,3.041,3.0402,3.04,3.0428,3.046,3.0559,3.0604,3.0649,3.0697,3.0765,3.0792,3.0519,2.9747,2.8381,2.7484,2.6606,2.5746,2.5694,2.5698,2.57,2.5703,2.57,2.5692,2.5698,2.5681,2.5644,2.5636,2.5654,2.5699,2.5699,2.5699,2.5699,2.5699,2.5699,2.5699,2.5699,2.5699,2.5699,2.5699,2.5675,2.565,2.5615,2.5603,2.5607,2.5592,2.556,2.5498,2.5507,2.5496,2.5507,2.5507,2.5507,2.5507,2.5507,2.5507,2.5507,2.5507,2.6107,2.6702,2.6709,2.7287,2.7972,2.8453,2.8517,2.844,2.8382,2.8367,2.8179,2.7625,2.6832,2.6272,2.6245,2.582,2.5681,2.6141,2.6084,2.6178,2.6671,2.6709,2.705,2.7922,2.9158,2.9897,2.9897,2.9897,2.9897,2.9897,2.9897,2.9897,2.9897,2.9897,2.9897,2.9897,2.9897,2.9897,2.9897,2.9897,2.9897,2.9878,2.9556,2.9612,2.9897,2.9897,3.0408,3.1223,3.1545,3.2179,3.2918,3.2918,3.2918,3.2842,3.0299,3.0292,3.0311,3.0392,3.0404,3.0396,3.0392,3.0417,3.0455,3.0574,3.061,3.063,3.0697,3.0769,3.08,3.0791,3.0057,2.9221,2.8362,2.7484,2.6606,2.5746,2.5707,2.5709,2.5693,2.57,2.5703,2.5703,2.5696,2.5703,2.569,2.5691,2.5699,2.5699,2.5699,2.5699,2.5699,2.5699,2.5699,2.5699,2.5699,2.5699,2.5699,2.5699,2.5699,2.5697,2.5617,2.561,2.5603,2.5595,2.5554,2.5499,2.5499,2.5503,2.5507,2.5507,2.5507,2.5507,2.5507,2.5507,2.5507,2.5507,2.6048,2.6586,2.6586,2.715,2.773,2.787,2.786,2.7844,2.7928,2.793,2.7912,2.7854,2.716,2.6619,2.654,2.6469,2.6391,2.6318,2.702,2.7494,2.7494,2.7627,2.8055,2.8855,2.9669,3.0124,3.0124,3.0124,3.0124,3.0124,3.0048,3.0029,3.0029,2.9934,2.9897,2.9897,2.9897,2.9897,2.9897,2.9991,3.0029,2.9972,2.9233,2.9385,3.0124,3.0048,3.0579,3.1497,3.2227,3.3051,3.3809,3.3809,3.3809,3.379,3.0299,3.0292,3.0311,3.0392,3.0404,3.0396,3.0392,3.043,3.0501,3.0582,3.0653,3.0672,3.0698,3.0754,3.0798,3.0792,3.0057,2.9221,2.8362,2.7484,2.6606,2.5746,2.5707,2.5707,2.5708,2.5694,2.57,2.5703,2.5701,2.5693,2.5697,2.5699,2.5705,2.5699,2.5699,2.5699,2.5699,2.5699,2.5699,2.5699,2.5699,2.5699,2.5699,2.5699,2.5699,2.5697,2.5626,2.5598,2.5603,2.5595,2.5564,2.5505,2.5503,2.5503,2.5507,2.5507,2.5507,2.5507,2.5507,2.5507,2.5507,2.5507,2.5623,2.5758,2.5758,2.5854,2.6311,2.7634,2.7888,2.828,2.9579,2.976,2.9723,2.9711,2.9002,2.8403,2.835,2.7743,2.7295,2.7227,2.7376,2.7494,2.7494,2.8635,2.9745,3.0579,3.1393,3.1848,3.1848,3.1848,3.1848,3.1848,3.1242,3.092,3.092,3.0238,2.9897,2.9897,2.9897,2.9897,2.9916,3.0617,3.092,3.0901,3.073,3.1109,3.181,3.1185,3.18,3.3183,3.3354,3.3922,3.4643,3.4643,3.4643,3.4548,3.0253,3.0279,3.0305,3.0355,3.0373,3.0402,3.0433,3.0471,3.0545,3.064,3.069,3.0703,3.074,3.0771,3.0653,3.025,2.9453,2.8615,2.7737,2.686,2.6175,2.5726,2.6097,2.6313,2.6313,2.6724,2.6533,2.5699,2.5703,2.5701,2.5694,2.5697,2.5917,2.6318,2.6287,2.6264,2.6264,2.6264,2.605,2.5699,2.5699,2.5699,2.5699,2.5699,2.5699,2.5697,2.5628,2.5593,2.5593,2.5601,2.5554,2.5492,2.5501,2.5495,2.5507,2.5507,2.5507,2.5507,2.5507,2.5507,2.5507,2.5507,2.5507,2.5507,2.5507,2.546,2.5916,2.7599,2.7947,2.8463,3.0144,3.0411,3.0389,3.0352,2.9642,2.9063,2.8951,2.8555,2.8228,2.8132,2.8468,2.8533,2.8112,2.9564,3.0541,3.0617,3.1734,3.2397,3.2397,3.2397,3.2397,3.2397,3.1981,3.1772,3.1772,3.1318,3.109,3.1071,3.0276,3.0124,3.0522,3.0951,3.1378,3.1737,3.1295,3.1588,3.2306,3.1891,3.2467,3.3639,3.4055,3.4481,3.4859,3.4859,3.4859,3.4803,3.0207,3.0241,3.0292,3.0298,3.0342,3.0402,3.0493,3.05,3.0554,3.0673,3.0695,3.0723,3.078,3.0687,3.0328,2.9651,2.8674,2.7776,2.7055,2.6175,2.5707,2.5707,2.6528,2.6996,2.6996,2.7854,2.7524,2.5927,2.5915,2.5859,2.5703,2.5692,2.6166,2.6996,2.6938,2.6907,2.6905,2.6905,2.6439,2.5699,2.5699,2.5699,2.5699,2.5699,2.5699,2.5697,2.563,2.561,2.5604,2.5607,2.556,2.5495,2.5495,2.5506,2.5507,2.5507,2.5507,2.5507,2.5507,2.5507,2.5507,2.5507,2.5507,2.5546,2.5662,2.57,2.6149,2.7681,2.8128,2.869,3.0231,3.053,3.0509,3.0444,2.986,2.9377,2.9273,2.9232,2.918,2.9046,2.9734,2.9983,2.9385,3.0711,3.1345,3.0682,3.2008,3.2842,3.2842,3.2842,3.2842,3.2842,3.2691,3.2615,3.2615,3.2473,3.2397,3.2379,3.0995,3.0711,3.1404,3.1492,3.1919,3.2543,3.177,3.1921,3.2722,3.2572,3.2986,3.3788,3.4524,3.4798,3.4798,3.4798,3.4798,3.4798,3.0207,3.0214,3.0221,3.0298,3.031,3.0365,3.0469,3.05,3.0544,3.0676,3.0694,3.0738,3.0792,3.0187,2.9728,2.9612,2.8109,2.7133,2.7016,2.6175,2.5707,2.5707,2.6528,2.6996,2.6996,2.7854,2.7815,2.6822,2.6829,2.6443,2.5703,2.5699,2.6175,2.7003,2.6984,2.6952,2.6905,2.6905,2.6439,2.5699,2.5699,2.5699,2.5699,2.5699,2.5699,2.5699,2.5697,2.5643,2.56,2.559,2.556,2.5495,2.5495,2.5506,2.5507,2.5507,2.5507,2.5507,2.5507,2.5507,2.5507,2.5507,2.5507,2.5681,2.6377,2.6551,2.6822,2.7797,2.8606,2.9413,3.0419,3.0588,3.0588,3.0564,3.0424,3.0321,3.0295,3.0188,3.0107,3.0013,3.0616,3.125,3.1829,3.2785,3.3316,3.3202,3.4055,3.4567,3.4567,3.4567,3.4567,3.4567,3.3884,3.3524,3.3524,3.2785,3.2397,3.2397,3.217,3.2115,3.2259,3.2959,3.3289,3.3336,3.3222,3.3656,3.4392,3.3656,3.3845,3.4637,3.4761,3.4798,3.4798,3.4798,3.4798,3.4798,3.0206,3.02,3.0227,3.0286,3.0292,3.0334,3.0428,3.0471,3.0361,2.997,2.9985,2.9859,2.9404,2.9054,2.8675,2.8187,2.7445,2.6781,2.6313,2.5902,2.5707,2.5707,2.6528,2.6996,2.6996,2.8324,2.8596,2.7737,2.7234,2.6809,2.6422,2.5937,2.6422,2.772,2.7684,2.7922,2.8318,2.7825,2.7139,2.6322,2.5874,2.5699,2.5699,2.5699,2.5699,2.5697,2.5667,2.5637,2.5603,2.5604,2.5554,2.5492,2.5498,2.5495,2.5507,2.5507,2.5507,2.5507,2.5507,2.5507,2.5507,2.5507,2.5836,2.6397,2.7232,2.818,2.8857,2.8745,2.9035,2.9573,3.0443,3.0598,3.0598,3.0598,3.0588,3.0704,3.1167,3.1149,3.1213,3.1563,3.1824,3.2123,3.2484,3.3263,3.3757,3.3757,3.4536,3.5011,3.5011,3.5011,3.5001,3.4955,3.466,3.447,3.4442,3.409,3.3891,3.3845,3.3799,3.3535,3.3072,3.2921,3.3355,3.4134,3.3652,3.3924,3.4668,3.4262,3.4338,3.4687,3.4687,3.4687,3.4676,3.4645,3.4655,3.4676]}]]